[[{"header":{"parameterUnit":"m.s-1","parameterCategory":1,"la1":31.0,"la2":29.5877,"lo1":-88.7671,"lo2":-86.6584,"dy":0.0162,"dx":0.0185,"nx":115,"ny":88,"refTime":"2023-09-22T00:00:00:Z","depth":0,"parameterNumber":2,"parameterNumberName":"U-component_of_WINDS"},"data":[0.0,0.0,0.0,0.0,0.0,0.0,0.0,0.0,0.0,0.0,0.0,0.0,0.0,0.0,0.0,0.0,0.0,0.0,0.0,0.0,0.0,0.0,0.0,0.0,0.0,0.0,0.0,0.0,0.0,0.0,0.0,0.0,0.0,0.0,0.0,0.0,0.0,0.0,0.0,0.0,0.0,0.0,0.0,0.0,0.0,0.0,0.0,0.0,0.0,0.0,0.0,0.0,0.0,0.0,0.0,0.0,0.0,0.0,0.0,0.0,0.0,0.0,0.0,0.0,0.0,0.0,0.0,0.0,0.0,0.0,0.0,0.0,0.0,0.0,0.0,0.0,0.0,0.0,0.0,0.0,0.0,0.0,0.0,0.0,0.0,0.0,0.0,0.0,0.0,0.0,0.0,0.0,0.0,0.0,0.0,0.0,0.0,0.0,0.0,0.0,0.0,0.0,0.0,0.0,0.0,0.0,0.0,0.0,0.0,0.0,0.0,0.0,0.0,0.0,0.0,0.0,0.0,0.0,0.0,0.0,0.0,0.0,0.0,0.0,0.0,0.0,0.0,0.0,0.0,0.0,0.0,0.0,0.0,0.0,0.0,0.0,0.0,0.0,0.0,0.0,0.0,0.0,0.0,0.0,0.0,0.0,0.0,0.0,0.0,0.0,0.0,0.0,0.0,0.0,0.0,0.0,0.0,0.0,0.0,0.0,0.0,0.0,0.0,0.0,0.0,0.0,0.0,0.0,0.0,0.0,0.0,0.0,0.0,0.0,0.0,0.0,0.0,0.0,0.0,0.0,0.0,0.0,0.0,0.0,0.0,0.0,0.0,0.0,0.0,0.0,0.0,0.0,0.0,0.0,0.0,0.0,0.0,0.0,0.0,0.0,0.0,0.0,0.0,0.0,0.0,0.0,0.0,0.0,0.0,0.0,0.0,0.0,0.0,0.0,0.0,0.0,0.0,0.0,0.0,0.0,0.0,0.0,0.0,0.0,0.0,0.0,0.0,0.0,0.0,0.0,0.0,0.0,0.0,0.0,0.0,0.0,0.0,0.0,0.0,0.0,0.0,0.0,0.0,0.0,0.0,0.0,0.0,0.0,0.0,0.0,0.0,0.0,0.0,0.0,0.0,0.0,0.0,0.0,0.0,0.0,0.0,0.0,0.0,0.0,0.0,0.0,0.0,0.0,0.0,0.0,0.0,0.0,0.0,0.0,0.0,0.0,0.0,0.0,0.0,0.0,0.0,0.0,0.0,0.0,0.0,0.0,0.0,0.0,0.0,0.0,0.0,0.0,0.0,0.0,0.0,0.0,0.0,0.0,0.0,0.0,0.0,0.0,0.0,0.0,0.0,0.0,0.0,0.0,0.0,0.0,0.0,0.0,0.0,0.0,0.0,0.0,0.0,0.0,0.0,0.0,0.0,0.0,0.0,0.0,0.0,0.0,0.0,0.0,0.0,0.0,0.0,0.0,0.0,0.0,0.0,0.0,0.0,0.0,0.0,0.0,0.0,0.0,0.0,0.0,0.0,0.0,0.0,0.0,0.0,0.0,0.0,0.0,0.0,0.0,0.0,0.0,0.0,0.0,0.0,0.0,0.0,0.0,0.0,0.0,0.0,0.0,0.0,0.0,0.0,0.0,0.0,0.0,0.0,0.0,0.0,0.0,0.0,0.0,0.0,0.0,0.0,0.0,0.0,0.0,0.0,0.0,0.0,0.0,0.0,0.0,0.0,0.0,0.0,0.0,0.0,0.0,0.0,0.0,0.0,0.0,0.0,0.0,0.0,0.0,0.0,0.0,0.0,0.0,0.0,0.0,0.0,0.0,0.0,0.0,0.0,0.0,0.0,0.0,0.0,0.0,0.0,0.0,0.0,0.0,0.0,0.0,0.0,0.0,0.0,0.0,0.0,0.0,0.0,0.0,0.0,0.0,0.0,0.0,0.0,0.0,0.0,0.0,0.0,0.0,0.0,0.0,0.0,0.0,0.0,0.0,0.0,0.0,0.0,0.0,0.0,0.0,0.0,0.0,0.0,0.0,0.0,0.0,0.0,0.0,0.0,0.0,0.0,0.0,0.0,0.0,0.0,0.0,0.0,0.0,0.0,0.0,0.0,0.0,0.0,0.0,0.0,0.0,0.0,0.0,0.0,0.0,0.0,0.0,0.0,0.0,0.0,0.0,0.0,0.0,0.0,0.0,0.0,0.0,0.0,0.0,0.0,0.0,0.0,0.0,0.0,0.0,0.0,0.0,0.0,0.0,0.0,0.0,0.0,0.0,0.0,0.0,0.0,0.0,0.0,0.0,0.0,0.0,0.0,0.0,0.0,0.0,0.0,0.0,0.0,0.0,0.0,0.0,0.0,0.0,0.0,0.0,0.0,0.0,0.0,0.0,0.0,0.0,0.0,0.0,0.0,0.0,0.0,0.0,0.0,0.0,0.0,0.0,0.0,0.0,0.0,0.0,0.0,0.0,0.0,0.0,0.0,0.0,0.0,0.0,0.0,0.0,0.0,0.0,0.0,0.0,0.0,0.0,0.0,0.0,0.0,0.0,0.0,0.0,0.0,0.0,0.0,0.0,0.0,0.0,0.0,0.0,0.0,0.0,0.0,0.0,0.0,0.0,0.0,0.0,0.0,0.0,0.0,0.0,0.0,0.0,0.0,0.0,0.0,0.0,0.0,0.0,0.0,0.0,0.0,0.0,0.0,0.0,0.0,0.0,0.0,0.0,0.0,0.0,0.0,0.0,0.0,0.0,0.0,0.0,0.0,0.0,0.0,0.0,0.0,0.0,0.0,0.0,0.0,0.0,0.0,0.0,0.0,0.0,0.0,0.0,0.0,0.0,0.0,0.0,0.0,0.0,0.0,0.0,0.0,0.0,0.0,0.0,0.0,0.0,0.0,0.0,0.0,0.0,0.0,0.0,0.0,0.0,0.0,0.0,0.0,0.0,0.0,0.0,0.0,0.0,0.0,0.0,0.0,0.0,0.0,0.0,0.0,0.0,0.0,0.0,0.0,0.0,0.0,0.0,0.0,0.0,0.0,0.0,0.0,0.0,0.0,0.0,0.0,0.0,0.0,0.0,0.0,0.0,0.0,0.0,0.0,0.0,0.0,0.0,0.0,0.0,0.0,0.0,0.0,0.0,0.0,0.0,0.0,0.0,0.0,0.0,0.0,0.0,0.0,0.0,0.0,0.0,0.0,0.0,0.0,0.0,0.0,0.0,0.0,0.0,0.0,0.0,0.0,0.0,0.0,0.0,0.0,0.0,0.0,0.0,0.0,0.0,0.0,0.0,0.0,0.0,0.0,0.0,0.0,0.0,0.0,0.0,0.0,0.0,0.0,0.0,0.0,0.0,0.0,0.0,0.0,0.0,0.0,0.0,0.0,0.0,0.0,0.0,0.0,0.0,0.0,0.0,0.0,0.0,0.0,0.0,0.0,0.0,0.0,0.0,0.0,0.0,0.0,0.0,0.0,0.0,0.0,0.0,0.0,0.0,0.0,0.0,0.0,0.0,0.0,0.0,0.0,0.0,0.0,0.0,0.0,0.0,0.0,0.0,0.0,0.0,0.0,0.0,0.0,0.0,0.0,0.0,0.0,0.0,0.0,0.0,0.0,0.0,0.0,0.0,0.0,0.0,0.0,0.0,0.0,0.0,0.0,0.0,0.0,0.0,0.0,0.0,0.0,0.0,0.0,0.0,0.0,0.0,0.0,0.0,0.0,0.0,0.0,0.0,0.0,0.0,0.0,0.0,0.0,0.0,0.0,0.0,0.0,0.0,0.0,0.0,0.0,0.0,0.0,0.0,0.0,0.0,0.0,0.0,0.0,0.0,0.0,0.0,0.0,0.0,0.0,0.0,0.0,0.0,0.0,0.0,0.0,0.0,0.0,0.0,0.0,0.0,0.0,0.0,0.0,0.0,0.0,0.0,0.0,0.0,0.0,0.0,0.0,0.0,0.0,0.0,0.0,0.0,0.0,0.0,0.0,0.0,0.0,0.0,0.0,0.0,0.0,0.0,0.0,0.0,0.0,0.0,0.0,0.0,0.0,0.0,0.0,0.0,0.0,0.0,0.0,0.0,0.0,0.0,0.0,0.0,0.0,0.0,0.0,0.0,0.0,0.0,0.0,0.0,0.0,0.0,0.0,0.0,0.0,0.0,0.0,0.0,0.0,0.0,0.0,0.0,0.0,0.0,0.0,0.0,0.0,0.0,0.0,0.0,0.0,0.0,0.0,0.0,0.0,0.0,0.0,0.0,0.0,0.0,0.0,0.0,2.058,0.0,0.0,0.0,0.0,0.0,0.0,0.0,0.0,0.0,0.0,0.0,0.0,0.0,0.0,0.0,0.0,0.0,0.0,0.0,0.0,0.0,0.0,0.0,0.0,0.0,0.0,0.0,0.0,0.0,0.0,0.0,0.0,0.0,0.0,0.0,0.0,0.0,0.0,0.0,0.0,0.0,0.0,0.0,0.0,0.0,0.0,0.0,0.0,0.0,0.0,0.0,0.0,0.0,0.0,0.0,0.0,0.0,0.0,0.0,0.0,0.0,0.0,0.0,0.0,0.0,0.0,0.0,0.0,0.0,0.0,0.0,0.0,0.0,0.0,0.0,0.0,0.0,0.0,0.0,0.0,0.0,0.0,0.0,0.0,0.0,0.0,0.0,0.0,0.0,0.0,0.0,0.0,0.0,0.0,0.0,0.0,0.0,0.0,0.0,0.0,0.0,0.0,0.0,0.0,0.0,0.0,0.0,0.0,0.0,0.0,2.1645,2.1061,2.1844,2.1601,2.0082,0.0,0.0,0.0,0.0,0.0,0.0,0.0,0.0,0.0,0.0,0.0,0.0,0.0,0.0,0.0,0.0,0.0,0.0,0.0,0.0,0.0,0.0,0.0,0.0,0.0,0.0,0.0,0.0,0.0,0.0,0.0,0.0,0.0,0.0,0.0,0.0,0.0,0.0,0.0,0.0,0.0,0.0,0.0,0.0,0.0,0.0,0.0,0.0,0.0,0.0,0.0,0.0,0.0,0.0,0.0,0.0,0.0,0.0,0.0,0.0,0.0,0.0,0.0,0.0,0.0,0.0,0.0,0.0,0.0,0.0,0.0,0.0,0.0,0.0,0.0,0.0,0.0,0.0,0.0,0.0,0.0,0.0,0.0,0.0,0.0,0.0,0.0,0.0,0.0,0.0,0.0,0.0,0.0,0.0,0.0,0.0,0.0,0.0,0.0,0.0,0.0,0.0,0.0,0.0,0.0,0.0,0.0,0.0,0.0,0.0,0.0,0.0,2.2108,2.1516,1.9856,0.0,0.0,0.0,0.0,0.0,0.0,0.0,0.0,0.0,0.0,0.0,0.0,0.0,0.0,0.0,0.0,0.0,0.0,0.0,0.0,0.0,0.0,0.0,0.0,0.0,0.0,0.0,0.0,0.0,0.0,0.0,0.0,0.0,0.0,0.0,0.0,0.0,0.0,0.0,0.0,0.0,0.0,0.0,0.0,0.0,0.0,0.0,0.0,0.0,0.0,0.0,0.0,0.0,0.0,0.0,0.0,0.0,0.0,0.0,0.0,0.0,0.0,0.0,0.0,0.0,0.0,0.0,0.0,0.0,0.0,0.0,0.0,0.0,0.0,0.0,0.0,0.0,0.0,0.0,0.0,0.0,0.0,0.0,0.0,0.0,0.0,0.0,0.0,0.0,0.0,0.0,0.0,0.0,0.0,0.0,0.0,0.0,0.0,0.0,0.0,0.0,0.0,0.0,0.0,0.0,0.0,0.0,0.0,0.0,0.0,2.1174,2.162,2.2054,0.0,2.0145,0.0,0.0,0.0,0.0,0.0,0.0,0.0,0.0,0.0,0.0,0.0,0.0,0.0,0.0,0.0,0.0,0.0,0.0,0.0,0.0,0.0,0.0,0.0,0.0,0.0,0.0,0.0,0.0,0.0,0.0,0.0,0.0,0.0,0.0,0.0,0.0,0.0,0.0,0.0,0.0,0.0,0.0,0.0,0.0,0.0,0.0,0.0,0.0,0.0,0.0,0.0,0.0,0.0,0.0,0.0,0.0,0.0,0.0,0.0,0.0,0.0,0.0,0.0,0.0,0.0,0.0,0.0,0.0,0.0,0.0,0.0,0.0,0.0,0.0,0.0,0.0,0.0,0.0,0.0,0.0,0.0,0.0,0.0,0.0,0.0,0.0,0.0,0.0,0.0,0.0,0.0,0.0,0.0,0.0,0.0,0.0,0.0,0.0,0.0,0.0,0.0,0.0,0.0,0.0,0.0,0.0,0.0,0.0,0.0,0.0,2.1346,2.189,2.1501,2.0748,0.0,0.0,0.0,0.0,0.0,0.0,0.0,0.0,0.0,0.0,0.0,0.0,0.0,0.0,0.0,0.0,0.0,0.0,0.0,0.0,0.0,0.0,0.0,0.0,0.0,0.0,0.0,0.0,0.0,0.0,0.0,0.0,0.0,0.0,0.0,0.0,0.0,0.0,0.0,0.0,0.0,0.0,0.0,0.0,0.0,0.0,0.0,0.0,0.0,0.0,0.0,0.0,0.0,0.0,0.0,0.0,0.0,0.0,0.0,0.0,0.0,0.0,0.0,0.0,0.0,0.0,0.0,0.0,0.0,0.0,0.0,0.0,0.0,0.0,0.0,0.0,0.0,0.0,0.0,0.0,0.0,0.0,0.0,0.0,0.0,0.0,0.0,0.0,0.0,0.0,0.0,0.0,0.0,0.0,0.0,0.0,0.0,0.0,0.0,0.0,0.0,0.0,0.0,0.0,0.0,0.0,0.0,0.0,0.0,0.0,2.1515,2.1897,2.2364,2.1174,2.0144,1.9425,0.0,0.0,0.0,0.0,0.0,0.0,0.0,0.0,0.0,0.0,0.0,0.0,0.0,0.0,0.0,0.0,0.0,0.0,0.0,0.0,0.0,0.0,0.0,0.0,0.0,0.0,0.0,0.0,0.0,0.0,0.0,0.0,0.0,0.0,0.0,0.0,0.0,0.0,0.0,0.0,0.0,0.0,0.0,0.0,0.0,0.0,0.0,0.0,0.0,0.0,0.0,0.0,0.0,0.0,0.0,0.0,0.0,0.0,0.0,0.0,0.0,0.0,0.0,0.0,0.0,0.0,0.0,0.0,0.0,0.0,0.0,0.0,0.0,0.0,0.0,0.0,0.0,0.0,0.0,0.0,0.0,0.0,0.0,0.0,0.0,0.0,0.0,0.0,0.0,0.0,0.0,0.0,0.0,0.0,0.0,0.0,0.0,0.0,0.0,0.0,0.0,0.0,0.0,0.0,0.0,0.0,0.0,0.0,2.3143,2.2817,2.2857,2.3293,2.1252,2.0028,0.0,0.0,0.0,0.0,0.0,0.0,0.0,0.0,0.0,0.0,0.0,0.0,0.0,0.0,0.0,0.0,0.0,0.0,0.0,0.0,0.0,0.0,0.0,0.0,0.0,0.0,0.0,0.0,0.0,0.0,0.0,0.0,0.0,0.0,0.0,0.0,0.0,0.0,0.0,0.0,0.0,0.0,0.0,0.0,0.0,0.0,0.0,0.0,0.0,0.0,0.0,0.0,0.0,0.0,0.0,0.0,0.0,0.0,0.0,0.0,0.0,0.0,0.0,0.0,0.0,0.0,0.0,0.0,0.0,0.0,0.0,0.0,0.0,0.0,0.0,0.0,0.0,0.0,0.0,0.0,0.0,0.0,0.0,0.0,0.0,0.0,0.0,0.0,0.0,0.0,0.0,0.0,0.0,0.0,0.0,0.0,0.0,0.0,0.0,0.0,0.0,0.0,0.0,0.0,0.0,0.0,0.0,0.0,0.0,2.2278,2.2711,2.3166,2.3512,2.1735,2.0586,0.0,0.0,0.0,0.0,0.0,0.0,0.0,0.0,0.0,0.0,0.0,0.0,0.0,0.0,0.0,0.0,0.0,0.0,0.0,0.0,0.0,0.0,0.0,0.0,0.0,0.0,0.0,0.0,0.0,0.0,0.0,0.0,0.0,0.0,0.0,0.0,0.0,0.0,0.0,0.0,0.0,0.0,0.0,0.0,0.0,0.0,0.0,0.0,0.0,0.0,0.0,0.0,0.0,0.0,0.0,0.0,0.0,0.0,0.0,0.0,0.0,0.0,0.0,0.0,0.0,0.0,0.0,0.0,0.0,0.0,0.0,0.0,0.0,0.0,0.0,0.0,0.0,0.0,0.0,0.0,0.0,0.0,0.0,0.0,0.0,0.0,0.0,0.0,0.0,0.0,0.0,0.0,0.0,0.0,0.0,0.0,0.0,0.0,0.0,0.0,0.0,0.0,0.0,0.0,0.0,0.0,0.0,0.0,0.0,2.2123,0.0,2.3138,2.3152,2.1698,2.0511,0.0,0.0,0.0,0.0,0.0,0.0,0.0,0.0,0.0,0.0,0.0,0.0,0.0,0.0,0.0,0.0,0.0,0.0,0.0,0.0,0.0,0.0,0.0,0.0,0.0,0.0,0.0,0.0,0.0,0.0,0.0,0.0,0.0,0.0,0.0,0.0,0.0,0.0,0.0,0.0,0.0,0.0,0.0,0.0,0.0,0.0,0.0,0.0,0.0,0.0,0.0,0.0,0.0,0.0,0.0,0.0,0.0,0.0,0.0,0.0,0.0,0.0,0.0,0.0,0.0,0.0,0.0,0.0,0.0,0.0,0.0,0.0,0.0,0.0,0.0,0.0,0.0,0.0,0.0,0.0,0.0,0.0,0.0,0.0,0.0,0.0,0.0,0.0,0.0,0.0,0.0,0.0,0.0,0.0,0.0,0.0,0.0,0.0,0.0,0.0,0.0,0.0,0.0,0.0,0.0,0.0,0.0,0.0,2.1547,2.2871,2.3046,2.2833,2.2238,2.1066,1.9693,0.0,0.0,0.0,0.0,0.0,0.0,0.0,0.0,0.0,0.0,0.0,0.0,0.0,0.0,0.0,0.0,0.0,0.0,0.0,0.0,0.0,0.0,0.0,0.0,0.0,0.0,0.0,0.0,0.0,0.0,0.0,0.0,0.0,0.0,0.0,0.0,0.0,0.0,0.0,0.0,0.0,0.0,0.0,0.0,0.0,0.0,0.0,0.0,0.0,0.0,0.0,0.0,0.0,0.0,0.0,0.0,0.0,0.0,0.0,0.0,0.0,0.0,0.0,0.0,0.0,0.0,0.0,0.0,0.0,0.0,0.0,0.0,0.0,0.0,0.0,0.0,0.0,0.0,0.0,0.0,0.0,0.0,0.0,0.0,0.0,0.0,0.0,0.0,0.0,0.0,0.0,0.0,0.0,0.0,0.0,0.0,0.0,0.0,0.0,0.0,0.0,0.0,0.0,0.0,0.0,0.0,0.0,0.0,0.0,2.1458,2.1659,2.218,2.2909,2.1012,1.9885,0.0,0.0,0.0,0.0,0.0,0.0,0.0,0.0,0.0,0.0,0.0,0.0,0.0,0.0,0.0,0.0,0.0,0.0,0.0,0.0,0.0,0.0,0.0,0.0,0.0,0.0,0.0,0.0,0.0,0.0,0.0,0.0,0.0,0.0,0.0,0.0,0.0,0.0,0.0,0.0,0.0,0.0,0.0,0.0,0.0,0.0,0.0,0.0,0.0,0.0,0.0,0.0,0.0,0.0,0.0,0.0,0.0,0.0,0.0,0.0,0.0,0.0,0.0,0.0,0.0,0.0,0.0,0.0,0.0,0.0,0.0,0.0,0.0,0.0,0.0,0.0,0.0,0.0,0.0,0.0,0.0,0.0,0.0,0.0,0.0,0.0,0.0,0.0,0.0,0.0,0.0,0.0,0.0,0.0,0.0,0.0,0.0,0.0,0.0,0.0,0.0,0.0,0.0,0.0,0.0,0.0,0.0,0.0,0.0,1.8972,2.0134,2.125,2.2198,2.0557,1.9659,1.9655,0.0,0.0,0.0,0.0,0.0,0.0,0.0,0.0,0.0,0.0,0.0,0.0,0.0,0.0,0.0,0.0,0.0,0.0,0.0,0.0,0.0,0.0,0.0,0.0,0.0,0.0,0.0,0.0,0.0,0.0,0.0,0.0,0.0,0.0,0.0,0.0,0.0,0.0,0.0,0.0,0.0,0.0,0.0,0.0,0.0,0.0,0.0,0.0,0.0,0.0,0.0,0.0,0.0,0.0,0.0,0.0,0.0,0.0,0.0,0.0,0.0,0.0,0.0,0.0,0.0,0.0,0.0,0.0,0.0,0.0,0.0,0.0,0.0,0.0,0.0,0.0,0.0,0.0,0.0,0.0,0.0,0.0,0.0,0.0,0.0,0.0,0.0,0.0,0.0,0.0,0.0,0.0,0.0,0.0,0.0,0.0,0.0,0.0,0.0,0.0,0.0,0.0,0.0,0.0,0.0,0.0,0.0,0.0,1.5765,1.855,2.0109,2.0319,1.9749,1.9072,0.0,0.0,0.0,0.0,0.0,0.0,0.0,0.0,0.0,0.0,0.0,0.0,0.0,0.0,0.0,0.0,0.0,0.0,0.0,0.0,0.0,0.0,0.0,0.0,0.0,0.0,0.0,0.0,0.0,0.0,0.0,0.0,0.0,0.0,0.0,0.0,0.0,0.0,0.0,0.0,0.0,0.0,0.0,0.0,0.0,0.0,0.0,0.0,0.0,0.0,0.0,0.0,0.0,0.0,0.0,0.0,0.0,0.0,0.0,0.0,0.0,0.0,0.0,0.0,0.0,0.0,0.0,0.0,0.0,0.0,0.0,0.0,0.0,0.0,0.0,0.0,0.0,0.0,0.0,0.0,0.0,0.0,0.0,0.0,0.0,0.0,0.0,0.0,0.0,0.0,0.0,0.0,0.0,0.0,0.0,0.0,0.0,0.0,0.0,0.0,0.0,0.0,0.0,0.0,0.0,0.0,0.0,0.0,0.0,1.5335,1.6959,1.8585,2.0137,1.9261,1.8961,0.0,0.0,0.0,0.0,0.0,0.0,0.0,0.0,0.0,0.0,0.0,0.0,0.0,0.0,0.0,0.0,0.0,0.0,0.0,0.0,0.0,0.0,0.0,0.0,0.0,0.0,0.0,0.0,0.0,0.0,0.0,0.0,0.0,0.0,0.0,0.0,0.0,0.0,0.0,0.0,0.0,0.0,0.0,0.0,0.0,0.0,0.0,0.0,0.0,0.0,0.0,0.0,0.0,0.0,0.0,0.0,0.0,0.0,0.0,0.0,0.0,0.0,0.0,0.0,0.0,0.0,0.0,0.0,0.0,0.0,0.0,0.0,0.0,0.0,0.0,0.0,0.0,0.0,0.0,0.0,0.0,0.0,0.0,0.0,0.0,0.0,0.0,0.0,0.0,0.0,0.0,0.0,0.0,0.0,0.0,0.0,0.0,0.0,0.0,0.0,0.0,0.0,0.0,0.0,0.0,0.0,0.0,0.0,1.4558,1.4807,1.5581,1.7091,1.9426,1.8782,1.8642,0.0,0.0,0.0,0.0,0.0,0.0,0.0,0.0,0.0,0.0,0.0,0.0,0.0,0.0,0.0,0.0,0.0,0.0,0.0,0.0,0.0,0.0,0.0,0.0,0.0,0.0,0.0,0.0,0.0,0.0,0.0,0.0,0.0,0.0,0.0,0.0,0.0,0.0,0.0,0.0,0.0,0.0,0.0,0.0,0.0,0.0,0.0,0.0,0.0,0.0,0.0,0.0,0.0,0.0,0.0,0.0,0.0,0.0,0.0,0.0,0.0,0.0,0.0,0.0,0.0,0.0,0.0,0.0,0.0,0.0,0.0,0.0,0.0,0.0,0.0,0.0,0.0,0.0,0.0,0.0,0.0,0.0,0.0,0.0,0.0,0.0,0.0,0.0,0.0,0.0,0.0,0.0,0.0,0.0,0.0,0.0,0.0,0.0,0.0,0.0,0.0,0.0,0.0,0.0,0.0,0.0,0.0,0.0,1.3892,1.4532,1.4858,1.6132,1.8367,1.8293,1.8195,0.0,0.0,0.0,0.0,0.0,0.0,0.0,0.0,0.0,0.0,0.0,0.0,0.0,0.0,0.0,0.0,0.0,0.0,0.0,0.0,0.0,0.0,0.0,0.0,0.0,0.0,0.0,0.0,0.0,0.0,0.0,0.0,0.0,0.0,0.0,0.0,0.0,0.0,0.0,0.0,0.0,0.0,0.0,0.0,0.0,0.0,0.0,0.0,0.0,0.0,0.0,0.0,0.0,0.0,0.0,0.0,0.0,0.0,0.0,0.0,0.0,0.0,0.0,0.0,0.0,0.0,0.0,0.0,0.0,0.0,0.0,0.0,0.0,0.0,0.0,0.0,0.0,0.0,0.0,0.0,0.0,0.0,0.0,0.0,0.0,0.0,0.0,0.0,0.0,0.0,0.0,0.0,0.0,0.0,0.0,0.0,0.0,0.0,0.0,0.0,0.0,0.0,0.0,0.0,0.0,0.0,0.0,0.0,1.4638,1.5509,1.7039,1.8049,1.8484,1.7662,1.7581,0.0,0.0,0.0,0.0,0.0,0.0,0.0,0.0,0.0,0.0,0.0,0.0,0.0,0.0,0.0,0.0,0.0,0.0,0.0,0.0,0.0,0.0,0.0,0.0,0.0,0.0,0.0,0.0,0.0,0.0,0.0,0.0,0.0,0.0,0.0,0.0,0.0,0.0,0.0,0.0,0.0,0.0,0.0,0.0,0.0,0.0,0.0,0.0,2.3226,0.0,0.0,0.0,0.0,0.0,0.0,0.0,0.0,0.0,0.0,0.0,0.0,0.0,0.0,0.0,0.0,0.0,0.0,0.0,0.0,0.0,0.0,0.0,0.0,0.0,0.0,0.0,0.0,0.0,0.0,0.0,0.0,0.0,0.0,0.0,0.0,0.0,0.0,0.0,0.0,0.0,0.0,0.0,0.0,0.0,0.0,0.0,0.0,0.0,0.0,0.0,0.0,0.0,0.0,0.0,0.0,0.0,0.0,0.0,1.5467,1.6334,1.7846,1.8891,1.9384,1.8578,1.8253,0.0,0.0,0.0,0.0,0.0,0.0,0.0,0.0,0.0,0.0,0.0,0.0,0.0,0.0,0.0,0.0,0.0,0.0,0.0,0.0,0.0,0.0,0.0,0.0,0.0,0.0,0.0,0.0,0.0,0.0,0.0,0.0,0.0,0.0,0.0,0.0,0.0,0.0,0.0,0.0,0.0,0.0,0.0,0.0,0.0,0.0,0.0,0.0,0.0,0.0,0.0,0.0,0.0,0.0,0.0,0.0,0.0,0.0,0.0,0.0,0.0,0.0,0.0,0.0,0.0,0.0,0.0,0.0,0.0,0.0,0.0,0.0,0.0,0.0,0.0,0.0,0.0,0.0,0.0,0.0,0.0,0.0,0.0,0.0,0.0,0.0,0.0,0.0,0.0,0.0,0.0,0.0,0.0,0.0,0.0,0.0,0.0,0.0,0.0,0.0,0.0,0.0,0.0,0.0,0.0,0.0,0.0,1.5096,1.636,1.7194,1.8412,1.9556,2.0611,2.0291,1.9724,1.8865,0.0,0.0,0.0,0.0,0.0,0.0,0.0,0.0,0.0,0.0,0.0,0.0,0.0,0.0,0.0,0.0,0.0,0.0,0.0,0.0,0.0,0.0,0.0,0.0,0.0,0.0,0.0,0.0,0.0,0.0,0.0,0.0,0.0,0.0,0.0,0.0,0.0,0.0,1.6088,1.6607,0.0,0.0,0.0,0.0,0.0,0.0,0.0,0.0,2.3103,0.0,0.0,0.0,0.0,0.0,0.0,0.0,0.0,0.0,0.0,0.0,0.0,0.0,0.0,0.0,0.0,0.0,0.0,0.0,0.0,0.0,0.0,0.0,0.0,0.0,0.0,0.0,0.0,0.0,0.0,0.0,0.0,0.0,0.0,0.0,0.0,0.0,0.0,0.0,0.0,0.0,0.0,0.0,0.0,0.0,0.0,0.0,0.0,0.0,0.0,0.0,0.0,0.0,0.0,0.0,0.0,1.5308,1.6244,1.7246,1.8411,2.0165,2.1145,2.1267,2.2284,2.205,2.0406,0.0,0.0,0.0,0.0,0.0,0.0,0.0,0.0,0.0,0.0,0.0,0.0,0.0,0.0,0.0,0.0,0.0,0.0,0.0,0.0,0.0,0.0,0.0,0.0,0.0,0.0,0.0,0.0,0.0,0.0,0.0,0.0,0.0,0.0,0.0,0.0,0.0,0.0,0.0,1.692,1.8457,0.0,0.0,0.0,0.0,0.0,0.0,0.0,0.0,2.2552,0.0,0.0,0.0,0.0,0.0,0.0,0.0,0.0,0.0,0.0,0.0,0.0,0.0,0.0,0.0,0.0,0.0,0.0,0.0,0.0,0.0,0.0,0.0,0.0,0.0,0.0,0.0,0.0,0.0,0.0,0.0,0.0,0.0,0.0,0.0,0.0,0.0,0.0,0.0,0.0,0.0,0.0,0.0,0.0,0.0,0.0,0.0,0.0,0.0,0.0,0.0,0.0,0.0,0.0,0.0,1.5933,1.7183,1.8464,1.9759,2.1193,2.2161,2.2529,2.2767,2.2495,0.0,0.0,0.0,0.0,0.0,0.0,0.0,0.0,0.0,0.0,0.0,0.0,0.0,0.0,0.0,0.0,0.0,0.0,0.0,0.0,0.0,0.0,0.0,0.0,0.0,0.0,0.0,0.0,0.0,0.0,0.0,0.0,0.0,0.0,0.0,0.0,0.0,0.0,0.0,0.0,1.3912,1.5116,1.5514,0.0,0.0,0.0,0.0,0.0,0.0,2.0185,2.052,0.0,0.0,0.0,0.0,0.0,0.0,0.0,0.0,0.0,0.0,0.0,0.0,0.0,0.0,0.0,0.0,0.0,0.0,0.0,0.0,0.0,0.0,0.0,0.0,0.0,0.0,0.0,0.0,0.0,0.0,0.0,0.0,0.0,0.0,0.0,0.0,0.0,0.0,0.0,0.0,0.0,0.0,0.0,0.0,0.0,0.0,0.0,0.0,0.0,0.0,0.0,0.0,0.0,0.0,0.0,1.664,1.8211,1.9679,2.1082,2.2166,2.3065,2.3778,2.314,2.2748,0.0,0.0,0.0,0.0,0.0,0.0,0.0,0.0,0.0,0.0,0.0,0.0,0.0,0.0,0.0,0.0,0.0,0.0,0.0,0.0,0.0,0.0,0.0,0.0,0.0,0.0,0.0,0.0,0.0,0.0,0.0,0.0,0.0,0.0,0.0,0.0,0.0,0.0,0.0,0.0,0.0,1.138,1.1718,1.2821,0.0,0.0,0.0,0.0,1.667,1.7397,0.0,0.0,0.0,0.0,0.0,0.0,0.0,0.0,0.0,0.0,0.0,0.0,0.0,0.0,0.0,0.0,0.0,0.0,0.0,0.0,0.0,0.0,0.0,0.0,0.0,0.0,0.0,0.0,0.0,0.0,0.0,0.0,0.0,0.0,0.0,0.0,0.0,0.0,0.0,0.0,0.0,0.0,0.0,0.0,0.0,0.0,0.0,0.0,0.0,0.0,0.0,0.0,0.0,0.0,0.0,0.0,1.834,1.9473,2.0754,2.2186,2.3484,2.4264,2.447,2.445,2.4093,0.0,0.0,0.0,0.0,0.0,0.0,0.0,0.0,0.0,0.0,0.0,0.0,0.0,0.0,0.0,0.0,0.0,0.0,0.0,0.0,0.0,0.0,0.0,0.0,0.0,0.0,0.0,0.0,0.0,0.0,0.0,0.0,0.0,0.0,0.0,0.0,0.0,0.0,0.0,0.0,0.0,0.9854,0.9013,0.9871,1.0272,0.0,0.0,1.2051,1.305,1.4128,0.0,0.0,0.0,0.0,0.0,0.0,0.0,0.0,0.0,0.0,0.0,0.0,0.0,0.0,0.0,0.0,0.0,0.0,0.0,0.0,0.0,0.0,0.0,0.0,0.0,0.0,0.0,0.0,0.0,0.0,0.0,0.0,0.0,0.0,0.0,0.0,0.0,0.0,0.0,0.0,0.0,0.0,0.0,0.0,0.0,0.0,0.0,0.0,0.0,0.0,0.0,0.0,0.0,0.0,0.0,1.7615,1.9152,2.0799,2.2366,2.3809,2.4533,2.5108,2.5598,2.4326,2.358,0.0,0.0,0.0,0.0,0.0,0.0,0.0,0.0,0.0,0.0,0.0,0.0,0.0,0.0,0.0,0.0,0.0,0.0,0.0,0.0,0.0,0.0,0.0,0.0,0.0,0.0,0.0,0.0,0.0,0.0,0.0,0.0,0.0,0.0,0.0,0.0,0.0,0.0,0.0,0.0,0.0,0.0,0.515,0.6012,0.0,0.0,0.0,0.8758,0.9233,0.0,0.0,0.0,0.0,0.0,0.0,0.0,0.0,0.0,0.0,0.0,0.0,0.0,0.0,0.0,0.0,0.0,0.0,0.0,0.0,0.0,0.0,0.0,0.0,0.0,0.0,0.0,0.0,0.0,0.0,0.0,0.0,0.0,0.0,0.0,0.0,0.0,0.0,0.0,0.0,0.0,0.0,0.0,0.0,0.0,0.0,0.0,0.0,0.0,0.0,0.0,0.0,0.0,0.0,0.0,0.0,0.0,1.991,2.1884,2.3578,2.486,2.5255,2.5661,2.6041,2.3888,0.0,0.0,0.0,0.0,0.0,0.0,0.0,0.0,0.0,0.0,0.0,0.0,0.0,0.0,0.0,0.0,0.0,0.0,0.0,0.0,0.0,0.0,0.0,0.0,0.0,0.0,0.0,0.7628,0.0,0.0,0.0,0.0,0.0,0.0,0.0,0.0,0.0,0.0,0.0,0.0,0.0,0.0,0.2661,0.1819,0.2649,0.3249,0.0,0.0,0.5614,0.5683,0.7898,0.9731,0.0,0.0,0.0,0.0,0.0,0.0,0.0,0.0,0.0,0.0,0.0,0.0,0.0,0.0,0.0,0.0,0.0,0.0,0.0,0.0,0.0,0.0,0.0,0.0,0.0,0.0,0.0,0.0,0.0,0.0,0.0,0.0,0.0,0.0,0.0,0.0,0.0,0.0,0.0,0.0,0.0,0.0,0.0,0.0,0.0,0.0,0.0,0.0,0.0,0.0,0.0,0.0,0.0,0.0,0.0,2.0976,2.2669,2.3915,2.471,2.557,2.5821,2.5342,2.3381,2.2585,0.0,0.0,0.0,0.0,0.0,0.0,0.0,0.0,0.0,0.0,0.0,0.0,0.0,0.0,0.0,0.0,0.0,0.0,0.0,0.0,0.0,0.0,0.0,0.0,0.0,0.0,0.0,0.0,0.0,0.0,0.0,0.0,0.0,0.0,0.0,0.0,0.0,0.0,0.0,0.0,0.0,0.07,-0.0099,0.0558,0.0851,0.0,0.0,0.2416,0.2661,0.4278,0.6108,0.7898,0.0,0.0,0.0,0.0,0.0,0.0,0.0,0.0,0.0,0.0,0.0,0.0,0.0,0.0,0.0,0.0,0.0,0.0,0.0,0.0,0.0,0.0,0.0,0.0,0.0,0.0,0.0,0.0,0.0,0.0,0.0,0.0,0.0,0.0,0.0,0.0,0.0,0.0,0.0,0.0,0.0,0.0,0.0,0.0,0.0,0.0,0.0,0.0,0.0,0.0,0.0,0.0,0.0,1.9525,2.157,2.3256,2.4504,2.53,2.5815,2.5729,2.4973,2.3211,2.2084,0.0,0.0,0.0,0.0,0.0,0.0,0.0,0.0,0.0,0.0,0.0,0.0,0.0,0.0,0.0,0.0,0.0,0.0,0.0,0.0,0.0,0.0,0.0,0.0,0.0,0.0,0.0,0.0,0.6906,0.6935,0.6488,0.0,0.0,0.0,0.0,0.0,0.0,0.0,0.0,0.0,0.0,0.0645,0.0374,0.0179,0.0,0.0,0.0101,0.0555,0.0655,0.2656,0.4415,0.5065,0.6167,0.0,0.0,0.0,0.0,0.0,0.0,0.0,0.0,0.0,0.0,0.0,0.0,0.0,0.0,0.0,0.0,0.0,0.0,0.0,0.0,0.0,0.0,0.0,0.0,0.0,0.0,0.0,0.0,0.0,0.0,0.0,0.0,0.0,0.0,0.0,0.0,0.0,0.0,0.0,0.0,0.0,0.0,0.0,0.0,0.0,0.0,0.0,0.0,0.0,0.0,0.0,0.0,2.0043,2.2163,2.3469,2.445,2.5156,2.5325,2.5033,2.4168,2.2482,2.1264,0.0,0.0,0.0,0.0,0.0,0.0,0.0,0.0,0.0,0.0,0.0,0.0,0.0,0.0,0.0,0.0,0.0,0.0,0.0,0.0,0.0,0.0,0.0,0.0,0.0,0.0,0.0,0.0,0.679,0.6621,0.5827,0.0,0.0,0.0,0.0,0.0,0.0,0.0,0.0,0.0,0.0,0.0645,0.0453,-0.0051,-0.0487,-0.0708,-0.0353,-0.0025,-0.0025,0.1746,0.31,0.2993,0.0,0.0,0.0,0.0,0.0,0.0,0.0,0.0,0.0,0.0,0.0,0.0,0.0,0.0,0.0,0.0,0.0,0.0,0.0,0.0,0.0,0.0,0.0,0.0,0.0,0.0,0.0,0.0,0.0,0.0,0.0,0.0,0.0,0.0,0.0,0.0,0.0,0.0,0.0,0.0,0.0,0.0,0.0,0.0,0.0,0.0,0.0,0.0,0.0,0.0,0.0,0.0,0.0,2.0502,2.2717,2.3242,2.3636,2.3951,2.393,2.36,2.2893,2.0989,2.0003,2.0127,0.0,0.0,0.0,0.0,0.0,0.0,0.0,0.0,0.0,0.0,0.0,0.0,0.0,0.0,0.0,0.0,0.0,0.0,0.0,0.0,0.0,0.0,0.0,0.0,0.0,0.0,0.557,0.5972,0.5971,0.0,0.0,0.0,0.0,0.0,0.0,0.0,0.0,0.0,0.0,0.1939,0.0554,-0.0177,-0.0379,-0.0582,-0.139,-0.0227,0.0756,0.0732,0.1485,0.2034,0.0,0.0,0.0,0.0,0.0,0.0,0.0,0.0,0.0,0.0,0.0,0.0,0.0,0.0,0.0,0.0,0.0,0.0,0.0,0.0,0.0,0.0,0.0,0.0,0.0,0.0,0.0,1.5192,1.5429,0.0,0.0,0.0,0.0,0.0,0.0,0.0,0.0,0.0,0.0,0.0,1.5069,1.6349,0.0,0.0,0.0,0.0,0.0,0.0,0.0,0.0,0.0,0.0,0.0,0.0,2.0534,2.275,2.2665,2.2732,2.3028,2.2687,2.2016,2.0987,1.968,1.8229,1.6644,0.0,0.0,0.0,0.0,0.0,0.0,0.0,0.0,0.0,0.0,0.0,0.0,0.0,0.0,0.0,0.0,0.0,0.0,0.0,0.0,0.0,0.0,0.0,0.0,0.0,0.611,0.0,0.0,0.0,0.0,0.0,0.0,0.0,0.0,0.0,0.0,0.0,0.3854,0.4323,0.3818,0.3053,0.2115,0.1538,0.0912,0.0,0.0,0.0,0.0,0.0,0.0,0.0,0.0,0.0,0.0,0.0,0.0,0.0,0.0,0.4801,0.5787,0.575,0.5598,0.5683,0.0,0.0,0.0,0.0,0.0,0.0,0.0,0.0,0.0,0.0,0.0,0.0,0.0,0.0,0.0,0.0,1.3406,0.0,0.0,0.0,0.0,0.0,0.0,0.0,0.0,1.229,1.3327,1.4584,1.5921,1.6886,0.0,1.8411,1.9092,0.0,0.0,0.0,0.0,0.0,0.0,0.0,0.0,2.0742,2.2408,2.2036,2.1964,2.231,2.1642,2.0766,1.9775,1.8593,1.6894,1.4671,1.5165,1.5203,0.0,0.0,0.0,0.0,0.0,0.0,0.0,0.0,0.0,0.0,0.0,0.0,0.0,0.0,0.0,0.0,0.0,0.0,0.0,0.0,0.0,0.0,0.0,0.5868,0.0,0.0,0.0,0.0,0.0,0.0,0.0,0.0,0.0,0.5839,0.547,0.5269,0.5363,0.5026,0.426,0.2997,0.0,0.0,0.0,0.0,0.0,0.0,0.0,0.1954,0.14,0.1454,0.1513,0.1343,0.1331,0.1609,0.2302,0.0,0.0,0.3736,0.3825,0.374,0.3868,0.3717,0.361,0.3699,0.3616,0.3697,0.0,0.0,0.0,0.0,0.0,0.0,0.0,0.0,1.197,1.317,0.0,1.2281,0.0,0.0,0.0,0.0,0.0,0.0,0.0,0.0,1.2179,1.2939,1.3958,1.5017,1.625,1.7698,1.9143,1.9904,1.9928,1.8848,0.0,0.0,0.0,0.0,0.0,0.0,2.1051,2.1784,2.1404,2.142,2.1776,2.0743,1.9824,1.9143,1.7715,1.6124,1.439,1.5423,1.5515,1.4264,1.5602,0.0,0.0,0.0,0.0,0.0,0.0,0.0,0.0,0.0,0.0,0.0,0.0,0.0,0.0,0.0,0.0,0.0,0.0,0.0,0.0,0.4829,0.0,0.0,0.0,0.0,0.0,0.0,0.0,0.0,0.0,0.0,0.781,0.7026,0.6419,0.6492,0.0,0.0,0.0,0.0,0.178,0.1062,0.161,0.2143,0.2155,0.222,0.2244,0.2273,0.0,0.0,0.2174,0.2357,0.2393,0.246,0.189,0.1867,0.3754,0.3926,0.3828,0.3893,0.3814,0.3858,0.3926,0.3963,0.4189,0.4161,0.0,0.0,0.0,0.0,0.611,0.6569,0.7143,0.9108,1.0594,1.1645,1.131,0.0,0.0,0.0,0.0,0.0,0.0,1.0464,1.1769,1.2162,1.2939,1.4141,1.5014,1.5883,1.6727,1.7534,1.8163,1.8569,1.8194,1.8103,1.8357,0.0,0.0,0.0,0.0,2.0595,2.1694,2.133,2.0971,2.0751,1.979,1.8468,1.6791,1.6302,1.5612,1.4672,1.4691,1.4958,1.5483,1.5087,0.0,0.0,0.0,0.0,0.0,0.0,0.0,0.0,0.0,0.0,0.0,0.0,0.0,0.0,0.0,0.0,0.0,0.0,0.0,0.4435,0.4524,0.4642,0.0,0.0,0.0,0.0,0.0,0.0,0.0,0.0,0.0,0.945,0.7757,0.6543,0.0,0.0,0.4482,0.3197,0.3002,0.272,0.1934,0.0,0.0,0.0,0.2773,0.2989,0.2402,0.1571,0.1105,0.1335,0.2015,0.2484,0.2527,0.2859,0.3345,0.3748,0.3372,0.3014,0.303,0.3441,0.4213,0.5081,0.516,0.5366,0.1187,0.2987,0.2622,0.2728,0.3163,0.3972,0.4694,0.5473,0.8026,0.9757,1.0832,1.0994,1.1465,1.2014,1.0404,0.0,0.0,0.0,1.1204,1.264,1.2945,1.3614,1.4551,1.5136,1.5689,1.6279,1.6693,1.7227,1.787,1.752,1.7621,1.8129,0.0,0.0,1.8639,1.9421,2.0187,2.0912,2.0551,2.0203,1.9889,1.8762,1.7608,1.6492,1.5756,1.523,1.4839,1.4457,1.4529,1.5161,1.4789,1.4577,0.0,0.0,0.0,0.0,0.0,0.0,0.0,0.0,0.0,0.0,0.0,0.48,0.4506,0.0,0.0,0.0,0.3463,0.379,0.4885,0.4543,0.0,0.0,0.0,0.0,0.0,0.0,0.0,0.8386,0.9373,1.0088,1.0215,0.8591,0.743,0.754,0.6897,0.6035,0.5015,0.0,0.3936,0.3512,0.3469,0.3326,0.285,0.3222,0.3439,0.295,0.2422,0.2122,0.2149,0.267,0.3224,0.3717,0.426,0.4778,0.5244,0.4841,0.4322,0.406,0.4787,0.5738,0.6557,0.6503,0.6715,0.0082,0.0,0.0107,0.0666,0.1568,0.2976,0.403,0.5026,0.8154,1.0171,1.1172,1.1281,1.1398,1.1495,0.9843,0.0,0.0,1.1327,1.2097,1.4002,1.4243,1.4604,1.5121,1.5285,1.5652,1.6183,1.641,1.688,1.7506,1.682,1.6809,1.7436,1.8405,1.8593,1.8124,1.9251,1.9811,1.9734,1.9499,1.9289,1.9218,1.7798,1.7169,1.7415,1.5825,1.4909,1.4805,1.4549,1.4194,1.3764,1.438,1.4747,1.4645,0.0,0.0,0.0,0.0,0.0,0.0,0.0,0.0,0.0,0.0,0.0,0.0,0.0,0.0,0.0,0.3867,0.0,0.5278,0.4819,0.0,0.0,0.0,0.553,0.6653,0.775,0.851,0.8734,0.0,0.0,1.0409,0.0,0.8844,0.8851,0.8647,0.815,0.7229,0.6058,0.5389,0.5402,0.4511,0.3853,0.4033,0.4052,0.4139,0.4109,0.3971,0.4074,0.4161,0.4192,0.469,0.5617,0.5909,0.6191,0.7271,0.7316,0.7285,0.6394,0.7035,0.7789,0.7921,0.7804,0.8054,0.0759,0.008,0.0881,0.0906,0.0559,0.2486,0.3765,0.475,0.7694,0.9812,1.1225,1.1861,1.2559,1.3287,1.3258,1.3408,1.3718,1.3549,1.3942,1.4765,1.4653,1.4896,1.5388,1.5257,1.5428,1.5879,1.5974,1.6197,1.6523,1.6313,1.6659,1.7514,1.7851,1.8074,1.8236,1.8525,1.9181,2.0156,1.9789,1.928,1.859,1.776,1.6902,1.6093,1.5649,1.503,1.4178,1.3783,1.3384,1.2948,1.2224,1.1539,1.093,1.0321,0.0,0.0,0.0,0.0,0.0,0.0,0.0,0.0,0.0,0.425,0.361,0.0,0.425,0.0,0.4669,0.4962,0.4886,0.5523,0.0,0.0,0.7208,0.782,0.8105,0.9079,0.9795,0.9948,1.0211,1.0436,1.0615,1.0385,1.0214,1.0186,0.8613,0.7369,0.7122,0.6853,0.6651,0.6621,0.6378,0.6283,0.6233,0.6384,0.6344,0.644,0.6411,0.6473,0.6484,0.6479,0.6597,0.6906,0.6946,0.7054,0.7359,0.8119,0.8734,0.8502,0.7989,0.7766,0.8715,0.8823,0.9052,0.1958,0.149,0.2073,0.1959,0.1526,0.2573,0.3552,0.4626,0.764,0.9805,1.1287,1.2665,1.3677,1.4461,1.4751,1.4849,1.4826,1.4826,1.5072,1.5494,1.5343,1.5415,1.5686,1.566,1.5716,1.5851,1.5851,1.5995,1.6221,1.5923,1.6177,1.6907,1.6969,1.7272,1.7813,1.8523,1.9407,2.042,1.9613,1.8986,1.8486,1.7423,1.6707,1.6401,1.5051,1.4203,1.3902,1.2879,1.2019,1.1334,1.0639,0.9875,0.9036,0.8578,0.8071,0.0,0.0,0.0,0.0,0.0,0.0,0.0,0.0,0.0,0.0,0.0,0.5358,0.5245,0.5519,0.5673,0.5584,0.6233,0.687,0.7472,0.8184,0.8839,0.9349,0.9939,1.0347,1.0498,1.055,1.0582,1.068,1.0715,1.0715,1.0715,0.9554,0.8692,0.8637,0.8278,0.7891,0.7891,0.7443,0.7132,0.7146,0.7182,0.7197,0.7197,0.7225,0.7213,0.7237,0.7248,0.7421,0.791,0.806,0.8237,0.8723,0.9362,1.0041,1.0457,1.0083,0.9965,1.0729,1.0806,1.1032,0.3385,0.3265,0.3398,0.3368,0.3247,0.3221,0.3727,0.4702,0.7709,0.9838,1.1369,1.348,1.4644,1.505,1.5124,1.5264,1.5493,1.5493,1.572,1.61,1.6061,1.6058,1.6073,1.6271,1.6232,1.6008,1.5955,1.6066,1.6277,1.573,1.5688,1.616,1.6214,1.6613,1.7386,1.8657,1.9522,1.9924,1.8843,1.8311,1.8347,1.698,1.6543,1.7008,1.444,1.3172,1.3591,1.208,1.0747,0.9819,0.9664,0.9201,0.8304,0.7918,0.7605,0.0,0.6562,0.0,0.0,0.0,0.0,0.0,0.0,0.0,0.0,0.6959,0.6502,0.645,0.6516,0.6663,0.6907,0.7128,0.7683,0.8716,0.8902,0.935,1.0307,1.0442,1.0498,1.0672,1.0715,1.0715,1.0715,1.0715,1.0715,1.0688,1.0606,1.0468,1.0551,0.9746,0.9113,0.914,0.8251,0.7864,0.7786,0.7703,0.7709,0.7648,0.7737,0.7594,0.7788,0.7777,0.8037,0.8947,0.9229,0.9525,1.0555,1.0759,1.1244,1.2064,1.231,1.2577,1.2908,1.2851,1.3228,0.4416,0.3639,0.4461,0.4348,0.3622,0.4913,0.5322,0.5178,0.7086,0.9241,1.1588,1.3927,1.4899,1.482,1.5227,1.5448,1.5493,1.5493,1.5922,1.6639,1.6354,1.6492,1.6917,1.6718,1.6598,1.6532,1.633,1.6245,1.6309,1.5959,1.6067,1.6579,1.6813,1.7377,1.8195,0.0,0.0,0.0,1.6509,1.6788,1.7186,1.6707,1.6231,1.5772,1.4596,0.0,1.2332,1.1932,1.1365,1.053,0.9978,0.0,0.0,0.0,0.0,0.0,0.0,0.0,0.0,0.0,0.0,0.0,0.8594,0.8042,0.752,0.7546,0.7508,0.7295,0.8039,0.8461,0.8281,0.9157,0.9793,1.0033,1.0209,1.0421,1.0639,1.0639,1.0655,1.0715,1.0715,1.0715,1.0715,1.0715,1.0715,1.0715,1.0715,1.0715,1.0715,1.0468,1.0331,1.0331,0.9994,0.9966,1.0021,0.9911,0.9774,1.0029,1.0021,0.9954,0.9929,0.9944,0.9992,1.0331,1.0378,1.0433,1.0724,1.1419,1.2173,1.239,1.3166,1.3808,1.3865,1.3855,1.3904,0.6626,0.0,0.7048,0.6963,0.0,0.7363,0.7553,0.7373,0.8693,1.0603,1.2931,1.4435,1.5108,1.512,1.5223,1.5357,1.5501,1.5201,1.5586,1.6546,1.651,1.6807,1.7411,1.75,1.7469,1.7319,1.7193,1.707,1.6914,1.6534,1.6351,1.6307,1.645,1.6664,1.6941,1.6241,1.5869,1.5824,1.5719,1.5917,1.6396,1.5761,1.5414,1.5412,0.0,0.0,0.0,0.0,0.0,0.0,0.0,0.0,0.0,0.0,0.0,0.6716,0.7574,0.8153,0.814,0.8649,0.9242,0.9928,0.9739,0.9322,0.8731,0.8931,0.9004,0.8859,0.9352,0.9602,0.9527,1.0025,1.0442,1.0531,1.0639,1.0715,1.0715,1.0715,1.0715,1.0715,1.0715,1.0715,1.0715,1.0715,1.0715,1.0715,1.0715,1.0743,1.0715,1.0715,1.0715,1.0715,1.0715,1.0688,1.0715,1.0715,1.0715,1.0715,1.0715,1.0715,1.0715,1.0715,1.0715,1.0743,1.1118,1.1528,1.1637,1.2445,1.3437,1.4003,1.4594,1.5209,1.561,1.5396,1.5183,0.8879,0.9523,0.9493,0.9493,0.9523,0.9599,0.9723,0.9926,0.0,0.0,0.0,1.4725,1.527,1.5523,1.5336,1.5458,1.5832,1.5351,1.5687,1.667,1.6882,1.7278,1.7738,1.8206,1.8282,1.8084,1.8028,1.7926,1.7711,1.7245,1.671,1.62,1.6173,1.5918,1.5416,1.4776,1.4894,1.5729,1.524,1.5198,1.559,1.4669,1.444,1.5067,1.3263,1.2393,1.2681,1.1437,1.0478,0.992,0.9609,0.9061,0.8281,0.8551,0.8588,0.834,0.8763,0.9211,0.9575,0.9657,0.9945,1.058,1.0364,1.0163,1.0053,1.0197,1.0279,1.0219,1.0235,1.0282,1.0434,1.0458,1.0588,1.0945,1.1017,1.1072,1.1291,1.1318,1.1419,1.1309,1.1419,1.1309,1.1391,1.1419,1.1282,1.1337,1.15,1.1181,1.1017,1.0852,1.0715,1.0715,1.0715,1.0715,1.0715,1.0715,1.0715,1.0715,1.0715,1.0715,1.0715,1.0715,1.0778,1.1072,1.1828,1.2363,1.2716,1.3625,1.4728,1.5701,1.6074,1.6472,1.7226,1.6856,1.6511,0.9859,0.9991,0.9814,0.9844,1.0019,1.0378,1.0941,1.163,1.1674,1.2139,1.2998,1.4403,1.5328,1.5844,1.6031,1.6563,1.7292,1.7239,1.7529,0.0,1.816,1.8225,1.8288,1.8368,1.8368,1.8312,1.8126,1.81,1.8218,1.8007,1.7546,1.7097,1.7264,1.6722,1.557,1.5144,1.4612,1.3924,1.4028,1.4099,1.4194,1.3811,1.3552,1.3391,1.2575,1.2157,1.2338,1.2136,1.2091,1.2202,1.1794,1.1484,1.1362,1.1214,1.0777,0.9923,1.0466,1.0476,0.9682,0.9813,1.0384,1.1259,1.0525,1.0028,1.0247,1.0228,1.0253,1.0371,1.0449,1.0442,1.0631,1.0729,1.1166,1.201,1.2146,1.2526,1.3356,1.3491,1.3464,1.3437,1.3625,1.3545,1.3437,1.3464,1.341,1.3545,1.3275,1.3193,1.2254,1.1318,1.077,1.0715,1.0715,1.0715,1.0715,1.0715,1.0715,1.0715,1.0751,1.0852,1.0852,1.0935,1.1255,1.201,1.2445,1.2896,1.3679,1.4835,1.5621,1.6074,1.6644,1.7331,1.7582,1.7384,1.7371,1.1036,1.1665,1.1522,1.1496,1.1621,1.2302,1.2916,1.3474,1.4014,1.3677,1.2949,1.3857,1.4788,1.5618,1.5618,1.614,1.7107,1.6829,1.7041,1.77,1.8015,1.8448,1.8907,1.9179,1.9309,1.932,1.9188,1.9111,1.9098,1.8827,1.8411,1.7858,1.7401,1.6822,1.6212,1.5809,1.5167,1.4393,1.3815,1.3573,1.3678,1.3563,1.3505,1.3529,1.2924,1.2557,1.251,1.2125,1.2056,1.2335,1.2265,1.2085,1.1809,1.209,1.1757,1.0596,1.1033,1.1235,1.0927,1.1554,1.2104,1.2429,1.2236,1.2116,1.2245,1.1665,1.1354,1.1513,1.2043,1.2421,1.2544,1.2553,1.276,1.3248,1.3302,1.3545,1.3976,1.41,1.41,1.41,1.41,1.41,1.41,1.41,1.41,1.41,1.41,1.3868,1.3383,1.2896,1.2064,1.0989,1.0715,1.0715,1.0743,1.0715,1.0715,1.0715,1.1236,1.1555,1.1692,1.201,1.2689,1.3248,1.3787,1.4433,1.5022,1.6021,1.667,1.6856,1.7147,1.7582,1.7608,1.7608,1.7608,1.2347,1.3565,1.336,1.3382,1.3656,1.4375,1.4768,1.498,1.5808,1.5194,1.3792,1.4223,1.5057,1.5927,1.5767,1.6272,1.712,1.6856,1.7107,1.7844,1.8356,1.8945,1.9635,2.0086,2.0292,2.0292,2.0292,2.0163,1.9957,1.9687,1.9243,1.857,1.7682,1.7167,1.6951,1.6559,1.6049,1.5364,1.4401,1.3807,1.3594,1.3583,1.3692,1.3767,1.339,1.3087,1.2804,1.2264,1.1974,1.2004,1.2204,1.2142,1.181,1.2345,1.2317,1.1613,1.1783,1.2057,1.2385,1.3137,1.3638,1.3744,1.382,1.4035,1.4237,1.3562,1.2933,1.292,1.3534,1.4019,1.3992,1.403,1.4218,1.4433,1.4513,1.4674,1.4862,1.4888,1.4888,1.4888,1.4888,1.4942,1.4888,1.4888,1.4995,1.5022,1.4674,1.4513,1.4486,1.4325,1.3275,1.2118,1.1446,1.1582,1.1473,1.1555,1.161,1.1473,1.22,1.2679,1.2923,1.3545,1.4191,1.4433,1.5183,1.5808,1.6234,1.6935,1.745,1.7503,1.7556,1.7608,1.7608,1.7608,1.7608,1.3785,1.4955,1.481,1.52,1.5889,1.606,1.5998,1.5847,1.5941,1.5835,1.5728,1.6511,1.716,1.7727,1.7635,1.8122,1.8985,1.9011,1.9376,2.0075,2.023,2.0437,2.0719,2.0806,2.0848,2.0832,2.0873,2.0873,2.0822,2.0514,1.9983,1.9254,1.8806,1.8258,1.7619,1.7462,1.7029,1.6214,1.6073,1.5307,1.394,1.3852,1.3751,1.3536,1.3489,1.3355,1.3199,1.3102,1.2724,1.2068,1.2082,1.2125,1.2233,1.2313,1.2731,1.3489,1.3405,1.3365,1.3456,1.3554,1.4202,1.5146,1.4518,1.4496,1.5577,1.5612,1.5079,1.4363,1.4094,1.4309,1.411,1.4229,1.475,1.5657,1.574,1.6127,1.6909,1.7292,1.7292,1.7292,1.7015,1.7252,1.7015,1.6988,1.7094,1.6882,1.618,1.5728,1.5675,1.4995,1.4433,1.3949,1.3787,1.3733,1.3625,1.376,1.3491,1.3572,1.3814,1.3949,1.403,1.4164,1.4406,1.5595,1.5835,1.634,1.7015,1.7582,1.7582,1.7608,1.7608,1.7608,1.7608,1.7608,1.7608,1.5789,1.6524,1.6298,1.6325,1.6587,1.7085,1.7153,1.6975,1.7621,1.791,1.7937,1.8291,1.8213,1.7793,1.778,1.8475,1.9724,1.975,2.0215,2.095,2.113,2.136,2.1598,2.1776,2.1852,2.1852,2.1852,2.1852,2.1776,2.142,2.0822,2.0024,1.9543,1.9101,1.862,1.8239,1.7817,1.7304,1.7147,1.6664,1.59,1.5386,1.5013,1.4759,1.4595,1.4318,1.3948,1.3749,1.3352,1.2737,1.2953,1.301,1.2786,1.3243,1.3529,1.3766,1.4362,1.4714,1.4676,1.5465,1.6121,1.6562,1.6274,1.6346,1.6856,1.7049,1.6897,1.6508,1.6412,1.6461,1.6624,1.6537,1.6615,1.7019,1.6998,1.7107,1.7529,1.7622,1.7608,1.7608,1.7608,1.7608,1.7608,1.7608,1.7608,1.7582,1.712,1.6882,1.6829,1.6446,1.6234,1.618,1.618,1.5503,1.4567,1.41,1.4126,1.4245,1.4728,1.5156,1.5209,1.5835,1.6393,1.6803,1.6803,1.6935,1.745,1.7608,1.7608,1.7608,1.7608,1.7608,1.7608,1.7608,1.7608,1.735,1.7919,1.8119,1.8048,1.7862,1.8467,1.8563,1.8396,1.9192,1.9535,1.9535,1.9561,1.924,1.864,1.8254,1.8945,2.0303,2.0431,2.0995,2.1903,2.2156,2.2367,2.2644,2.2862,2.2937,2.2962,2.292,2.2895,2.2812,2.2442,2.1751,2.0806,2.0318,1.9802,1.9208,1.8724,1.841,1.8108,1.7898,1.7714,1.745,1.6975,1.6419,1.5959,1.5716,1.5384,1.4877,1.4672,1.4202,1.3521,1.3817,1.3927,1.371,1.425,1.4541,1.4662,1.5553,1.6106,1.6028,1.7003,1.7515,1.7367,1.7501,1.7622,1.7729,1.7889,1.8062,1.818,1.8235,1.8301,1.8424,1.8263,1.8156,1.8129,1.7956,1.7836,1.7876,1.7782,1.7716,1.7702,1.7649,1.7608,1.7608,1.7608,1.7608,1.7582,1.7582,1.7608,1.7608,1.7529,1.7529,1.7608,1.7556,1.6909,1.5396,1.5236,1.5049,1.5183,1.5941,1.634,1.6366,1.7147,1.7556,1.7265,1.7503,1.7608,1.7582,1.7608,1.7608,1.7608,1.7608,1.7608,1.7608,1.7608,1.7608,1.8102,1.9332,2.0515,2.0686,2.0495,2.0466,2.0333,1.9903,2.0137,2.0192,2.0204,2.0258,2.0596,2.1081,1.9915,1.9983,2.1158,2.1311,2.2097,2.3395,2.352,2.3737,2.401,2.4035,2.4035,2.396,2.396,2.3861,2.3619,2.3587,2.282,2.1362,2.1209,2.0431,1.9246,1.8974,1.8738,1.8448,1.837,1.8344,1.8318,1.825,1.7685,1.6805,1.6646,1.6428,1.6005,1.5916,1.5432,1.4403,1.4477,1.4647,1.5064,1.5165,1.5742,1.6779,1.7252,1.7476,1.741,1.7542,1.7595,1.7582,1.7608,1.7716,1.7929,1.8035,1.8275,1.8811,1.881,1.8743,1.8584,1.8517,1.8477,1.8477,1.845,1.8397,1.841,1.8089,1.8009,1.7942,1.7756,1.7635,1.7608,1.7608,1.7608,1.7608,1.7608,1.7608,1.7608,1.7608,1.7608,1.7608,1.7608,1.7529,1.7397,1.6909,1.7015,1.7041,1.6882,1.7397,1.7503,1.7582,1.7582,1.7608,1.7608,1.7608,1.7608,1.7608,1.7608,1.7608,1.7608,1.7608,1.7608,1.7608,1.7608,2.071,2.1155,2.1177,2.1145,2.1013,2.0823,2.0517,2.0292,2.1024,2.1333,2.1511,2.2156,2.2663,2.29,2.21,2.2035,2.256,2.2593,2.317,2.4134,2.4208,2.4356,2.4578,2.4603,2.4603,2.4603,2.4627,2.4455,2.4233,2.4208,2.3744,2.2845,2.1946,2.1132,2.0405,1.9583,1.9089,1.8959,1.8829,1.8724,1.8698,1.8527,1.8187,1.7819,1.7793,1.7634,1.7278,1.7278,1.6925,1.621,1.621,1.6274,1.6467,1.665,1.6832,1.7186,1.7463,1.7608,1.7608,1.7608,1.7608,1.7622,1.7769,1.7902,1.8063,1.8356,1.8676,1.8876,1.9118,1.916,1.908,1.8891,1.8771,1.8744,1.8611,1.8517,1.8437,1.8209,1.8022,1.7969,1.7782,1.7622,1.7608,1.7608,1.7608,1.7608,1.7608,1.7608,1.7608,1.7608,1.7608,1.7608,1.7608,1.7608,1.7608,1.7582,1.7582,1.7556,1.7556,1.7529,1.7582,1.7582,1.7608,1.7608,1.7608,1.7608,1.7608,1.7608,1.7608,1.7608,1.7608,1.7608,1.7608,1.7608,1.7608,2.2184,2.2111,2.1715,2.1452,2.1407,2.1557,2.1427,2.1264,2.2341,2.2868,2.3031,2.3749,2.4233,2.4412,2.4149,2.4202,2.4375,2.3913,2.4041,2.4824,2.4892,2.499,2.5137,2.5162,2.5162,2.5162,2.5162,2.5045,2.4917,2.4892,2.4332,2.327,2.2358,2.1489,2.0662,1.9739,1.9298,1.9246,1.913,1.9026,1.9,1.8803,1.8684,1.8684,1.8684,1.8515,1.8148,1.8122,1.7977,1.7648,1.7595,1.7569,1.7595,1.7766,1.774,1.7529,1.7636,1.7689,1.7662,1.7769,1.7836,1.7756,1.7982,1.8196,1.8316,1.8663,1.8903,1.905,1.9225,1.9401,1.9361,1.9214,1.9065,1.9052,1.8891,1.8799,1.8758,1.8489,1.8222,1.7995,1.7782,1.7609,1.7608,1.7608,1.7608,1.7608,1.7608,1.7608,1.7608,1.7608,1.7608,1.7608,1.7608,1.7608,1.7608,1.7608,1.7608,1.7608,1.7608,1.7608,1.7608,1.7608,1.7608,1.7608,1.7608,1.7608,1.7608,1.7608,1.7608,1.7608,1.7608,1.7608,1.7608,1.7608,1.7608,2.2318,2.2453,2.2229,2.226,2.2257,2.3095,2.3292,2.3199,2.4194,2.4686,2.4617,2.4824,2.5378,2.5781,2.5839,2.6207,2.6366,2.5058,2.4833,2.5664,2.5718,2.5718,2.5762,2.5757,2.5757,2.5762,2.5708,2.5689,2.5679,2.5567,2.4652,2.3028,2.2609,2.1582,1.952,1.9576,1.9342,1.936,1.9363,1.9319,1.9286,1.9333,1.9296,1.9293,1.9278,1.9043,1.8491,1.8436,1.8422,1.8396,1.837,1.8396,1.8344,1.8344,1.8239,1.7978,1.7983,1.7849,1.7689,1.809,1.8196,1.8076,1.8317,1.8569,1.8743,1.8918,1.9065,1.9265,1.9374,1.9401,1.9401,1.9361,1.9348,1.9374,1.9308,1.9294,1.9267,1.9065,1.8663,1.8129,1.7769,1.7635,1.7608,1.7608,1.7608,1.7608,1.7608,1.7608,1.7608,1.7608,1.7608,1.7608,1.7608,1.7608,1.7608,1.7608,1.7608,1.7608,1.7608,1.7608,1.7608,1.7608,1.7608,1.7608,1.7608,1.7608,1.7608,1.7608,1.7608,1.7608,1.7608,1.7608,1.7608,1.7608,1.7608,2.531,2.5428,2.5012,2.4897,2.4992,2.5186,2.5012,2.4789,2.5894,2.6224,2.6127,2.6816,2.7327,2.7416,2.7266,2.7239,2.7396,2.6525,2.6299,2.6551,2.6576,2.6557,2.6557,2.6576,2.6596,2.6537,2.6309,2.6191,2.6133,2.5874,2.526,2.4584,2.3178,2.2359,2.1668,2.0463,1.9723,1.9916,1.9918,1.9903,1.9918,1.9903,1.9903,1.9889,1.9767,1.9616,1.9632,1.9242,1.9026,1.9026,1.9037,1.8933,1.875,1.8515,1.8291,1.803,1.7821,1.7702,1.7649,1.7956,1.8169,1.8129,1.8476,1.8756,1.8903,1.9118,1.9281,1.9388,1.9401,1.9401,1.9401,1.9401,1.9401,1.9401,1.9401,1.9401,1.9361,1.9105,1.8636,1.8143,1.7929,1.7796,1.7635,1.7608,1.7608,1.7608,1.7608,1.7608,1.7608,1.7608,1.7608,1.7608,1.7608,1.7608,1.7608,1.7608,1.7608,1.7608,1.7608,1.7608,1.7608,1.7608,1.7608,1.7608,1.7608,1.7608,1.7608,1.7608,1.7608,1.7608,1.7608,1.7608,1.7608,1.7608,1.7608,2.6799,2.6923,2.6567,2.6413,2.654,2.6708,2.6624,2.6505,2.7586,2.7835,2.7633,2.8165,2.8437,2.8262,2.8034,2.7936,2.7871,2.7598,2.75,2.7422,2.7109,2.7012,2.7012,2.7012,2.7012,2.6973,2.6758,2.6621,2.6602,2.6342,2.5988,2.5321,2.3779,2.2774,2.2523,2.0933,2.0047,2.0196,2.0196,2.021,2.021,2.021,2.021,2.0181,2.0047,2.0047,2.0166,1.9828,1.9638,1.9608,1.9547,1.9357,1.9067,1.8757,1.841,1.8084,1.8049,1.7969,1.7715,1.821,1.841,1.837,1.8758,1.9078,1.9118,1.9321,1.9388,1.9401,1.9401,1.9401,1.9401,1.9401,1.9401,1.9401,1.9401,1.9401,1.9348,1.9105,1.8716,1.8303,1.8089,1.7876,1.7689,1.7608,1.7608,1.7608,1.7608,1.7608,1.7608,1.7608,1.7608,1.7608,1.7608,1.7608,1.7608,1.7608,1.7608,1.7608,1.7608,1.7608,1.7608,1.7608,1.7608,1.7608,1.7608,1.7608,1.7608,1.7608,1.7608,1.7608,1.7608,1.7608,1.7608,1.7608,1.7608,2.725,2.7185,2.7215,2.72,2.7116,2.802,2.8276,2.8143,2.9029,2.9225,2.8883,2.8785,2.8625,2.8359,2.8242,2.8223,2.8281,2.8203,2.8164,2.7988,2.7559,2.7201,2.7226,2.7246,2.7246,2.7207,2.7084,2.7025,2.7051,2.6908,2.6506,2.5596,2.4427,2.3296,2.2542,2.1081,2.05,2.0616,2.0466,2.04,2.0386,2.0371,2.0371,2.0371,2.0327,2.0312,2.0342,2.0298,2.0239,2.0166,1.9916,1.9677,1.9393,1.9069,1.8668,1.8288,1.8619,1.8387,1.8144,1.8692,1.9107,1.8758,1.9092,1.9428,1.9428,1.9401,1.9401,1.9401,1.9401,1.9401,1.9401,1.9401,1.9388,1.9361,1.9374,1.9388,1.9348,1.9105,1.8838,1.8517,1.8209,1.7929,1.7702,1.7662,1.7608,1.7608,1.7608,1.7608,1.7608,1.7608,1.7608,1.7608,1.7608,1.7608,1.7608,1.7608,1.7608,1.7608,1.7608,1.7608,1.7608,1.7608,1.7608,1.7608,1.7608,1.7608,1.7608,1.7608,1.7608,1.7608,1.7608,1.7608,1.7608,1.7608,1.7608,3.0127,2.9892,2.9863,2.9817,2.9781,3.015,2.994,2.9632,2.9878,2.959,2.9035,2.8898,2.8664,2.832,2.8301,2.8301,2.8301,2.8301,2.8301,2.8262,2.8105,2.7969,2.7949,2.7949,2.793,2.7891,2.7617,2.7526,2.7487,2.7226,2.6891,2.6532,2.5459,2.4887,2.4597,2.2868,2.2107,2.2106,2.1588,2.1305,2.1319,2.1262,2.132,2.1291,2.1072,2.0941,2.0926,2.0926,2.0678,2.0239,2.0137,2.0079,1.9916,1.9572,1.9301,1.925,1.8878,1.8762,1.8948,1.9214,1.9401,1.9466,1.9559,1.9679,1.9679,1.9522,1.9428,1.9401,1.9401,1.9415,1.9415,1.9415,1.9321,1.9105,1.9267,1.9252,1.9105,1.9158,1.9093,1.8625,1.841,1.8183,1.7929,1.7716,1.7622,1.7608,1.7608,1.7608,1.7608,1.7608,1.7608,1.7608,1.7608,1.7608,1.7608,1.7608,1.7608,1.7608,1.7608,1.7608,1.7608,1.7608,1.7608,1.7608,1.7608,1.7608,1.7608,1.7608,1.7608,1.7608,1.7608,1.7608,1.7608,1.7608,1.7608,3.1641,3.1436,3.123,3.1152,3.1133,3.0976,3.0742,3.0488,3.0254,2.9852,2.9258,2.8957,2.8691,2.832,2.8301,2.8301,2.8301,2.8301,2.8398,2.8555,2.8555,2.8437,2.832,2.8301,2.8301,2.8281,2.8073,2.7976,2.7917,2.7656,2.7559,2.7317,2.642,2.5976,2.5927,2.4662,2.3689,2.3568,2.2923,2.2488,2.2459,2.1949,2.1789,2.1832,2.1701,2.1613,2.1613,2.1628,2.132,2.0808,2.0619,2.0561,2.0416,2.0268,2.0047,1.9864,1.9525,1.9487,1.9403,1.9602,1.9746,1.9813,1.988,1.9973,1.996,1.9813,1.9733,1.9746,1.9733,1.9733,1.9706,1.9626,1.9479,1.9359,1.9225,1.9065,1.8771,1.8878,1.8799,1.8464,1.8263,1.8196,1.7876,1.7689,1.7609,1.7608,1.7608,1.7608,1.7608,1.7622,1.7635,1.7648,1.7662,1.7662,1.7648,1.7609,1.7622,1.7622,1.7608,1.7608,1.7608,1.7608,1.7608,1.7608,1.7608,1.7608,1.7608,1.7608,1.7608,1.7608,1.7608,1.7608,1.7608,1.7608,1.7608,3.2237,3.2159,3.1699,3.1494,3.1396,3.1074,3.082,3.0703,3.0351,2.9902,2.9453,2.9121,2.8809,2.8386,2.8535,2.8476,2.8476,2.8555,2.8711,2.8867,2.8887,2.8684,2.8437,2.832,2.8301,2.8281,2.8301,2.8262,2.8203,2.8223,2.8262,2.7978,2.7147,2.6771,2.6635,2.5836,2.5297,2.4819,2.4116,2.354,2.3226,2.2532,2.2112,2.1964,2.1993,2.2067,2.2125,2.214,2.1862,2.1335,2.1306,2.1189,2.0941,2.116,2.0902,2.0344,2.0407,2.0266,1.9886,2.0127,2.0201,2.0107,2.0184,2.0237,2.0224,2.017,2.0104,2.009,2.0197,2.013,2.0104,1.9973,1.9773,1.9599,1.9239,1.8878,1.8544,1.8464,1.837,1.8049,1.7995,1.7876,1.7702,1.7609,1.7595,1.7756,1.7756,1.7809,1.7876,1.7943,1.7836,1.7716,1.7716,1.7729,1.7662,1.7635,1.7622,1.7635,1.7622,1.7608,1.7608,1.7608,1.7608,1.7608,1.7608,1.7608,1.7608,1.7608,1.7608,1.7608,1.7608,1.7608,1.7608,1.7608,1.7608,3.248,3.2159,3.1699,3.1494,3.1416,3.1074,3.0703,3.041,3.0273,2.9844,2.9258,2.9316,2.918,2.8809,2.9129,2.9324,2.9266,2.9266,2.9383,2.9383,2.9043,2.8879,2.8711,2.8516,2.832,2.832,2.8301,2.8301,2.832,2.834,2.8301,2.824,2.8072,2.7926,2.7741,2.6893,2.6245,2.5989,2.5289,2.4469,2.3786,2.3284,2.2636,2.2024,2.1876,2.2096,2.2389,2.2301,2.214,2.2038,2.1964,2.1906,2.1788,2.1699,2.1548,2.1395,2.0962,2.084,2.1002,2.0756,2.0655,2.0735,2.0615,2.0588,2.0561,2.0388,2.0237,2.021,2.021,2.0264,2.0264,2.017,1.9987,1.9696,1.9415,1.8971,1.8369,1.8343,1.8289,1.8089,1.7996,1.7982,1.7889,1.7675,1.7702,1.7849,1.7956,1.8063,1.813,1.8196,1.8103,1.7956,1.8009,1.8036,1.7862,1.7809,1.7756,1.7689,1.7662,1.7608,1.7608,1.7608,1.7608,1.7608,1.7608,1.7608,1.7608,1.7608,1.7608,1.7608,1.7608,1.7608,1.7608,1.7608,1.7608,3.2949,3.2715,3.2285,3.2109,3.2051,3.171,3.1377,3.1055,3.0693,3.0273,2.9902,2.9931,2.9629,2.9305,2.9676,2.9794,2.9676,2.9813,2.9774,2.9657,2.9492,2.9531,2.9355,2.8926,2.8594,2.8613,2.8594,2.8594,2.8594,2.8613,2.8586,2.8594,2.8594,2.8668,2.8809,2.8038,2.7698,2.7424,2.6634,2.5789,2.5213,2.3987,2.3125,2.2334,2.214,2.2344,2.2753,2.271,2.2637,2.2608,2.2608,2.2462,2.2315,2.2295,2.2272,2.1998,2.19,2.151,2.154,2.1334,2.1092,2.1127,2.0993,2.0909,2.0855,2.0722,2.0575,2.0508,2.0561,2.0655,2.0597,2.0481,2.0241,2.0043,1.9629,1.9118,1.8611,1.8343,1.817,1.7902,1.7782,1.7782,1.7742,1.7702,1.7796,1.7929,1.7996,1.8076,1.8303,1.837,1.8357,1.8303,1.8384,1.8343,1.8143,1.7996,1.7916,1.7796,1.7689,1.7662,1.7608,1.7608,1.7608,1.7608,1.7608,1.7608,1.7608,1.7608,1.7635,1.7622,1.7622,1.7622,1.7608,1.7608,1.7608,3.3386,3.3367,3.2969,3.2793,3.2734,3.2355,3.2081,3.1925,3.1309,3.0879,3.084,3.0508,3.0273,3.0067,3.0254,3.0176,3.0098,3.0215,3.0332,3.0165,3.0312,3.0312,3.0137,2.9766,2.9484,2.9289,2.9101,2.9082,2.9238,2.916,2.9172,2.9141,2.9094,2.9316,2.9492,2.9434,2.9092,2.8859,2.8333,2.7463,2.678,2.5103,2.3817,2.266,2.2535,2.2665,2.2943,2.3032,2.3062,2.3106,2.3106,2.2828,2.2623,2.274,2.291,2.2295,2.2388,2.2222,2.1919,2.1713,2.1524,2.1267,2.1254,2.1222,2.1195,2.1137,2.0985,2.0913,2.0895,2.1029,2.1082,2.0882,2.0722,2.0565,1.999,1.9452,1.8998,1.8489,1.8223,1.7796,1.7782,1.7822,1.7756,1.7715,1.7862,1.7982,1.8049,1.8196,1.845,1.8597,1.8637,1.8664,1.8744,1.8704,1.8504,1.825,1.8129,1.7982,1.7836,1.7769,1.7702,1.7729,1.7742,1.7635,1.7608,1.7648,1.7689,1.7742,1.7729,1.7662,1.7662,1.7716,1.7675,1.7622,1.7622,3.3386,3.3347,3.2969,3.2793,3.2765,3.2394,3.2031,3.1611,3.1543,3.1211,3.0996,3.1142,3.125,3.1191,3.123,3.123,3.1133,3.1172,3.1191,3.1094,3.1211,3.1133,3.0918,3.082,3.0889,3.0762,3.0215,2.997,3.0254,3.0215,3.0019,2.998,2.998,3.0078,3.0254,3.0312,3.0215,3.0059,2.9852,2.9212,2.7885,2.6487,2.4657,2.3032,2.271,2.2904,2.314,2.3151,2.3106,2.3106,2.3106,2.3078,2.2945,2.3032,2.2985,2.2877,2.2704,2.2543,2.2324,2.2135,2.201,2.1961,2.1866,2.174,2.1583,2.1475,2.1276,2.1119,2.1029,2.1096,2.1096,2.1029,2.0909,2.0708,2.0525,2.011,1.9522,1.9158,1.8796,1.8263,1.8089,1.7902,1.7822,1.7822,1.7956,1.8183,1.8357,1.8624,1.8945,1.9025,1.9052,1.9078,1.9105,1.9011,1.885,1.8569,1.8356,1.8155,1.8049,1.8009,1.7956,1.7942,1.7902,1.7849,1.7809,1.7796,1.7849,1.7902,1.7942,1.7969,1.7929,1.7876,1.7822,1.7756,1.7662,3.3386,3.3367,3.3203,3.3125,3.3086,3.291,3.2695,3.245,3.2266,3.207,3.1992,3.209,3.2051,3.1973,3.2109,3.207,3.1875,3.1855,3.1855,3.1855,3.1836,3.1944,3.1719,3.1699,3.1962,3.2031,3.1514,3.0967,3.1172,3.0996,3.0879,3.0879,3.0879,3.0976,3.1074,3.0937,3.0957,3.0879,3.0869,3.0461,2.9209,2.7777,2.5517,2.3792,2.3036,2.3389,2.4175,2.4177,2.4147,2.4147,2.4147,2.3744,2.3355,2.3106,2.3106,2.3043,2.2918,2.2762,2.2637,2.2418,2.2292,2.2104,2.2104,2.1947,2.1709,2.1583,2.1457,2.1177,2.0935,2.0949,2.1082,2.1096,2.1029,2.0922,2.0806,2.0445,2.0,1.9853,1.9397,1.885,1.8409,1.8129,1.7955,1.7996,1.8076,1.8317,1.8597,1.8918,1.9321,1.9292,1.9212,1.9239,1.9212,1.9241,1.9105,1.8891,1.8637,1.8436,1.8275,1.8263,1.8249,1.8249,1.8209,1.8183,1.8116,1.813,1.8156,1.8277,1.8277,1.8223,1.8116,1.8022,1.7996,1.7916,1.7809,3.3386,3.3386,3.3386,3.3386,3.3386,3.3386,3.3367,3.3308,3.3047,3.2891,3.291,3.2891,3.2715,3.2559,3.2578,3.2539,3.2237,3.2237,3.2276,3.2218,3.2383,3.2628,3.25,3.2422,3.2391,3.2938,3.2695,3.2246,3.2031,3.1836,3.1747,3.1777,3.1777,3.1914,3.2081,3.1836,3.166,3.1582,3.1552,3.1298,3.0062,2.8371,2.6086,2.3936,2.3384,2.3922,2.5109,2.5045,2.521,2.5256,2.5133,2.4579,2.3697,2.3261,2.3106,2.3091,2.3047,2.2891,2.2779,2.2599,2.2505,2.2404,2.2324,2.2135,2.1853,2.1727,2.1443,2.1119,2.0949,2.0882,2.1082,2.1109,2.1096,2.1056,2.0882,2.0686,2.0428,2.021,2.0077,1.9503,1.8823,1.8596,1.8623,1.8223,1.8343,1.8531,1.8811,1.8771,1.9092,1.9201,1.9172,1.9225,1.9265,1.9348,1.9294,1.9187,1.8931,1.873,1.8623,1.8556,1.8556,1.8584,1.8557,1.8571,1.8664,1.8719,1.8664,1.8571,1.8571,1.8476,1.8316,1.8223,1.8223,1.8156,1.8063,3.3386,3.3386,3.3386,3.3386,3.3386,3.3386,3.3386,3.3367,3.3308,3.3359,3.325,3.332,3.325,3.3164,3.2891,3.2578,3.2422,3.257,3.2609,3.2472,3.2871,3.3008,3.291,3.3144,3.3016,3.3367,3.3281,3.3281,3.2969,3.2695,3.2617,3.2598,3.2578,3.2676,3.2695,3.2734,3.2918,3.2754,3.2891,3.1803,2.9614,2.8511,2.6741,2.4938,2.4119,2.4462,2.5643,2.5621,2.5609,2.6327,2.5609,2.5102,2.4702,2.3697,2.323,2.3018,2.287,2.2767,2.2941,2.2762,2.2748,2.2798,2.2887,2.2793,2.2386,2.1856,2.1465,2.1127,2.1029,2.1029,2.1082,2.1096,2.1109,2.1096,2.1042,2.0869,2.0695,2.0615,2.0494,2.0304,1.9663,1.9613,1.9613,1.9038,1.8639,1.8839,1.9,1.8971,1.8971,1.9118,1.9187,1.9254,1.9321,1.9374,1.9388,1.9294,1.9201,1.8998,1.8945,1.8865,1.8878,1.8891,1.8971,1.904,1.912,1.9025,1.8851,1.8798,1.881,1.8743,1.8596,1.8516,1.8477,1.8397,1.8303,3.3386,3.3386,3.3386,3.3386,3.3386,3.3386,3.3386,3.3386,3.3386,3.3386,3.3386,3.3386,3.3386,3.3328,3.3203,3.3066,3.2949,3.3047,3.3066,3.2871,3.3203,3.3289,3.3242,3.332,3.3386,3.3386,3.3386,3.3328,3.3308,3.323,3.3113,3.3125,3.3144,3.3125,3.3105,3.332,3.325,3.3191,3.3124,3.227,3.0715,2.9882,2.8944,2.7019,2.6344,2.6518,2.6737,2.6521,2.6076,2.6385,2.5923,2.5806,2.5439,2.5194,2.5331,2.5238,2.4282,2.3627,2.3173,2.2814,2.2826,2.3018,2.3074,2.2918,2.2577,2.204,2.1589,2.1411,2.1186,2.1092,2.1087,2.1096,2.1109,2.1109,2.1109,2.1056,2.0949,2.0949,2.0855,2.0722,2.057,2.0454,2.0267,1.9786,1.9345,1.9386,1.9492,1.9492,1.9399,1.9361,1.9348,1.9281,1.9334,1.9388,1.9401,1.9361,1.9334,1.9227,1.9241,1.9187,1.9201,1.9241,1.9294,1.9158,1.9038,1.8985,1.893,1.8998,1.9038,1.8985,1.889,1.8865,1.8798,1.8557,1.8545,3.3386,3.3386,3.3386,3.3386,3.3386,3.3386,3.3386,3.3386,3.3386,3.3386,3.3386,3.3386,3.3386,3.3386,3.3347,3.325,3.3223,3.3359,3.334,3.3289,3.3328,3.3367,3.3347,3.3386,3.3386,3.3386,3.3386,3.3386,3.3386,3.3367,3.3347,3.3386,3.3328,3.3347,3.3367,3.3386,3.3347,3.3347,3.3367,3.2587,3.1446,3.1189,3.0074,2.8992,2.841,2.8232,2.7981,2.8064,2.7272,2.703,2.7193,2.7065,2.6581,2.652,2.6611,2.6423,2.5583,2.4676,2.3825,2.3196,2.2918,2.2988,2.3074,2.295,2.2623,2.2097,2.1678,2.1589,2.1407,2.1234,2.111,2.1101,2.1092,2.1087,2.1109,2.1109,2.1096,2.1056,2.1029,2.0949,2.0851,2.0931,2.0735,2.0414,2.0174,2.0054,2.0027,1.997,1.9813,1.9586,1.9412,1.9319,1.9495,1.9468,1.9294,1.9308,1.9321,1.9415,1.9428,1.9468,1.9481,1.9481,1.9495,1.9292,1.909,1.9116,1.9252,1.9239,1.9254,1.9172,1.9145,1.9185,1.912,1.8879,1.8786,3.3386,3.3386,3.3418,3.3418,3.3418,3.3386,3.3386,3.3481,3.3449,3.3449,3.3449,3.3386,3.3386,3.3386,3.3347,3.3211,3.291,3.323,3.3203,3.3144,3.3203,3.3347,3.3386,3.3386,3.3386,3.3386,3.3386,3.3386,3.3386,3.3386,3.3386,3.3386,3.3386,3.3386,3.3386,3.3386,3.3386,3.3386,3.3386,3.2797,3.1886,3.129,3.0304,2.8573,2.8305,2.8184,2.6955,2.8383,2.8954,2.8597,2.8642,2.8655,2.8209,2.7928,2.782,2.7729,2.6944,2.6134,2.5357,2.3871,2.2982,2.302,2.3199,2.3293,2.3091,2.2748,2.2307,2.1844,2.1664,2.142,2.1231,2.1094,2.1155,2.1092,2.1109,2.1109,2.1109,2.1096,2.1082,2.1096,2.1109,2.1109,2.1096,2.0762,2.0628,2.0508,2.0201,2.0147,1.996,1.9733,1.9492,1.9426,1.9639,1.9546,1.913,1.9212,1.9519,1.9573,1.9559,1.9666,1.9746,1.9733,1.9733,1.9653,1.9517,1.9546,1.9492,1.9426,1.9372,1.9359,1.9388,1.9415,1.9415,1.9254,1.9201,3.3513,3.3702,3.3702,3.3702,3.3702,3.3702,3.3827,3.3985,3.4016,3.389,3.3702,3.3513,3.3386,3.3386,3.3386,3.3308,3.3203,3.3289,3.3281,3.325,3.3328,3.3386,3.3386,3.3386,3.3386,3.3386,3.3386,3.3386,3.3386,3.3386,3.3386,3.3386,3.3386,3.3386,3.3386,3.3386,3.3386,3.3386,3.3386,3.2987,3.2861,3.2575,3.2078,3.1304,3.0924,3.0647,2.9803,2.9766,2.956,2.9364,2.9512,2.9684,2.9846,2.9536,2.9675,2.9628,2.8732,2.7924,2.7228,2.5444,2.4054,2.424,2.4332,2.427,2.4101,2.3917,2.3224,2.2628,2.2018,2.1746,2.1472,2.1374,2.1362,2.1177,2.1109,2.1109,2.1069,2.1042,2.0989,2.0935,2.1029,2.1109,2.1109,2.1069,2.1002,2.0922,2.0588,2.0311,2.0134,2.0027,1.984,1.969,1.9907,1.992,1.9543,1.9666,1.9826,1.9773,1.9703,1.9893,2.0027,2.0024,2.001,1.9957,1.9933,1.9853,1.9746,1.9573,1.9546,1.9626,1.9599,1.9559,1.9575,1.9575,1.9575,3.3702,3.3922,3.4016,3.4047,3.4079,3.4465,3.4528,3.4485,3.4839,3.4496,3.389,3.3576,3.3386,3.3386,3.3386,3.3386,3.3347,3.3386,3.3386,3.3367,3.3367,3.3386,3.3386,3.3386,3.3386,3.3386,3.3386,3.3386,3.3386,3.3386,3.3386,3.3386,3.3386,3.3386,3.3386,3.3386,3.3386,3.3386,3.3386,3.3386,3.3355,3.3323,3.2861,3.2651,3.2529,3.172,3.0874,3.0586,3.0541,3.0223,3.0239,3.0716,3.102,3.1328,3.1824,3.1496,3.0814,2.9755,2.8829,2.7285,2.5484,2.5635,2.5654,2.5654,2.5542,2.5137,2.4132,2.3396,2.2725,2.211,2.1773,2.1628,2.1509,2.1344,2.1127,2.1096,2.0962,2.0895,2.0815,2.0762,2.0784,2.0757,2.0744,2.0717,2.0909,2.0922,2.0909,2.0641,2.0494,2.0414,2.0361,2.0224,2.0224,2.017,2.0094,2.008,1.9997,1.9867,1.9907,2.016,2.0294,2.0304,2.0317,2.0321,2.0254,2.0147,2.0147,2.016,2.0054,1.9947,1.992,1.9893,1.9853,1.9867,1.984,3.3922,3.3953,3.4298,3.4454,3.4683,3.5735,3.5602,3.487,3.5479,3.517,3.3922,3.3544,3.3386,3.3386,3.3386,3.3386,3.3386,3.3386,3.3386,3.3386,3.3386,3.3386,3.3386,3.3386,3.3386,3.3386,3.3386,3.3386,3.3386,3.3386,3.3386,3.3386,3.3386,3.3386,3.3386,3.3386,3.3386,3.3386,3.3386,3.3386,3.3386,3.3386,3.2829,3.2505,3.2866,3.2181,3.124,3.1753,3.1722,3.1213,3.1569,3.1954,3.208,3.186,3.2024,3.2166,3.1556,3.0686,2.9658,2.7968,2.7384,2.7172,2.7227,2.7111,2.6787,2.6034,2.5053,2.4409,2.3337,2.2559,2.2129,2.1849,2.1735,2.1581,2.1366,2.1195,2.1106,2.1007,2.0967,2.0753,2.0424,2.025,2.025,2.0317,2.0597,2.0784,2.1029,2.0975,2.0762,2.0748,2.0708,2.0637,2.0557,2.0521,2.0428,2.029,2.0197,2.0024,2.012,2.0441,2.0601,2.0641,2.0655,2.0641,2.0641,2.0601,2.0722,2.0842,2.0628,2.0414,2.029,2.0281,2.0197,2.0174,2.0134,3.436,3.4641,3.5592,3.6124,3.6338,3.6499,3.6469,3.6185,3.5469,3.4621,3.3953,3.3544,3.3386,3.3386,3.3386,3.3386,3.3386,3.3386,3.3386,3.3386,3.3386,3.3386,3.3386,3.3386,3.3386,3.3386,3.3386,3.3386,3.3386,3.3386,3.3386,3.3386,3.3386,3.3386,3.3386,3.3386,3.3386,3.3386,3.3386,3.3386,3.3386,3.3406,3.3165,3.2638,3.3165,3.2765,3.179,3.2838,3.2705,3.234,3.2817,3.2879,3.2665,3.2289,3.1932,3.22,3.1831,3.0944,3.0986,3.0592,3.0038,2.9441,2.8894,2.8846,2.8903,2.7607,2.6532,2.5245,2.39,2.3034,2.2462,2.2383,2.2233,2.1982,2.1803,2.1632,2.1501,2.1424,2.1307,2.0886,2.0535,2.0374,2.0277,2.0224,2.041,2.0588,2.0775,2.0855,2.0708,2.0895,2.0962,2.0931,2.0891,2.0855,2.0775,2.0624,2.061,2.0557,2.0641,2.0855,2.0949,2.0909,2.0922,2.0882,2.0989,2.1082,2.1042,2.1002,2.0989,2.0882,2.0722,2.0504,2.0357,2.0344,2.0414,3.4839,3.5654,3.6581,3.7648,3.8484,3.8395,3.8186,3.7407,3.5345,3.411,3.3859,3.3544,3.3386,3.3386,3.3386,3.3386,3.3386,3.3386,3.3386,3.3386,3.3386,3.3386,3.3386,3.3386,3.3386,3.3386,3.3386,3.3386,3.3386,3.3386,3.3386,3.3386,3.3386,3.3386,3.3386,3.3386,3.3484,3.3555,3.3594,3.3484,3.3523,3.3523,3.3386,3.3292,3.3386,3.326,3.3355,3.3386,3.3386,3.3386,3.3386,3.3386,3.2954,3.2624,3.2226,3.2509,3.2272,3.1615,3.2088,3.2057,3.1466,3.1357,3.0825,3.0644,3.0396,2.884,2.7636,2.6286,2.4575,2.359,2.2984,2.2921,2.2766,2.2514,2.2163,2.1992,2.1773,2.1652,2.1348,2.0968,2.0675,2.0493,2.0374,2.025,2.0264,2.037,2.0508,2.0588,2.0695,2.0882,2.1069,2.1082,2.1051,2.0989,2.0975,2.0989,2.0971,2.1082,2.1109,2.1109,2.1096,2.1015,2.1069,2.1109,2.1096,2.1096,2.1096,2.1082,2.1015,2.1029,2.1015,2.0784,2.0544,2.0557,2.0668,3.5407,3.6833,3.7257,3.8869,4.0789,4.0702,3.9949,3.8395,3.5355,3.4016,3.3859,3.3513,3.3386,3.3386,3.3386,3.3386,3.3386,3.3386,3.3386,3.3386,3.3386,3.3386,3.3386,3.3386,3.3386,3.3386,3.3386,3.3386,3.3386,3.3386,3.3386,3.3386,3.3386,3.3386,3.3386,3.3503,3.3691,3.3809,3.3613,3.3652,3.3789,3.3613,3.3425,3.3386,3.3386,3.3386,3.3386,3.3386,3.3386,3.3386,3.3386,3.3386,3.3355,3.3355,3.3323,3.3143,3.2688,3.2778,3.2742,3.255,3.2676,3.2645,3.2401,3.2283,3.1278,2.9525,2.8086,2.6946,2.5485,2.4425,2.3574,2.3452,2.3298,2.2898,2.2471,2.2219,2.1987,2.1726,2.138,2.1058,2.0763,2.0615,2.0567,2.0435,2.0317,2.0264,2.0397,2.0641,2.0735,2.0802,2.0975,2.1082,2.1082,2.1069,2.1082,2.1069,2.1082,2.1069,2.1096,2.1109,2.1109,2.1109,2.1109,2.1109,2.1109,2.1082,2.0989,2.0975,2.1002,2.1002,2.0864,2.0895,2.0615,2.0811,2.0962,3.7045,3.8595,3.9598,4.0442,4.0985,4.0616,3.9604,3.8104,3.6124,3.4746,3.3513,3.3449,3.3386,3.3386,3.3386,3.3386,3.3386,3.3386,3.3386,3.3386,3.3386,3.3386,3.3386,3.3386,3.3386,3.3386,3.3386,3.3386,3.3386,3.3386,3.3386,3.3386,3.3386,3.3386,3.3484,3.373,3.3926,3.3965,3.3691,3.3809,3.3867,3.3672,3.3464,3.3386,3.3386,3.3386,3.3386,3.3386,3.3386,3.3386,3.3386,3.3386,3.3386,3.2524,3.1899,3.2027,3.2505,3.3211,3.3223,3.3125,3.3164,3.3289,3.3043,3.2415,3.1362,2.9845,2.8171,2.721,2.6151,2.4965,2.4481,2.4329,2.3989,2.3543,2.3204,2.3083,2.2812,2.2429,2.2077,2.1667,2.1385,2.0941,2.0865,2.065,2.0517,2.0344,2.0357,2.0624,2.0762,2.0828,2.1069,2.1203,2.1056,2.1042,2.1015,2.0989,2.1015,2.1042,2.1069,2.1109,2.1109,2.1109,2.1109,2.1109,2.1109,2.0975,2.0802,2.0842,2.0962,2.0597,2.0464,2.0615,2.0748,2.0895,2.1015,3.8043,3.9592,4.0154,4.0765,4.1209,4.0861,3.9954,3.858,3.6612,3.4839,3.3481,3.3386,3.3386,3.3386,3.3386,3.3386,3.3386,3.3386,3.3386,3.3386,3.3386,3.3386,3.3386,3.3386,3.3386,3.3386,3.3386,3.3386,3.3386,3.3386,3.3386,3.3386,3.3386,3.3386,3.3535,3.3809,3.4141,3.4121,3.4023,3.4004,3.3926,3.3769,3.3464,3.3386,3.3386,3.3386,3.3386,3.3386,3.3386,3.3386,3.3386,3.3386,3.3355,3.2587,3.2205,3.246,3.2841,3.3316,3.3328,3.3347,3.3367,3.324,3.2956,3.2136,3.1199,2.9895,2.8755,2.7782,2.6549,2.5513,2.5398,2.5231,2.473,2.4234,2.4186,2.4153,2.3777,2.3384,2.2932,2.2482,2.2027,2.152,2.1216,2.0998,2.0828,2.0775,2.0802,2.0949,2.0949,2.0842,2.1234,2.1523,2.1274,2.1015,2.1047,2.11,2.1069,2.1096,2.1082,2.1109,2.1109,2.1109,2.1109,2.1109,2.1109,2.1015,2.0993,2.0909,2.0909,2.0628,2.0517,2.0748,2.0802,2.0655,2.0775,3.866,4.0367,3.9785,4.0449,4.1549,4.1484,4.0736,3.9428,3.6985,3.4943,3.3839,3.3449,3.3386,3.3386,3.3386,3.3386,3.3386,3.3386,3.3449,3.3418,3.3418,3.3418,3.3481,3.3418,3.3386,3.3386,3.3386,3.3386,3.3386,3.3386,3.3386,3.3386,3.3386,3.3425,3.3633,3.4036,3.4394,3.4668,3.4512,3.4394,3.4336,3.3984,3.3425,3.3386,3.3386,3.3386,3.3386,3.3386,3.3386,3.3386,3.3328,3.3308,3.3238,3.3272,3.3209,3.3228,3.3323,3.3355,3.3386,3.3386,3.3386,3.2987,3.225,3.1766,3.102,2.9942,2.888,2.8581,2.7556,2.6614,2.6311,2.6953,2.6886,2.566,2.4868,2.4722,2.443,2.4001,2.3604,2.3178,2.2762,2.232,2.2207,2.2029,2.181,2.1538,2.1378,2.1504,2.14,2.1244,2.1381,2.1836,2.1515,2.1274,2.1408,2.1408,2.1216,2.1189,2.1189,2.1109,2.1109,2.1109,2.1109,2.1136,2.1176,2.1269,2.1288,2.1208,2.1136,2.1096,2.1042,2.1082,2.0962,2.0762,2.0828,3.9831,4.1312,4.0769,4.0895,4.1305,4.1118,4.0364,3.9281,3.8684,3.6946,3.5036,3.3933,3.3449,3.3576,3.3449,3.3418,3.3386,3.3513,3.3576,3.3607,3.3544,3.3576,3.3639,3.3513,3.3418,3.3386,3.3386,3.3386,3.3386,3.3386,3.3418,3.3418,3.3437,3.3579,3.3872,3.4283,3.4668,3.5,3.5039,3.4766,3.457,3.4238,3.3809,3.3555,3.3386,3.3406,3.3406,3.3406,3.3386,3.3367,3.3086,3.2969,3.2898,3.323,3.3367,3.3386,3.3406,3.3386,3.3386,3.3386,3.3386,3.3238,3.2656,3.2036,3.1162,2.993,2.9261,2.9222,2.8793,2.7863,2.7618,2.8443,2.8796,2.7162,2.556,2.533,2.503,2.4559,2.4188,2.3826,2.3446,2.3284,2.3168,2.2991,2.2832,2.2576,2.2307,2.225,2.2233,2.2073,2.1756,2.201,2.1729,2.1582,2.1729,2.1716,2.1542,2.1475,2.1502,2.1336,2.1176,2.1243,2.1309,2.1256,2.1269,2.1462,2.1555,2.1448,2.1422,2.1489,2.1283,2.1203,2.1283,2.1149,2.1229,4.0276,4.1216,4.0587,4.0402,4.0529,4.0581,4.0292,3.9755,3.933,3.8089,3.6215,3.4943,3.4278,3.409,3.3839,3.3481,3.3513,3.3765,3.3827,3.3827,3.3733,3.3765,3.3702,3.3576,3.3449,3.3386,3.3386,3.3386,3.3449,3.3576,3.3639,3.3607,3.3658,3.3745,3.4098,3.4453,3.4824,3.5059,3.5273,3.5117,3.4707,3.431,3.3848,3.3523,3.3386,3.3464,3.3594,3.3574,3.3386,3.3367,3.3191,3.3144,3.3242,3.3535,3.3691,3.3672,3.3574,3.3386,3.3406,3.3386,3.3386,3.3218,3.2498,3.1615,3.2321,3.1226,3.0434,3.0262,2.9405,2.8519,2.924,3.0045,2.9903,2.8812,2.7336,2.6504,2.5639,2.4749,2.4496,2.4298,2.3987,2.3856,2.3719,2.3595,2.3373,2.3106,2.2907,2.2775,2.2785,2.2666,2.2398,2.2238,2.1997,2.1957,2.2071,2.1977,2.181,2.1783,2.1783,2.1703,2.1577,2.155,2.1537,2.1496,2.155,2.175,2.1777,2.1676,2.1777,2.1911,2.159,2.1243,2.1363,2.1523,2.1596,4.0237,4.0598,3.9911,3.9603,3.9692,4.0127,4.0359,4.0277,3.9732,3.8921,3.776,3.6307,3.5654,3.487,3.4309,3.3827,3.3576,3.3765,3.389,3.3922,3.3796,3.3827,3.3733,3.3576,3.3449,3.3386,3.3386,3.3449,3.3544,3.3702,3.3859,3.3922,3.3942,3.393,3.4112,3.4393,3.4785,3.5019,3.5156,3.5098,3.4726,3.431,3.3848,3.3574,3.3425,3.3652,3.3789,3.3769,3.3503,3.3601,3.362,3.3516,3.3574,3.3828,3.4062,3.4082,3.3789,3.3652,3.3523,3.3445,3.3367,3.3017,3.1971,3.1939,3.2689,3.2448,3.1615,3.1079,3.0257,2.993,3.0645,3.1225,3.0964,2.9917,2.8514,2.718,2.5986,2.501,2.4845,2.4712,2.46,2.4415,2.4256,2.4144,2.3972,2.3669,2.3412,2.3258,2.3071,2.2856,2.2619,2.2532,2.2412,2.2392,2.2458,2.2338,2.2158,2.2044,2.2044,2.2017,2.1964,2.183,2.175,2.181,2.1903,2.1924,2.1911,2.1823,2.2004,2.2158,2.1911,2.155,2.1643,2.181,2.1863,3.9793,3.9894,3.9509,3.9445,3.9621,3.9959,4.0193,4.0451,4.0679,4.0629,3.9586,3.773,3.5971,3.3808,3.367,3.3449,3.3481,3.3702,3.3827,3.3859,3.3733,3.3765,3.3765,3.3639,3.3449,3.3418,3.3481,3.3576,3.3733,3.3859,3.4047,3.4235,3.3953,3.4069,3.4433,3.4661,3.4766,3.4961,3.5098,3.5098,3.4707,3.4277,3.3867,3.3594,3.3386,3.3691,3.3938,3.4016,3.416,3.4355,3.4375,3.4023,3.4004,3.418,3.4492,3.4453,3.416,3.3848,3.373,3.3535,3.3398,3.2996,3.23,3.2414,3.282,3.282,3.2364,3.2505,3.1726,3.0954,3.146,3.2353,3.2289,2.9951,2.8161,2.6916,2.5725,2.5383,2.5237,2.5193,2.5189,2.4998,2.481,2.4738,2.4704,2.4386,2.3967,2.3764,2.3547,2.3215,2.28,2.276,2.2719,2.2786,2.2766,2.2712,2.2586,2.2432,2.2325,2.2285,2.2191,2.2037,2.1984,2.1997,2.1943,2.193,2.1903,2.1917,2.1991,2.2124,2.2044,2.1943,2.201,2.1997,2.1997]},{"header":{"parameterUnit":"m.s-1","parameterCategory":1,"la1":31.0,"la2":29.5877,"lo1":-88.7671,"lo2":-86.6584,"dy":0.0162,"dx":0.0185,"nx":115,"ny":88,"refTime":"2023-09-22T00:00:00:Z","depth":0,"parameterNumber":3,"parameterNumberName":"V-component_of_WINDS"},"data":[0.0,0.0,0.0,0.0,0.0,0.0,0.0,0.0,0.0,0.0,0.0,0.0,0.0,0.0,0.0,0.0,0.0,0.0,0.0,0.0,0.0,0.0,0.0,0.0,0.0,0.0,0.0,0.0,0.0,0.0,0.0,0.0,0.0,0.0,0.0,0.0,0.0,0.0,0.0,0.0,0.0,0.0,0.0,0.0,0.0,0.0,0.0,0.0,0.0,0.0,0.0,0.0,0.0,0.0,0.0,0.0,0.0,0.0,0.0,0.0,0.0,0.0,0.0,0.0,0.0,0.0,0.0,0.0,0.0,0.0,0.0,0.0,0.0,0.0,0.0,0.0,0.0,0.0,0.0,0.0,0.0,0.0,0.0,0.0,0.0,0.0,0.0,0.0,0.0,0.0,0.0,0.0,0.0,0.0,0.0,0.0,0.0,0.0,0.0,0.0,0.0,0.0,0.0,0.0,0.0,0.0,0.0,0.0,0.0,0.0,0.0,0.0,0.0,0.0,0.0,0.0,0.0,0.0,0.0,0.0,0.0,0.0,0.0,0.0,0.0,0.0,0.0,0.0,0.0,0.0,0.0,0.0,0.0,0.0,0.0,0.0,0.0,0.0,0.0,0.0,0.0,0.0,0.0,0.0,0.0,0.0,0.0,0.0,0.0,0.0,0.0,0.0,0.0,0.0,0.0,0.0,0.0,0.0,0.0,0.0,0.0,0.0,0.0,0.0,0.0,0.0,0.0,0.0,0.0,0.0,0.0,0.0,0.0,0.0,0.0,0.0,0.0,0.0,0.0,0.0,0.0,0.0,0.0,0.0,0.0,0.0,0.0,0.0,0.0,0.0,0.0,0.0,0.0,0.0,0.0,0.0,0.0,0.0,0.0,0.0,0.0,0.0,0.0,0.0,0.0,0.0,0.0,0.0,0.0,0.0,0.0,0.0,0.0,0.0,0.0,0.0,0.0,0.0,0.0,0.0,0.0,0.0,0.0,0.0,0.0,0.0,0.0,0.0,0.0,0.0,0.0,0.0,0.0,0.0,0.0,0.0,0.0,0.0,0.0,0.0,0.0,0.0,0.0,0.0,0.0,0.0,0.0,0.0,0.0,0.0,0.0,0.0,0.0,0.0,0.0,0.0,0.0,0.0,0.0,0.0,0.0,0.0,0.0,0.0,0.0,0.0,0.0,0.0,0.0,0.0,0.0,0.0,0.0,0.0,0.0,0.0,0.0,0.0,0.0,0.0,0.0,0.0,0.0,0.0,0.0,0.0,0.0,0.0,0.0,0.0,0.0,0.0,0.0,0.0,0.0,0.0,0.0,0.0,0.0,0.0,0.0,0.0,0.0,0.0,0.0,0.0,0.0,0.0,0.0,0.0,0.0,0.0,0.0,0.0,0.0,0.0,0.0,0.0,0.0,0.0,0.0,0.0,0.0,0.0,0.0,0.0,0.0,0.0,0.0,0.0,0.0,0.0,0.0,0.0,0.0,0.0,0.0,0.0,0.0,0.0,0.0,0.0,0.0,0.0,0.0,0.0,0.0,0.0,0.0,0.0,0.0,0.0,0.0,0.0,0.0,0.0,0.0,0.0,0.0,0.0,0.0,0.0,0.0,0.0,0.0,0.0,0.0,0.0,0.0,0.0,0.0,0.0,0.0,0.0,0.0,0.0,0.0,0.0,0.0,0.0,0.0,0.0,0.0,0.0,0.0,0.0,0.0,0.0,0.0,0.0,0.0,0.0,0.0,0.0,0.0,0.0,0.0,0.0,0.0,0.0,0.0,0.0,0.0,0.0,0.0,0.0,0.0,0.0,0.0,0.0,0.0,0.0,0.0,0.0,0.0,0.0,0.0,0.0,0.0,0.0,0.0,0.0,0.0,0.0,0.0,0.0,0.0,0.0,0.0,0.0,0.0,0.0,0.0,0.0,0.0,0.0,0.0,0.0,0.0,0.0,0.0,0.0,0.0,0.0,0.0,0.0,0.0,0.0,0.0,0.0,0.0,0.0,0.0,0.0,0.0,0.0,0.0,0.0,0.0,0.0,0.0,0.0,0.0,0.0,0.0,0.0,0.0,0.0,0.0,0.0,0.0,0.0,0.0,0.0,0.0,0.0,0.0,0.0,0.0,0.0,0.0,0.0,0.0,0.0,0.0,0.0,0.0,0.0,0.0,0.0,0.0,0.0,0.0,0.0,0.0,0.0,0.0,0.0,0.0,0.0,0.0,0.0,0.0,0.0,0.0,0.0,0.0,0.0,0.0,0.0,0.0,0.0,0.0,0.0,0.0,0.0,0.0,0.0,0.0,0.0,0.0,0.0,0.0,0.0,0.0,0.0,0.0,0.0,0.0,0.0,0.0,0.0,0.0,0.0,0.0,0.0,0.0,0.0,0.0,0.0,0.0,0.0,0.0,0.0,0.0,0.0,0.0,0.0,0.0,0.0,0.0,0.0,0.0,0.0,0.0,0.0,0.0,0.0,0.0,0.0,0.0,0.0,0.0,0.0,0.0,0.0,0.0,0.0,0.0,0.0,0.0,0.0,0.0,0.0,0.0,0.0,0.0,0.0,0.0,0.0,0.0,0.0,0.0,0.0,0.0,0.0,0.0,0.0,0.0,0.0,0.0,0.0,0.0,0.0,0.0,0.0,0.0,0.0,0.0,0.0,0.0,0.0,0.0,0.0,0.0,0.0,0.0,0.0,0.0,0.0,0.0,0.0,0.0,0.0,0.0,0.0,0.0,0.0,0.0,0.0,0.0,0.0,0.0,0.0,0.0,0.0,0.0,0.0,0.0,0.0,0.0,0.0,0.0,0.0,0.0,0.0,0.0,0.0,0.0,0.0,0.0,0.0,0.0,0.0,0.0,0.0,0.0,0.0,0.0,0.0,0.0,0.0,0.0,0.0,0.0,0.0,0.0,0.0,0.0,0.0,0.0,0.0,0.0,0.0,0.0,0.0,0.0,0.0,0.0,0.0,0.0,0.0,0.0,0.0,0.0,0.0,0.0,0.0,0.0,0.0,0.0,0.0,0.0,0.0,0.0,0.0,0.0,0.0,0.0,0.0,0.0,0.0,0.0,0.0,0.0,0.0,0.0,0.0,0.0,0.0,0.0,0.0,0.0,0.0,0.0,0.0,0.0,0.0,0.0,0.0,0.0,0.0,0.0,0.0,0.0,0.0,0.0,0.0,0.0,0.0,0.0,0.0,0.0,0.0,0.0,0.0,0.0,0.0,0.0,0.0,0.0,0.0,0.0,0.0,0.0,0.0,0.0,0.0,0.0,0.0,0.0,0.0,0.0,0.0,0.0,0.0,0.0,0.0,0.0,0.0,0.0,0.0,0.0,0.0,0.0,0.0,0.0,0.0,0.0,0.0,0.0,0.0,0.0,0.0,0.0,0.0,0.0,0.0,0.0,0.0,0.0,0.0,0.0,0.0,0.0,0.0,0.0,0.0,0.0,0.0,0.0,0.0,0.0,0.0,0.0,0.0,0.0,0.0,0.0,0.0,0.0,0.0,0.0,0.0,0.0,0.0,0.0,0.0,0.0,0.0,0.0,0.0,0.0,0.0,0.0,0.0,0.0,0.0,0.0,0.0,0.0,0.0,0.0,0.0,0.0,0.0,0.0,0.0,0.0,0.0,0.0,0.0,0.0,0.0,0.0,0.0,0.0,0.0,0.0,0.0,0.0,0.0,0.0,0.0,0.0,0.0,0.0,0.0,0.0,0.0,0.0,0.0,0.0,0.0,0.0,0.0,0.0,0.0,0.0,0.0,0.0,0.0,0.0,0.0,0.0,0.0,0.0,0.0,0.0,0.0,0.0,0.0,0.0,0.0,0.0,0.0,0.0,0.0,0.0,0.0,0.0,0.0,0.0,0.0,0.0,0.0,0.0,0.0,0.0,0.0,0.0,0.0,0.0,0.0,0.0,0.0,0.0,0.0,0.0,0.0,0.0,0.0,0.0,0.0,0.0,0.0,0.0,0.0,0.0,0.0,0.0,0.0,0.0,0.0,0.0,0.0,0.0,0.0,0.0,0.0,0.0,0.0,0.0,0.0,0.0,0.0,0.0,0.0,0.0,0.0,0.0,0.0,0.0,0.0,0.0,0.0,0.0,0.0,0.0,0.0,0.0,0.0,0.0,0.0,0.0,0.0,0.0,0.0,0.0,0.0,0.0,0.0,0.0,0.0,0.0,0.0,0.0,0.0,0.0,0.0,0.0,0.0,0.0,0.0,0.0,0.0,0.0,0.0,0.0,0.0,0.0,0.0,0.0,0.0,0.0,0.0,2.8068,0.0,0.0,0.0,0.0,0.0,0.0,0.0,0.0,0.0,0.0,0.0,0.0,0.0,0.0,0.0,0.0,0.0,0.0,0.0,0.0,0.0,0.0,0.0,0.0,0.0,0.0,0.0,0.0,0.0,0.0,0.0,0.0,0.0,0.0,0.0,0.0,0.0,0.0,0.0,0.0,0.0,0.0,0.0,0.0,0.0,0.0,0.0,0.0,0.0,0.0,0.0,0.0,0.0,0.0,0.0,0.0,0.0,0.0,0.0,0.0,0.0,0.0,0.0,0.0,0.0,0.0,0.0,0.0,0.0,0.0,0.0,0.0,0.0,0.0,0.0,0.0,0.0,0.0,0.0,0.0,0.0,0.0,0.0,0.0,0.0,0.0,0.0,0.0,0.0,0.0,0.0,0.0,0.0,0.0,0.0,0.0,0.0,0.0,0.0,0.0,0.0,0.0,0.0,0.0,0.0,0.0,0.0,0.0,0.0,0.0,3.1716,3.0078,3.2006,3.132,2.7609,0.0,0.0,0.0,0.0,0.0,0.0,0.0,0.0,0.0,0.0,0.0,0.0,0.0,0.0,0.0,0.0,0.0,0.0,0.0,0.0,0.0,0.0,0.0,0.0,0.0,0.0,0.0,0.0,0.0,0.0,0.0,0.0,0.0,0.0,0.0,0.0,0.0,0.0,0.0,0.0,0.0,0.0,0.0,0.0,0.0,0.0,0.0,0.0,0.0,0.0,0.0,0.0,0.0,0.0,0.0,0.0,0.0,0.0,0.0,0.0,0.0,0.0,0.0,0.0,0.0,0.0,0.0,0.0,0.0,0.0,0.0,0.0,0.0,0.0,0.0,0.0,0.0,0.0,0.0,0.0,0.0,0.0,0.0,0.0,0.0,0.0,0.0,0.0,0.0,0.0,0.0,0.0,0.0,0.0,0.0,0.0,0.0,0.0,0.0,0.0,0.0,0.0,0.0,0.0,0.0,0.0,0.0,0.0,0.0,0.0,0.0,0.0,3.2204,3.1379,2.7773,0.0,0.0,0.0,0.0,0.0,0.0,0.0,0.0,0.0,0.0,0.0,0.0,0.0,0.0,0.0,0.0,0.0,0.0,0.0,0.0,0.0,0.0,0.0,0.0,0.0,0.0,0.0,0.0,0.0,0.0,0.0,0.0,0.0,0.0,0.0,0.0,0.0,0.0,0.0,0.0,0.0,0.0,0.0,0.0,0.0,0.0,0.0,0.0,0.0,0.0,0.0,0.0,0.0,0.0,0.0,0.0,0.0,0.0,0.0,0.0,0.0,0.0,0.0,0.0,0.0,0.0,0.0,0.0,0.0,0.0,0.0,0.0,0.0,0.0,0.0,0.0,0.0,0.0,0.0,0.0,0.0,0.0,0.0,0.0,0.0,0.0,0.0,0.0,0.0,0.0,0.0,0.0,0.0,0.0,0.0,0.0,0.0,0.0,0.0,0.0,0.0,0.0,0.0,0.0,0.0,0.0,0.0,0.0,0.0,0.0,3.1281,3.1828,3.2619,0.0,2.9761,0.0,0.0,0.0,0.0,0.0,0.0,0.0,0.0,0.0,0.0,0.0,0.0,0.0,0.0,0.0,0.0,0.0,0.0,0.0,0.0,0.0,0.0,0.0,0.0,0.0,0.0,0.0,0.0,0.0,0.0,0.0,0.0,0.0,0.0,0.0,0.0,0.0,0.0,0.0,0.0,0.0,0.0,0.0,0.0,0.0,0.0,0.0,0.0,0.0,0.0,0.0,0.0,0.0,0.0,0.0,0.0,0.0,0.0,0.0,0.0,0.0,0.0,0.0,0.0,0.0,0.0,0.0,0.0,0.0,0.0,0.0,0.0,0.0,0.0,0.0,0.0,0.0,0.0,0.0,0.0,0.0,0.0,0.0,0.0,0.0,0.0,0.0,0.0,0.0,0.0,0.0,0.0,0.0,0.0,0.0,0.0,0.0,0.0,0.0,0.0,0.0,0.0,0.0,0.0,0.0,0.0,0.0,0.0,0.0,0.0,3.0451,3.1738,3.1247,3.0153,0.0,0.0,0.0,0.0,0.0,0.0,0.0,0.0,0.0,0.0,0.0,0.0,0.0,0.0,0.0,0.0,0.0,0.0,0.0,0.0,0.0,0.0,0.0,0.0,0.0,0.0,0.0,0.0,0.0,0.0,0.0,0.0,0.0,0.0,0.0,0.0,0.0,0.0,0.0,0.0,0.0,0.0,0.0,0.0,0.0,0.0,0.0,0.0,0.0,0.0,0.0,0.0,0.0,0.0,0.0,0.0,0.0,0.0,0.0,0.0,0.0,0.0,0.0,0.0,0.0,0.0,0.0,0.0,0.0,0.0,0.0,0.0,0.0,0.0,0.0,0.0,0.0,0.0,0.0,0.0,0.0,0.0,0.0,0.0,0.0,0.0,0.0,0.0,0.0,0.0,0.0,0.0,0.0,0.0,0.0,0.0,0.0,0.0,0.0,0.0,0.0,0.0,0.0,0.0,0.0,0.0,0.0,0.0,0.0,0.0,2.9852,3.0347,3.1645,3.038,2.9003,2.7742,0.0,0.0,0.0,0.0,0.0,0.0,0.0,0.0,0.0,0.0,0.0,0.0,0.0,0.0,0.0,0.0,0.0,0.0,0.0,0.0,0.0,0.0,0.0,0.0,0.0,0.0,0.0,0.0,0.0,0.0,0.0,0.0,0.0,0.0,0.0,0.0,0.0,0.0,0.0,0.0,0.0,0.0,0.0,0.0,0.0,0.0,0.0,0.0,0.0,0.0,0.0,0.0,0.0,0.0,0.0,0.0,0.0,0.0,0.0,0.0,0.0,0.0,0.0,0.0,0.0,0.0,0.0,0.0,0.0,0.0,0.0,0.0,0.0,0.0,0.0,0.0,0.0,0.0,0.0,0.0,0.0,0.0,0.0,0.0,0.0,0.0,0.0,0.0,0.0,0.0,0.0,0.0,0.0,0.0,0.0,0.0,0.0,0.0,0.0,0.0,0.0,0.0,0.0,0.0,0.0,0.0,0.0,0.0,3.2,3.1368,3.1388,3.2133,3.0707,2.9415,0.0,0.0,0.0,0.0,0.0,0.0,0.0,0.0,0.0,0.0,0.0,0.0,0.0,0.0,0.0,0.0,0.0,0.0,0.0,0.0,0.0,0.0,0.0,0.0,0.0,0.0,0.0,0.0,0.0,0.0,0.0,0.0,0.0,0.0,0.0,0.0,0.0,0.0,0.0,0.0,0.0,0.0,0.0,0.0,0.0,0.0,0.0,0.0,0.0,0.0,0.0,0.0,0.0,0.0,0.0,0.0,0.0,0.0,0.0,0.0,0.0,0.0,0.0,0.0,0.0,0.0,0.0,0.0,0.0,0.0,0.0,0.0,0.0,0.0,0.0,0.0,0.0,0.0,0.0,0.0,0.0,0.0,0.0,0.0,0.0,0.0,0.0,0.0,0.0,0.0,0.0,0.0,0.0,0.0,0.0,0.0,0.0,0.0,0.0,0.0,0.0,0.0,0.0,0.0,0.0,0.0,0.0,0.0,0.0,2.997,3.0622,3.0672,3.0061,2.9643,2.9027,0.0,0.0,0.0,0.0,0.0,0.0,0.0,0.0,0.0,0.0,0.0,0.0,0.0,0.0,0.0,0.0,0.0,0.0,0.0,0.0,0.0,0.0,0.0,0.0,0.0,0.0,0.0,0.0,0.0,0.0,0.0,0.0,0.0,0.0,0.0,0.0,0.0,0.0,0.0,0.0,0.0,0.0,0.0,0.0,0.0,0.0,0.0,0.0,0.0,0.0,0.0,0.0,0.0,0.0,0.0,0.0,0.0,0.0,0.0,0.0,0.0,0.0,0.0,0.0,0.0,0.0,0.0,0.0,0.0,0.0,0.0,0.0,0.0,0.0,0.0,0.0,0.0,0.0,0.0,0.0,0.0,0.0,0.0,0.0,0.0,0.0,0.0,0.0,0.0,0.0,0.0,0.0,0.0,0.0,0.0,0.0,0.0,0.0,0.0,0.0,0.0,0.0,0.0,0.0,0.0,0.0,0.0,0.0,0.0,2.8962,0.0,3.0154,2.8751,2.8794,2.8264,0.0,0.0,0.0,0.0,0.0,0.0,0.0,0.0,0.0,0.0,0.0,0.0,0.0,0.0,0.0,0.0,0.0,0.0,0.0,0.0,0.0,0.0,0.0,0.0,0.0,0.0,0.0,0.0,0.0,0.0,0.0,0.0,0.0,0.0,0.0,0.0,0.0,0.0,0.0,0.0,0.0,0.0,0.0,0.0,0.0,0.0,0.0,0.0,0.0,0.0,0.0,0.0,0.0,0.0,0.0,0.0,0.0,0.0,0.0,0.0,0.0,0.0,0.0,0.0,0.0,0.0,0.0,0.0,0.0,0.0,0.0,0.0,0.0,0.0,0.0,0.0,0.0,0.0,0.0,0.0,0.0,0.0,0.0,0.0,0.0,0.0,0.0,0.0,0.0,0.0,0.0,0.0,0.0,0.0,0.0,0.0,0.0,0.0,0.0,0.0,0.0,0.0,0.0,0.0,0.0,0.0,0.0,0.0,2.8272,2.9372,3.0273,2.9993,2.8528,2.8243,2.7168,0.0,0.0,0.0,0.0,0.0,0.0,0.0,0.0,0.0,0.0,0.0,0.0,0.0,0.0,0.0,0.0,0.0,0.0,0.0,0.0,0.0,0.0,0.0,0.0,0.0,0.0,0.0,0.0,0.0,0.0,0.0,0.0,0.0,0.0,0.0,0.0,0.0,0.0,0.0,0.0,0.0,0.0,0.0,0.0,0.0,0.0,0.0,0.0,0.0,0.0,0.0,0.0,0.0,0.0,0.0,0.0,0.0,0.0,0.0,0.0,0.0,0.0,0.0,0.0,0.0,0.0,0.0,0.0,0.0,0.0,0.0,0.0,0.0,0.0,0.0,0.0,0.0,0.0,0.0,0.0,0.0,0.0,0.0,0.0,0.0,0.0,0.0,0.0,0.0,0.0,0.0,0.0,0.0,0.0,0.0,0.0,0.0,0.0,0.0,0.0,0.0,0.0,0.0,0.0,0.0,0.0,0.0,0.0,0.0,2.9265,2.9505,2.9703,2.9788,2.8235,2.7559,0.0,0.0,0.0,0.0,0.0,0.0,0.0,0.0,0.0,0.0,0.0,0.0,0.0,0.0,0.0,0.0,0.0,0.0,0.0,0.0,0.0,0.0,0.0,0.0,0.0,0.0,0.0,0.0,0.0,0.0,0.0,0.0,0.0,0.0,0.0,0.0,0.0,0.0,0.0,0.0,0.0,0.0,0.0,0.0,0.0,0.0,0.0,0.0,0.0,0.0,0.0,0.0,0.0,0.0,0.0,0.0,0.0,0.0,0.0,0.0,0.0,0.0,0.0,0.0,0.0,0.0,0.0,0.0,0.0,0.0,0.0,0.0,0.0,0.0,0.0,0.0,0.0,0.0,0.0,0.0,0.0,0.0,0.0,0.0,0.0,0.0,0.0,0.0,0.0,0.0,0.0,0.0,0.0,0.0,0.0,0.0,0.0,0.0,0.0,0.0,0.0,0.0,0.0,0.0,0.0,0.0,0.0,0.0,0.0,2.9319,2.9295,2.9416,2.9592,2.794,2.7434,2.8201,0.0,0.0,0.0,0.0,0.0,0.0,0.0,0.0,0.0,0.0,0.0,0.0,0.0,0.0,0.0,0.0,0.0,0.0,0.0,0.0,0.0,0.0,0.0,0.0,0.0,0.0,0.0,0.0,0.0,0.0,0.0,0.0,0.0,0.0,0.0,0.0,0.0,0.0,0.0,0.0,0.0,0.0,0.0,0.0,0.0,0.0,0.0,0.0,0.0,0.0,0.0,0.0,0.0,0.0,0.0,0.0,0.0,0.0,0.0,0.0,0.0,0.0,0.0,0.0,0.0,0.0,0.0,0.0,0.0,0.0,0.0,0.0,0.0,0.0,0.0,0.0,0.0,0.0,0.0,0.0,0.0,0.0,0.0,0.0,0.0,0.0,0.0,0.0,0.0,0.0,0.0,0.0,0.0,0.0,0.0,0.0,0.0,0.0,0.0,0.0,0.0,0.0,0.0,0.0,0.0,0.0,0.0,0.0,2.9532,2.9542,2.9122,2.8258,2.7465,2.6892,0.0,0.0,0.0,0.0,0.0,0.0,0.0,0.0,0.0,0.0,0.0,0.0,0.0,0.0,0.0,0.0,0.0,0.0,0.0,0.0,0.0,0.0,0.0,0.0,0.0,0.0,0.0,0.0,0.0,0.0,0.0,0.0,0.0,0.0,0.0,0.0,0.0,0.0,0.0,0.0,0.0,0.0,0.0,0.0,0.0,0.0,0.0,0.0,0.0,0.0,0.0,0.0,0.0,0.0,0.0,0.0,0.0,0.0,0.0,0.0,0.0,0.0,0.0,0.0,0.0,0.0,0.0,0.0,0.0,0.0,0.0,0.0,0.0,0.0,0.0,0.0,0.0,0.0,0.0,0.0,0.0,0.0,0.0,0.0,0.0,0.0,0.0,0.0,0.0,0.0,0.0,0.0,0.0,0.0,0.0,0.0,0.0,0.0,0.0,0.0,0.0,0.0,0.0,0.0,0.0,0.0,0.0,0.0,0.0,3.059,2.8863,2.8312,2.9198,2.7476,2.6923,0.0,0.0,0.0,0.0,0.0,0.0,0.0,0.0,0.0,0.0,0.0,0.0,0.0,0.0,0.0,0.0,0.0,0.0,0.0,0.0,0.0,0.0,0.0,0.0,0.0,0.0,0.0,0.0,0.0,0.0,0.0,0.0,0.0,0.0,0.0,0.0,0.0,0.0,0.0,0.0,0.0,0.0,0.0,0.0,0.0,0.0,0.0,0.0,0.0,0.0,0.0,0.0,0.0,0.0,0.0,0.0,0.0,0.0,0.0,0.0,0.0,0.0,0.0,0.0,0.0,0.0,0.0,0.0,0.0,0.0,0.0,0.0,0.0,0.0,0.0,0.0,0.0,0.0,0.0,0.0,0.0,0.0,0.0,0.0,0.0,0.0,0.0,0.0,0.0,0.0,0.0,0.0,0.0,0.0,0.0,0.0,0.0,0.0,0.0,0.0,0.0,0.0,0.0,0.0,0.0,0.0,0.0,0.0,2.9319,2.9457,2.7539,2.6859,2.7551,2.6762,2.6717,0.0,0.0,0.0,0.0,0.0,0.0,0.0,0.0,0.0,0.0,0.0,0.0,0.0,0.0,0.0,0.0,0.0,0.0,0.0,0.0,0.0,0.0,0.0,0.0,0.0,0.0,0.0,0.0,0.0,0.0,0.0,0.0,0.0,0.0,0.0,0.0,0.0,0.0,0.0,0.0,0.0,0.0,0.0,0.0,0.0,0.0,0.0,0.0,0.0,0.0,0.0,0.0,0.0,0.0,0.0,0.0,0.0,0.0,0.0,0.0,0.0,0.0,0.0,0.0,0.0,0.0,0.0,0.0,0.0,0.0,0.0,0.0,0.0,0.0,0.0,0.0,0.0,0.0,0.0,0.0,0.0,0.0,0.0,0.0,0.0,0.0,0.0,0.0,0.0,0.0,0.0,0.0,0.0,0.0,0.0,0.0,0.0,0.0,0.0,0.0,0.0,0.0,0.0,0.0,0.0,0.0,0.0,0.0,2.9165,2.7223,2.6062,2.5201,2.4652,2.5528,2.6076,0.0,0.0,0.0,0.0,0.0,0.0,0.0,0.0,0.0,0.0,0.0,0.0,0.0,0.0,0.0,0.0,0.0,0.0,0.0,0.0,0.0,0.0,0.0,0.0,0.0,0.0,0.0,0.0,0.0,0.0,0.0,0.0,0.0,0.0,0.0,0.0,0.0,0.0,0.0,0.0,0.0,0.0,0.0,0.0,0.0,0.0,0.0,0.0,0.0,0.0,0.0,0.0,0.0,0.0,0.0,0.0,0.0,0.0,0.0,0.0,0.0,0.0,0.0,0.0,0.0,0.0,0.0,0.0,0.0,0.0,0.0,0.0,0.0,0.0,0.0,0.0,0.0,0.0,0.0,0.0,0.0,0.0,0.0,0.0,0.0,0.0,0.0,0.0,0.0,0.0,0.0,0.0,0.0,0.0,0.0,0.0,0.0,0.0,0.0,0.0,0.0,0.0,0.0,0.0,0.0,0.0,0.0,0.0,2.7786,2.7623,2.5682,2.4644,2.4613,2.3814,2.3922,0.0,0.0,0.0,0.0,0.0,0.0,0.0,0.0,0.0,0.0,0.0,0.0,0.0,0.0,0.0,0.0,0.0,0.0,0.0,0.0,0.0,0.0,0.0,0.0,0.0,0.0,0.0,0.0,0.0,0.0,0.0,0.0,0.0,0.0,0.0,0.0,0.0,0.0,0.0,0.0,0.0,0.0,0.0,0.0,0.0,0.0,0.0,0.0,4.1792,0.0,0.0,0.0,0.0,0.0,0.0,0.0,0.0,0.0,0.0,0.0,0.0,0.0,0.0,0.0,0.0,0.0,0.0,0.0,0.0,0.0,0.0,0.0,0.0,0.0,0.0,0.0,0.0,0.0,0.0,0.0,0.0,0.0,0.0,0.0,0.0,0.0,0.0,0.0,0.0,0.0,0.0,0.0,0.0,0.0,0.0,0.0,0.0,0.0,0.0,0.0,0.0,0.0,0.0,0.0,0.0,0.0,0.0,0.0,2.7199,2.6687,2.4647,2.3355,2.2999,2.2043,2.2515,0.0,0.0,0.0,0.0,0.0,0.0,0.0,0.0,0.0,0.0,0.0,0.0,0.0,0.0,0.0,0.0,0.0,0.0,0.0,0.0,0.0,0.0,0.0,0.0,0.0,0.0,0.0,0.0,0.0,0.0,0.0,0.0,0.0,0.0,0.0,0.0,0.0,0.0,0.0,0.0,0.0,0.0,0.0,0.0,0.0,0.0,0.0,0.0,0.0,0.0,0.0,0.0,0.0,0.0,0.0,0.0,0.0,0.0,0.0,0.0,0.0,0.0,0.0,0.0,0.0,0.0,0.0,0.0,0.0,0.0,0.0,0.0,0.0,0.0,0.0,0.0,0.0,0.0,0.0,0.0,0.0,0.0,0.0,0.0,0.0,0.0,0.0,0.0,0.0,0.0,0.0,0.0,0.0,0.0,0.0,0.0,0.0,0.0,0.0,0.0,0.0,0.0,0.0,0.0,0.0,0.0,0.0,2.7985,2.6763,2.5342,2.3487,2.2128,2.1367,2.0806,2.1715,2.4174,0.0,0.0,0.0,0.0,0.0,0.0,0.0,0.0,0.0,0.0,0.0,0.0,0.0,0.0,0.0,0.0,0.0,0.0,0.0,0.0,0.0,0.0,0.0,0.0,0.0,0.0,0.0,0.0,0.0,0.0,0.0,0.0,0.0,0.0,0.0,0.0,0.0,0.0,3.6835,3.7631,0.0,0.0,0.0,0.0,0.0,0.0,0.0,0.0,4.2439,0.0,0.0,0.0,0.0,0.0,0.0,0.0,0.0,0.0,0.0,0.0,0.0,0.0,0.0,0.0,0.0,0.0,0.0,0.0,0.0,0.0,0.0,0.0,0.0,0.0,0.0,0.0,0.0,0.0,0.0,0.0,0.0,0.0,0.0,0.0,0.0,0.0,0.0,0.0,0.0,0.0,0.0,0.0,0.0,0.0,0.0,0.0,0.0,0.0,0.0,0.0,0.0,0.0,0.0,0.0,0.0,2.8048,2.6605,2.5449,2.4571,2.2893,2.1992,2.1927,2.1685,2.1978,2.2888,0.0,0.0,0.0,0.0,0.0,0.0,0.0,0.0,0.0,0.0,0.0,0.0,0.0,0.0,0.0,0.0,0.0,0.0,0.0,0.0,0.0,0.0,0.0,0.0,0.0,0.0,0.0,0.0,0.0,0.0,0.0,0.0,0.0,0.0,0.0,0.0,0.0,0.0,0.0,4.0473,4.1639,0.0,0.0,0.0,0.0,0.0,0.0,0.0,0.0,4.2027,0.0,0.0,0.0,0.0,0.0,0.0,0.0,0.0,0.0,0.0,0.0,0.0,0.0,0.0,0.0,0.0,0.0,0.0,0.0,0.0,0.0,0.0,0.0,0.0,0.0,0.0,0.0,0.0,0.0,0.0,0.0,0.0,0.0,0.0,0.0,0.0,0.0,0.0,0.0,0.0,0.0,0.0,0.0,0.0,0.0,0.0,0.0,0.0,0.0,0.0,0.0,0.0,0.0,0.0,0.0,2.7562,2.5868,2.4726,2.421,2.2431,2.1307,2.0917,2.0658,2.0954,0.0,0.0,0.0,0.0,0.0,0.0,0.0,0.0,0.0,0.0,0.0,0.0,0.0,0.0,0.0,0.0,0.0,0.0,0.0,0.0,0.0,0.0,0.0,0.0,0.0,0.0,0.0,0.0,0.0,0.0,0.0,0.0,0.0,0.0,0.0,0.0,0.0,0.0,0.0,0.0,4.0984,4.1887,4.2989,0.0,0.0,0.0,0.0,0.0,0.0,4.3041,4.2188,0.0,0.0,0.0,0.0,0.0,0.0,0.0,0.0,0.0,0.0,0.0,0.0,0.0,0.0,0.0,0.0,0.0,0.0,0.0,0.0,0.0,0.0,0.0,0.0,0.0,0.0,0.0,0.0,0.0,0.0,0.0,0.0,0.0,0.0,0.0,0.0,0.0,0.0,0.0,0.0,0.0,0.0,0.0,0.0,0.0,0.0,0.0,0.0,0.0,0.0,0.0,0.0,0.0,0.0,0.0,2.7187,2.5443,2.4275,2.3803,2.1973,2.0677,1.9974,1.9459,1.9797,0.0,0.0,0.0,0.0,0.0,0.0,0.0,0.0,0.0,0.0,0.0,0.0,0.0,0.0,0.0,0.0,0.0,0.0,0.0,0.0,0.0,0.0,0.0,0.0,0.0,0.0,0.0,0.0,0.0,0.0,0.0,0.0,0.0,0.0,0.0,0.0,0.0,0.0,0.0,0.0,0.0,4.2285,4.3731,4.4803,0.0,0.0,0.0,0.0,4.4145,4.3401,0.0,0.0,0.0,0.0,0.0,0.0,0.0,0.0,0.0,0.0,0.0,0.0,0.0,0.0,0.0,0.0,0.0,0.0,0.0,0.0,0.0,0.0,0.0,0.0,0.0,0.0,0.0,0.0,0.0,0.0,0.0,0.0,0.0,0.0,0.0,0.0,0.0,0.0,0.0,0.0,0.0,0.0,0.0,0.0,0.0,0.0,0.0,0.0,0.0,0.0,0.0,0.0,0.0,0.0,0.0,0.0,2.607,2.5235,2.4193,2.305,2.1495,2.061,2.0487,1.921,1.9532,0.0,0.0,0.0,0.0,0.0,0.0,0.0,0.0,0.0,0.0,0.0,0.0,0.0,0.0,0.0,0.0,0.0,0.0,0.0,0.0,0.0,0.0,0.0,0.0,0.0,0.0,0.0,0.0,0.0,0.0,0.0,0.0,0.0,0.0,0.0,0.0,0.0,0.0,0.0,0.0,0.0,4.5028,4.3809,4.5584,4.6456,0.0,0.0,4.449,4.5794,4.5064,0.0,0.0,0.0,0.0,0.0,0.0,0.0,0.0,0.0,0.0,0.0,0.0,0.0,0.0,0.0,0.0,0.0,0.0,0.0,0.0,0.0,0.0,0.0,0.0,0.0,0.0,0.0,0.0,0.0,0.0,0.0,0.0,0.0,0.0,0.0,0.0,0.0,0.0,0.0,0.0,0.0,0.0,0.0,0.0,0.0,0.0,0.0,0.0,0.0,0.0,0.0,0.0,0.0,0.0,0.0,2.6519,2.6451,2.5176,2.4169,2.3422,2.1256,2.0264,2.059,1.854,1.8798,0.0,0.0,0.0,0.0,0.0,0.0,0.0,0.0,0.0,0.0,0.0,0.0,0.0,0.0,0.0,0.0,0.0,0.0,0.0,0.0,0.0,0.0,0.0,0.0,0.0,0.0,0.0,0.0,0.0,0.0,0.0,0.0,0.0,0.0,0.0,0.0,0.0,0.0,0.0,0.0,0.0,0.0,4.498,4.6645,0.0,0.0,0.0,4.5055,4.5638,0.0,0.0,0.0,0.0,0.0,0.0,0.0,0.0,0.0,0.0,0.0,0.0,0.0,0.0,0.0,0.0,0.0,0.0,0.0,0.0,0.0,0.0,0.0,0.0,0.0,0.0,0.0,0.0,0.0,0.0,0.0,0.0,0.0,0.0,0.0,0.0,0.0,0.0,0.0,0.0,0.0,0.0,0.0,0.0,0.0,0.0,0.0,0.0,0.0,0.0,0.0,0.0,0.0,0.0,0.0,0.0,0.0,2.6572,2.523,2.4203,2.3514,2.1192,2.0071,2.0346,1.8083,0.0,0.0,0.0,0.0,0.0,0.0,0.0,0.0,0.0,0.0,0.0,0.0,0.0,0.0,0.0,0.0,0.0,0.0,0.0,0.0,0.0,0.0,0.0,0.0,0.0,0.0,0.0,3.2957,0.0,0.0,0.0,0.0,0.0,0.0,0.0,0.0,0.0,0.0,0.0,0.0,0.0,0.0,4.5117,4.5667,4.7113,4.7584,0.0,0.0,4.5514,4.5466,4.5372,4.4935,0.0,0.0,0.0,0.0,0.0,0.0,0.0,0.0,0.0,0.0,0.0,0.0,0.0,0.0,0.0,0.0,0.0,0.0,0.0,0.0,0.0,0.0,0.0,0.0,0.0,0.0,0.0,0.0,0.0,0.0,0.0,0.0,0.0,0.0,0.0,0.0,0.0,0.0,0.0,0.0,0.0,0.0,0.0,0.0,0.0,0.0,0.0,0.0,0.0,0.0,0.0,0.0,0.0,0.0,0.0,2.5788,2.5371,2.431,2.2643,2.1242,2.031,1.9844,1.8103,1.8722,0.0,0.0,0.0,0.0,0.0,0.0,0.0,0.0,0.0,0.0,0.0,0.0,0.0,0.0,0.0,0.0,0.0,0.0,0.0,0.0,0.0,0.0,0.0,0.0,0.0,0.0,0.0,0.0,0.0,0.0,0.0,0.0,0.0,0.0,0.0,0.0,0.0,0.0,0.0,0.0,0.0,4.5815,4.5156,4.6481,4.7258,0.0,0.0,4.6108,4.5978,4.6562,4.6593,4.5372,0.0,0.0,0.0,0.0,0.0,0.0,0.0,0.0,0.0,0.0,0.0,0.0,0.0,0.0,0.0,0.0,0.0,0.0,0.0,0.0,0.0,0.0,0.0,0.0,0.0,0.0,0.0,0.0,0.0,0.0,0.0,0.0,0.0,0.0,0.0,0.0,0.0,0.0,0.0,0.0,0.0,0.0,0.0,0.0,0.0,0.0,0.0,0.0,0.0,0.0,0.0,0.0,0.0,2.6904,2.6312,2.5999,2.4881,2.2981,2.1375,2.0489,2.0245,1.8257,1.853,0.0,0.0,0.0,0.0,0.0,0.0,0.0,0.0,0.0,0.0,0.0,0.0,0.0,0.0,0.0,0.0,0.0,0.0,0.0,0.0,0.0,0.0,0.0,0.0,0.0,0.0,0.0,0.0,3.3475,3.3708,3.4274,0.0,0.0,0.0,0.0,0.0,0.0,0.0,0.0,0.0,0.0,4.5503,4.5701,4.6757,0.0,0.0,4.6289,4.6247,4.6206,4.633,4.6117,4.5107,4.5127,0.0,0.0,0.0,0.0,0.0,0.0,0.0,0.0,0.0,0.0,0.0,0.0,0.0,0.0,0.0,0.0,0.0,0.0,0.0,0.0,0.0,0.0,0.0,0.0,0.0,0.0,0.0,0.0,0.0,0.0,0.0,0.0,0.0,0.0,0.0,0.0,0.0,0.0,0.0,0.0,0.0,0.0,0.0,0.0,0.0,0.0,0.0,0.0,0.0,0.0,0.0,0.0,2.7493,2.6531,2.6123,2.5044,2.3254,2.1654,2.0727,2.0482,1.8906,1.9,0.0,0.0,0.0,0.0,0.0,0.0,0.0,0.0,0.0,0.0,0.0,0.0,0.0,0.0,0.0,0.0,0.0,0.0,0.0,0.0,0.0,0.0,0.0,0.0,0.0,0.0,0.0,0.0,3.4932,3.5084,3.5779,0.0,0.0,0.0,0.0,0.0,0.0,0.0,0.0,0.0,0.0,4.5503,4.613,4.6758,4.695,4.6362,4.6288,4.625,4.625,4.6373,4.6146,4.5292,0.0,0.0,0.0,0.0,0.0,0.0,0.0,0.0,0.0,0.0,0.0,0.0,0.0,0.0,0.0,0.0,0.0,0.0,0.0,0.0,0.0,0.0,0.0,0.0,0.0,0.0,0.0,0.0,0.0,0.0,0.0,0.0,0.0,0.0,0.0,0.0,0.0,0.0,0.0,0.0,0.0,0.0,0.0,0.0,0.0,0.0,0.0,0.0,0.0,0.0,0.0,0.0,0.0,2.7834,2.6162,2.5644,2.469,2.3332,2.2048,2.1134,2.0635,2.0158,2.0378,2.1396,0.0,0.0,0.0,0.0,0.0,0.0,0.0,0.0,0.0,0.0,0.0,0.0,0.0,0.0,0.0,0.0,0.0,0.0,0.0,0.0,0.0,0.0,0.0,0.0,0.0,0.0,3.7834,3.718,3.6665,0.0,0.0,0.0,0.0,0.0,0.0,0.0,0.0,0.0,0.0,4.5545,4.6168,4.6289,4.6326,4.6363,4.6307,4.6249,4.6205,4.6244,4.693,4.7183,0.0,0.0,0.0,0.0,0.0,0.0,0.0,0.0,0.0,0.0,0.0,0.0,0.0,0.0,0.0,0.0,0.0,0.0,0.0,0.0,0.0,0.0,0.0,0.0,0.0,0.0,0.0,3.552,3.435,0.0,0.0,0.0,0.0,0.0,0.0,0.0,0.0,0.0,0.0,0.0,3.5446,3.672,0.0,0.0,0.0,0.0,0.0,0.0,0.0,0.0,0.0,0.0,0.0,0.0,2.8198,2.7263,2.6567,2.5525,2.4082,2.3162,2.2233,2.1217,2.0852,2.1109,2.2038,0.0,0.0,0.0,0.0,0.0,0.0,0.0,0.0,0.0,0.0,0.0,0.0,0.0,0.0,0.0,0.0,0.0,0.0,0.0,0.0,0.0,0.0,0.0,0.0,0.0,3.8305,0.0,0.0,0.0,0.0,0.0,0.0,0.0,0.0,0.0,0.0,0.0,4.4325,4.542,4.5347,4.5444,4.6123,4.6224,4.6436,0.0,0.0,0.0,0.0,0.0,0.0,0.0,0.0,0.0,0.0,0.0,0.0,0.0,0.0,5.3535,5.104,4.9747,4.9135,4.9401,0.0,0.0,0.0,0.0,0.0,0.0,0.0,0.0,0.0,0.0,0.0,0.0,0.0,0.0,0.0,0.0,3.6399,0.0,0.0,0.0,0.0,0.0,0.0,0.0,0.0,4.0276,3.9903,3.7624,3.8857,3.8319,0.0,3.6826,3.6433,0.0,0.0,0.0,0.0,0.0,0.0,0.0,0.0,2.9012,2.8046,2.694,2.583,2.4696,2.3826,2.3038,2.2352,2.2133,2.2192,2.2564,2.3268,2.4125,0.0,0.0,0.0,0.0,0.0,0.0,0.0,0.0,0.0,0.0,0.0,0.0,0.0,0.0,0.0,0.0,0.0,0.0,0.0,0.0,0.0,0.0,0.0,3.8975,0.0,0.0,0.0,0.0,0.0,0.0,0.0,0.0,0.0,4.4541,4.4351,4.473,4.6174,4.5662,4.5543,4.6505,0.0,0.0,0.0,0.0,0.0,0.0,0.0,4.8398,4.8417,4.9353,5.0407,5.1271,5.303,5.4625,5.5499,0.0,0.0,5.3424,5.2243,5.1857,5.2436,5.1937,5.1632,5.2487,5.171,5.0881,0.0,0.0,0.0,0.0,0.0,0.0,0.0,0.0,4.0087,3.9008,0.0,3.815,0.0,0.0,0.0,0.0,0.0,0.0,0.0,0.0,4.2386,4.2569,4.134,4.0842,4.041,3.9925,4.0077,3.9704,3.864,3.5635,0.0,0.0,0.0,0.0,0.0,0.0,3.0133,2.8583,2.6848,2.5726,2.5272,2.4047,2.3547,2.3905,2.3968,2.3709,2.3113,2.4954,2.5631,2.4737,2.7437,0.0,0.0,0.0,0.0,0.0,0.0,0.0,0.0,0.0,0.0,0.0,0.0,0.0,0.0,0.0,0.0,0.0,0.0,0.0,0.0,3.9511,0.0,0.0,0.0,0.0,0.0,0.0,0.0,0.0,0.0,0.0,4.4436,4.516,4.6039,4.6936,0.0,0.0,0.0,0.0,4.6607,4.7488,4.759,4.7882,4.8741,4.9599,5.0145,5.0183,0.0,0.0,5.3823,5.4676,5.5495,5.6352,5.7742,5.8994,5.8747,5.6583,5.561,5.7016,5.5416,5.4316,5.486,5.3721,5.2489,4.5552,0.0,0.0,0.0,0.0,4.545,4.5307,4.4627,4.3909,4.2689,4.1117,4.044,0.0,0.0,0.0,0.0,0.0,0.0,4.2762,4.1731,4.2676,4.2487,4.136,4.1675,4.1309,4.0384,4.0934,4.0616,3.9484,3.7932,3.6761,3.5978,0.0,0.0,0.0,0.0,3.0823,2.9722,2.8728,2.7924,2.7258,2.5878,2.5015,2.4719,2.4717,2.4744,2.4815,2.494,2.5553,2.6784,2.75,0.0,0.0,0.0,0.0,0.0,0.0,0.0,0.0,0.0,0.0,0.0,0.0,0.0,0.0,0.0,0.0,0.0,0.0,0.0,4.1325,4.0294,4.0162,0.0,0.0,0.0,0.0,0.0,0.0,0.0,0.0,0.0,4.671,4.6664,4.6929,0.0,0.0,4.7916,4.8371,4.8227,4.8361,4.922,0.0,0.0,0.0,5.0784,5.1163,5.178,5.3336,5.4754,5.5609,5.594,5.6195,5.6467,5.692,5.7246,5.7182,5.6657,5.6326,5.6638,5.5753,5.5073,5.5628,5.4522,5.3285,4.8345,4.674,4.7545,4.7578,4.7081,4.7177,4.6875,4.624,4.5231,4.4009,4.275,4.2225,4.1695,4.1133,4.1247,0.0,0.0,0.0,4.3421,4.2333,4.3098,4.3014,4.2335,4.2668,4.2385,4.1659,4.2041,4.1783,4.0916,4.0174,3.9232,3.8007,0.0,0.0,3.4151,3.2807,3.1649,3.075,2.9624,2.8819,2.8371,2.7109,2.6383,2.636,2.6352,2.6479,2.6701,2.6731,2.7181,2.8216,2.8677,2.9397,0.0,0.0,0.0,0.0,0.0,0.0,0.0,0.0,0.0,0.0,0.0,3.857,3.8251,0.0,0.0,0.0,3.934,4.0762,4.1471,4.1274,0.0,0.0,0.0,0.0,0.0,0.0,0.0,4.7111,4.7124,4.7335,4.8187,4.8106,4.8101,4.8638,4.8496,4.8493,4.9002,0.0,4.8983,4.9837,4.9997,5.032,5.1171,5.1305,5.1604,5.2456,5.3461,5.4763,5.6248,5.6226,5.6236,5.6714,5.6911,5.6752,5.6397,5.6041,5.6084,5.673,5.6124,5.576,5.6456,5.5204,5.3959,5.0156,5.0039,4.9219,4.8863,4.8725,4.7798,4.725,4.684,4.4811,4.3835,4.3591,4.3523,4.3007,4.2253,4.339,0.0,0.0,4.4196,4.3992,4.3013,4.3674,4.3966,4.3915,4.3693,4.3521,4.3284,4.3241,4.3059,4.2724,4.2159,4.1279,4.004,3.7787,3.6296,3.5571,3.3854,3.2528,3.1658,2.9955,2.8971,2.883,2.7937,2.7779,2.8453,2.8476,2.8526,2.8668,2.9585,2.9843,2.9226,3.0447,3.1224,3.1272,0.0,0.0,0.0,0.0,0.0,0.0,0.0,0.0,0.0,0.0,0.0,0.0,0.0,0.0,0.0,3.9263,0.0,4.095,4.2501,0.0,0.0,0.0,4.6075,4.5887,4.6467,4.7208,4.8001,0.0,0.0,4.9104,0.0,4.937,4.9409,4.8731,4.8539,4.9475,4.912,4.8962,4.9825,4.9992,5.0361,5.1248,5.1481,5.1866,5.2574,5.2663,5.3634,5.5587,5.5584,5.5701,5.6715,5.7117,5.6812,5.5936,5.5102,5.5106,5.6672,5.6281,5.5866,5.636,5.5311,5.4091,4.9721,4.918,4.8937,4.8859,4.8825,4.8452,4.7507,4.6162,4.5368,4.4837,4.4505,4.3692,4.309,4.2707,4.4227,4.4549,4.3841,4.4057,4.4303,4.453,4.4114,4.4198,4.469,4.4075,4.3642,4.348,4.3445,4.3321,4.3114,4.2358,4.1298,3.9921,3.8612,3.747,3.6477,3.4612,3.3264,3.2453,3.1439,3.0374,2.9286,2.934,2.9348,2.9221,2.9239,2.9738,3.0799,3.0508,3.0599,3.121,3.1333,3.1383,3.1518,3.3239,0.0,0.0,0.0,0.0,0.0,0.0,0.0,0.0,0.0,4.1973,4.0503,0.0,4.2208,0.0,4.0395,4.1344,4.3516,4.399,0.0,0.0,4.6831,4.7525,4.7477,4.7539,4.7875,4.8761,4.8826,4.9098,4.9939,5.0067,5.0062,5.0068,5.0125,5.0244,5.0476,5.0356,5.0304,5.0505,5.0576,5.0942,5.1696,5.2464,5.2863,5.3166,5.3169,5.3437,5.4026,5.3987,5.3973,5.4289,5.4363,5.427,5.4072,5.3726,5.3629,5.4062,5.4061,5.3975,5.4068,5.3258,5.2507,4.9141,4.8766,4.8706,4.8515,4.8218,4.8095,4.7445,4.645,4.5654,4.5159,4.4852,4.4441,4.4304,4.4506,4.5398,4.553,4.5045,4.5045,4.521,4.5562,4.5119,4.4929,4.4918,4.4844,4.4535,4.4072,4.4072,4.402,4.3895,4.3089,4.2075,4.0817,4.0282,3.943,3.8199,3.5629,3.417,3.3985,3.2602,3.152,3.0727,3.0445,3.0532,3.1008,3.0774,3.1346,3.28,3.2334,3.258,3.3568,3.3426,3.3537,3.4096,3.522,3.5941,0.0,0.0,0.0,0.0,0.0,0.0,0.0,0.0,0.0,0.0,0.0,4.2673,4.2529,4.2101,4.2908,4.5479,4.5986,4.6487,4.7344,4.8098,4.8577,4.8521,4.8444,4.8678,4.9524,4.9633,4.9786,5.0245,5.0277,5.0277,5.0277,5.0471,5.0587,5.0596,5.0656,5.0718,5.0718,5.0746,5.0948,5.1459,5.1927,5.2241,5.2241,5.2237,5.2357,5.2748,5.2825,5.2801,5.273,5.2747,5.2562,5.2127,5.1936,5.1809,5.1687,5.1722,5.2023,5.2588,5.2094,5.1487,4.8789,4.8601,4.8592,4.8164,4.7545,4.7547,4.7353,4.6953,4.5761,4.5191,4.5073,4.5506,4.6007,4.6492,4.6632,4.6545,4.6305,4.6305,4.6311,4.6346,4.6235,4.5822,4.5154,4.5789,4.5678,4.497,4.4823,4.4825,4.4873,4.4115,4.3176,4.2166,4.2103,4.1443,4.0104,3.6965,3.5538,3.5851,3.3949,3.2949,3.2929,3.185,3.1991,3.329,3.2866,3.3226,3.4615,3.4592,3.4947,3.5787,3.591,3.6313,3.717,3.7653,3.8235,0.0,4.0289,0.0,0.0,0.0,0.0,0.0,0.0,0.0,0.0,4.2441,4.2869,4.4654,4.4091,4.4583,4.6916,4.7871,4.8338,4.8203,4.8923,4.9396,4.9285,4.9257,4.9524,5.0206,5.0277,5.0277,5.0277,5.0277,5.0277,5.0283,5.03,5.0329,5.0312,5.0434,5.0552,5.0547,5.0661,5.0722,5.0773,5.0786,5.0825,5.0795,5.0821,5.1,5.1722,5.1842,5.1842,5.1732,5.1682,5.139,5.047,5.0347,5.0201,5.0011,4.9951,5.0327,5.1412,5.1305,5.0806,4.9844,4.8614,4.8545,4.8477,4.838,4.8266,4.7397,4.6116,4.5704,4.5676,4.5944,4.6922,4.7073,4.6648,4.7215,4.7019,4.6305,4.6305,4.6572,4.7067,4.6422,4.6332,4.6636,4.6168,4.5837,4.5653,4.502,4.5092,4.5817,4.4988,4.3994,4.2841,4.275,4.2017,4.0687,0.0,0.0,0.0,3.6863,3.6521,3.6336,3.5525,3.5359,3.595,3.5347,0.0,3.6199,3.6251,3.6392,3.6723,3.6917,0.0,0.0,0.0,0.0,0.0,0.0,0.0,0.0,0.0,0.0,0.0,4.4211,4.3521,4.3059,4.3491,4.4567,4.6225,4.618,4.6502,4.7724,4.8518,4.8952,4.8903,4.9625,5.0099,5.0054,5.0054,5.013,5.0277,5.0277,5.0277,5.0277,5.0277,5.0277,5.0277,5.0277,5.0277,5.0277,5.0329,5.0357,5.0357,5.0386,5.0391,5.038,5.0402,5.0429,5.0418,5.038,5.0473,5.0637,5.0714,5.0665,5.0636,5.0587,5.0576,5.0315,5.0082,4.9864,4.981,4.957,4.9476,4.9785,4.9747,4.9612,4.9086,0.0,4.8238,4.8211,0.0,4.8191,4.7687,4.6885,4.6618,4.6742,4.7125,4.7585,4.7827,4.7864,4.8282,4.8157,4.7619,4.7756,4.7879,4.7969,4.7526,4.7215,4.7037,4.6962,4.6724,4.6321,4.5909,4.6039,4.6471,4.5736,4.4847,4.3905,4.3852,4.3269,4.2195,4.1967,4.0938,3.8981,3.8602,3.8309,3.8106,3.7528,3.7503,3.7968,0.0,0.0,0.0,0.0,0.0,0.0,0.0,0.0,0.0,0.0,0.0,4.2401,4.3089,4.3858,4.4734,4.4758,4.4799,4.5132,4.5213,4.4942,4.4145,4.4901,4.5922,4.7223,4.7287,4.7596,4.8447,4.8865,4.9257,4.9677,5.0054,5.0277,5.0277,5.0277,5.0277,5.0277,5.0277,5.0277,5.0277,5.0277,5.0277,5.0277,5.0277,5.0271,5.0277,5.0277,5.0277,5.0277,5.0277,5.0283,5.0277,5.0277,5.0277,5.0277,5.0277,5.0277,5.0277,5.0277,5.0277,5.0271,5.0149,5.0057,5.0032,4.9797,4.9498,4.934,4.9169,4.8982,4.8856,4.8924,4.899,4.8649,4.8567,4.8414,4.8414,4.8567,4.8393,4.8328,4.8247,0.0,0.0,0.0,4.8069,4.8431,4.9047,4.9106,4.9027,4.8907,4.9061,4.8913,4.8587,4.8514,4.8042,4.7207,4.774,4.7627,4.7034,4.6888,4.6927,4.7134,4.6432,4.5755,4.5275,4.5201,4.4795,4.4143,4.4321,4.3332,4.1243,4.0426,3.9982,3.9831,3.943,3.9473,4.0032,3.9142,3.8935,3.954,3.8534,3.8684,4.016,4.0316,4.1083,4.2601,4.2866,4.3297,4.4061,4.4178,4.4526,4.5168,4.5191,4.5208,4.5264,4.6035,4.62,4.5464,4.6233,4.7094,4.7946,4.8023,4.8372,4.9219,4.9333,4.9545,5.0147,5.0212,5.02,5.0151,5.0145,5.0082,5.0107,5.0082,5.0107,5.0088,5.0082,5.0113,5.01,5.0063,5.0175,5.0212,5.0248,5.0277,5.0277,5.0277,5.0277,5.0277,5.0277,5.0277,5.0277,5.0277,5.0277,5.0277,5.0277,5.0303,5.02,4.9987,4.9817,4.9728,4.9446,4.9129,4.8867,4.8746,4.8613,4.8393,4.8523,4.8641,5.1168,5.1103,5.0341,5.0495,5.1097,5.0308,4.9868,4.9632,4.8859,4.8464,4.8402,4.8818,4.8986,4.8945,4.8884,4.8706,4.8411,4.8429,4.8325,0.0,4.8092,4.8025,4.7876,4.7929,4.7929,4.7783,4.7143,4.7153,4.7693,4.7063,4.6695,4.6736,4.6717,4.6415,4.5949,4.6009,4.5648,4.4841,4.3907,4.3392,4.3361,4.2664,4.2337,4.247,4.1781,4.1457,4.1485,4.1301,4.1314,4.1526,4.1643,4.1851,4.2127,4.2975,4.3529,4.3852,4.4448,4.4928,4.5185,4.5197,4.543,4.5905,4.6279,4.6429,4.6341,4.7105,4.7979,4.8793,4.8896,4.9257,5.0015,5.0074,4.9979,4.9903,4.987,4.9776,4.952,4.9483,4.949,4.9498,4.9446,4.9468,4.9498,4.949,4.9505,4.9468,4.9541,4.9563,4.9844,5.0145,5.0265,5.0277,5.0277,5.0277,5.0277,5.0277,5.0277,5.0277,5.0309,5.0248,5.0248,5.023,5.0119,4.9903,4.9797,4.9641,4.9431,4.9097,4.8893,4.8746,4.8596,4.8355,4.8306,4.8336,4.8382,5.1367,5.1948,5.118,5.1066,5.1358,5.0274,4.9717,4.9528,4.8972,4.8905,4.9183,4.9341,4.9233,4.8976,4.8976,4.8766,4.8476,4.8532,4.8458,4.8221,4.8104,4.7982,4.7845,4.7694,4.7642,4.7595,4.7269,4.7301,4.7643,4.7415,4.7116,4.6827,4.6541,4.6296,4.61,4.6239,4.6248,4.6086,4.5365,4.4744,4.4222,4.3849,4.3662,4.3655,4.2941,4.2561,4.2575,4.2199,4.2218,4.2667,4.2687,4.2941,4.3504,4.3872,4.4165,4.4458,4.5196,4.5589,4.5624,4.5912,4.5972,4.5885,4.6786,4.7382,4.7348,4.7897,4.8573,4.9378,4.9332,4.9359,4.9731,4.9769,4.9676,4.9549,4.9534,4.9468,4.9348,4.9272,4.9272,4.9272,4.9272,4.9272,4.9272,4.9272,4.9272,4.9272,4.9272,4.9378,4.9512,4.9641,4.989,5.0218,5.0277,5.0277,5.0271,5.0277,5.0277,5.0277,5.0163,5.0051,5.0019,4.9903,4.9735,4.9549,4.9401,4.9216,4.904,4.8764,4.8587,4.8523,4.8421,4.8306,4.8296,4.8296,4.8296,5.1429,5.2454,5.166,5.117,5.0854,4.9925,4.9361,4.9093,4.8833,4.9028,4.9521,4.9399,4.9152,4.8836,4.8887,4.8721,4.843,4.8523,4.8393,4.8126,4.7975,4.7788,4.7551,4.732,4.7232,4.7232,4.7232,4.7287,4.7374,4.7529,4.7331,4.6844,4.6518,4.6378,4.6415,4.6598,4.6694,4.6677,4.6288,4.5694,4.4901,4.4864,4.4872,4.4767,4.4228,4.383,4.3751,4.3215,4.3175,4.3653,4.3638,4.4061,4.4959,4.4896,4.4985,4.5414,4.5975,4.6308,4.6221,4.6581,4.66,4.6121,4.732,4.8152,4.8256,4.8491,4.8905,4.9514,4.9431,4.9295,4.9303,4.9333,4.9279,4.9216,4.9193,4.9145,4.9089,4.908,4.908,4.908,4.908,4.9064,4.908,4.908,4.9048,4.904,4.9145,4.9193,4.9201,4.9248,4.9541,4.9877,5.0076,5.0044,5.0069,5.0051,5.0038,5.0069,4.9857,4.9697,4.9634,4.9468,4.9287,4.9216,4.899,4.8833,4.8693,4.8495,4.8354,4.8335,4.8316,4.8296,4.8296,4.8296,4.8296,5.2477,5.2806,5.2076,5.1108,5.0202,4.9983,4.9511,4.8862,4.879,4.8824,4.8859,4.8641,4.8458,4.8295,4.8287,4.8148,4.7814,4.7804,4.7657,4.7367,4.7301,4.7212,4.7088,4.7007,4.7032,4.6996,4.702,4.702,4.7043,4.7178,4.7363,4.758,4.7591,4.772,4.8001,4.8059,4.7841,4.7339,4.7264,4.7024,4.6592,4.6577,4.6608,4.663,4.6562,4.6194,4.5467,4.5413,4.5115,4.4648,4.4603,4.4956,4.5655,4.5755,4.6005,4.6562,4.6749,4.6801,4.6734,4.6787,4.7003,4.7405,4.7764,4.826,4.8661,4.8773,4.894,4.9277,4.9355,4.9293,4.931,4.9316,4.9204,4.9005,4.8896,4.8729,4.8504,4.8411,4.8411,4.8411,4.8467,4.8383,4.8467,4.8477,4.8439,4.8514,4.8711,4.8859,4.8876,4.9048,4.9216,4.9356,4.9401,4.9416,4.9446,4.9409,4.9483,4.9461,4.9394,4.9356,4.9333,4.9294,4.9224,4.8902,4.8824,4.8658,4.8467,4.8306,4.8306,4.8296,4.8296,4.8296,4.8296,4.8296,4.8296,5.2358,5.3318,5.2489,5.158,5.0674,4.9972,4.9205,4.8523,4.825,4.8143,4.8134,4.8042,4.8072,4.8229,4.8275,4.7972,4.7472,4.7461,4.7265,4.6986,4.6906,4.6801,4.6649,4.6566,4.653,4.653,4.653,4.653,4.6566,4.6731,4.7043,4.7388,4.7547,4.7726,4.7957,4.8062,4.8053,4.7867,4.7923,4.7886,4.7693,4.6917,4.6463,4.6544,4.6555,4.6559,4.6345,4.6323,4.6276,4.6125,4.6024,4.613,4.6598,4.647,4.651,4.6847,4.7158,4.7295,4.7266,4.7507,4.7577,4.7343,4.7855,4.8326,4.8523,4.8993,4.9335,4.9425,4.9498,4.9647,5.0046,4.9786,4.9389,4.9252,4.8846,4.8476,4.8325,4.8333,4.8296,4.8296,4.8296,4.8296,4.8296,4.8296,4.8296,4.8306,4.843,4.8514,4.8532,4.8622,4.8693,4.8711,4.8711,4.889,4.9177,4.9272,4.9265,4.9271,4.9129,4.8999,4.8982,4.8824,4.864,4.8541,4.8541,4.8495,4.8354,4.8296,4.8296,4.8296,4.8296,4.8296,4.8296,4.8296,4.8296,5.2521,5.3361,5.2715,5.1954,5.115,5.0311,4.9484,4.8796,4.8488,4.8351,4.8351,4.834,4.8301,4.8243,4.8181,4.7788,4.7185,4.7129,4.688,4.6506,4.6386,4.6242,4.6107,4.6043,4.6005,4.5993,4.597,4.5983,4.6067,4.6205,4.6578,4.7007,4.722,4.7439,4.7767,4.7917,4.8038,4.8111,4.819,4.8258,4.8188,4.7279,4.6772,4.6931,4.6972,4.6999,4.6916,4.6981,4.7003,4.6959,4.6832,4.6922,4.723,4.707,4.7103,4.7311,4.7602,4.7789,4.7815,4.8099,4.8039,4.7553,4.8003,4.8416,4.871,4.9233,4.9794,5.0291,5.0271,5.0538,5.0618,5.0261,4.9968,4.9894,4.9334,4.9003,4.903,4.8857,4.8673,4.8636,4.8489,4.8296,4.8296,4.8296,4.8296,4.8306,4.8306,4.8296,4.8296,4.8325,4.8325,4.8296,4.8316,4.8504,4.8924,4.8974,4.9031,4.899,4.879,4.8658,4.8649,4.8421,4.8316,4.842,4.8335,4.8296,4.8306,4.8296,4.8296,4.8296,4.8296,4.8296,4.8296,4.8296,4.8296,5.3423,5.3115,5.2669,5.2014,5.1291,5.1218,5.0725,4.9887,4.9919,4.9897,4.985,4.9828,4.9266,4.8124,4.7858,4.7363,4.6764,4.6695,4.6328,4.573,4.5666,4.5598,4.5455,4.5441,4.5441,4.5481,4.5481,4.5533,4.5615,4.5675,4.602,4.6672,4.6741,4.7129,4.771,4.7861,4.7953,4.7982,4.8012,4.8022,4.8032,4.7932,4.8019,4.8292,4.843,4.805,4.7575,4.7481,4.723,4.6655,4.6714,4.6989,4.7595,4.7645,4.7827,4.8301,4.83,4.8261,4.8244,4.8279,4.826,4.8223,4.8296,4.8673,4.9344,4.9721,5.0381,5.1683,5.1767,5.1583,5.1059,5.0875,5.0765,5.0765,5.0692,5.0545,5.0582,4.9784,4.9564,4.938,4.8783,4.837,4.8296,4.8296,4.8296,4.8296,4.8296,4.8296,4.8296,4.8296,4.8296,4.8296,4.8296,4.8325,4.8373,4.8504,4.8467,4.8458,4.8514,4.8373,4.8335,4.8306,4.8306,4.8296,4.8296,4.8296,4.8296,4.8296,4.8296,4.8296,4.8296,4.8296,4.8296,4.8296,4.8296,5.4394,5.4138,5.2996,5.2335,5.2009,5.1538,5.0861,5.0067,4.968,4.9505,4.9471,4.9185,4.8739,4.8282,4.7665,4.6919,4.6191,4.6132,4.5844,4.5389,4.5349,4.527,4.515,4.5136,4.5136,4.5136,4.5123,4.5217,4.5336,4.5349,4.555,4.6008,4.64,4.6776,4.714,4.7572,4.7772,4.7824,4.7876,4.7917,4.7927,4.7951,4.8082,4.8219,4.8229,4.8121,4.7959,4.7959,4.7878,4.7753,4.7753,4.7855,4.8078,4.8098,4.82,4.8448,4.839,4.8296,4.8296,4.8296,4.8296,4.8333,4.882,4.927,4.9711,5.0518,5.14,5.195,5.2527,5.2553,5.2333,5.1903,5.1573,5.1499,5.1132,5.0875,5.0655,5.0115,4.9601,4.9454,4.8857,4.8333,4.8296,4.8296,4.8296,4.8296,4.8296,4.8296,4.8296,4.8296,4.8296,4.8296,4.8296,4.8296,4.8296,4.8306,4.8306,4.8316,4.8316,4.8325,4.8306,4.8306,4.8296,4.8296,4.8296,4.8296,4.8296,4.8296,4.8296,4.8296,4.8296,4.8296,4.8296,4.8296,4.8296,5.4907,5.4725,5.3748,5.3096,5.2819,5.2124,5.1332,5.0554,4.9959,4.9676,4.9601,4.9305,4.8938,4.8499,4.7976,4.7116,4.6145,4.5814,4.5394,4.5015,4.5022,4.4968,4.4886,4.4872,4.4872,4.4872,4.4872,4.4893,4.5009,4.5022,4.5283,4.5794,4.6159,4.6613,4.7028,4.7508,4.7689,4.771,4.7798,4.784,4.785,4.7886,4.7891,4.7891,4.7891,4.7998,4.8138,4.8148,4.8161,4.824,4.826,4.8269,4.826,4.8238,4.8248,4.8408,4.8619,4.86,4.8443,4.882,4.9003,4.8783,4.949,5.0078,5.0408,5.1363,5.2024,5.2428,5.2821,5.3214,5.3104,5.27,5.238,5.2344,5.1903,5.1563,5.1536,5.0886,5.0235,4.961,4.8857,4.8379,4.8296,4.8296,4.8296,4.8296,4.8296,4.8296,4.8296,4.8296,4.8296,4.8296,4.8296,4.8296,4.8296,4.8296,4.8296,4.8296,4.8296,4.8296,4.8296,4.8296,4.8296,4.8296,4.8296,4.8296,4.8296,4.8296,4.8296,4.8296,4.8296,4.8296,4.8296,4.8296,4.8296,5.4894,5.4882,5.4846,5.4243,5.3568,5.2956,5.2315,5.15,5.0867,5.0544,5.0403,5.0476,4.9674,4.8937,4.8596,4.7955,4.6839,4.5912,4.5322,4.4902,4.4826,4.4826,4.4846,4.4894,4.4894,4.4846,4.4696,4.4663,4.4758,4.4732,4.511,4.5873,4.6037,4.6613,4.764,4.7702,4.7797,4.7916,4.7999,4.7891,4.7735,4.7927,4.7984,4.7901,4.7865,4.7959,4.8091,4.8028,4.7992,4.8002,4.8012,4.8002,4.8022,4.8022,4.8062,4.8327,4.8991,4.904,4.86,4.9701,5.0078,4.9747,5.0325,5.1106,5.1583,5.1977,5.238,5.2931,5.3141,5.3214,5.3214,5.3104,5.3067,5.3141,5.2957,5.292,5.2847,5.238,5.1363,4.9894,4.8903,4.837,4.8296,4.8296,4.8296,4.8296,4.8296,4.8296,4.8296,4.8296,4.8296,4.8296,4.8296,4.8296,4.8296,4.8296,4.8296,4.8296,4.8296,4.8296,4.8296,4.8296,4.8296,4.8296,4.8296,4.8296,4.8296,4.8296,4.8296,4.8296,4.8296,4.8296,4.8296,4.8296,4.8296,5.4745,5.5078,5.4022,5.3774,5.3902,5.325,5.2512,5.1752,5.1164,5.0645,5.0123,4.9713,4.93,4.8892,4.8439,4.7961,4.7511,4.6704,4.6248,4.6104,4.609,4.6056,4.6056,4.609,4.6123,4.6022,4.5568,4.5365,4.5263,4.4871,4.4817,4.5102,4.5797,4.6549,4.7477,4.8135,4.8739,4.9293,4.9376,4.934,4.9376,4.934,4.934,4.9304,4.8847,4.8782,4.9364,4.8384,4.784,4.784,4.7793,4.7835,4.7907,4.7998,4.8042,4.8224,4.8468,4.8636,4.8489,4.9334,5.0004,4.9894,5.0849,5.162,5.2024,5.2527,5.2884,5.3177,5.3214,5.3214,5.3214,5.3214,5.3214,5.3214,5.3214,5.3214,5.3104,5.2491,5.1289,4.9931,4.9344,4.8976,4.8453,4.8296,4.8296,4.8296,4.8296,4.8296,4.8296,4.8296,4.8296,4.8296,4.8296,4.8296,4.8296,4.8296,4.8296,4.8296,4.8296,4.8296,4.8296,4.8296,4.8296,4.8296,4.8296,4.8296,4.8296,4.8296,4.8296,4.8296,4.8296,4.8296,4.8296,4.8296,4.8296,5.4946,5.5276,5.432,5.4004,5.4116,5.3422,5.2678,5.1949,5.1339,5.067,4.9979,4.9591,4.9255,4.8951,4.8496,4.8326,4.8274,4.78,4.7631,4.7496,4.6955,4.6786,4.6786,4.6786,4.6786,4.6718,4.6346,4.6109,4.6075,4.5684,4.5527,4.5856,4.6543,4.7347,4.8028,4.8869,4.9619,5.0064,5.0064,5.0101,5.0101,5.0101,5.0101,5.0028,4.9619,4.9619,4.9992,4.9075,4.8605,4.8532,4.8304,4.8212,4.8328,4.8156,4.8038,4.8287,4.8759,4.8955,4.859,5.0031,5.0582,5.0472,5.1536,5.2417,5.2527,5.2994,5.3177,5.3214,5.3214,5.3214,5.3214,5.3214,5.3214,5.3214,5.3214,5.3214,5.3067,5.2491,5.151,5.0372,4.9784,4.9197,4.86,4.8296,4.8296,4.8296,4.8296,4.8296,4.8296,4.8296,4.8296,4.8296,4.8296,4.8296,4.8296,4.8296,4.8296,4.8296,4.8296,4.8296,4.8296,4.8296,4.8296,4.8296,4.8296,4.8296,4.8296,4.8296,4.8296,4.8296,4.8296,4.8296,4.8296,4.8296,4.8296,5.5334,5.5278,5.5263,5.4704,5.4091,5.3541,5.2831,5.2104,5.1571,5.0875,5.0216,5.0046,4.9643,4.912,4.8917,4.8883,4.8984,4.8849,4.8781,4.8477,4.7733,4.7173,4.7158,4.7192,4.7192,4.7124,4.6969,4.6868,4.6853,4.6665,4.7029,4.7264,4.7747,4.8569,4.8967,4.974,5.0109,5.0315,5.0418,5.0572,5.0535,5.0499,5.0499,5.0499,5.039,5.0354,5.0427,5.0318,5.0173,4.9992,4.9293,4.901,4.8997,4.8411,4.8316,4.867,4.9881,4.9841,4.9598,5.1269,5.2407,5.1536,5.2454,5.3287,5.3287,5.3214,5.3214,5.3214,5.3214,5.3214,5.3214,5.3214,5.3177,5.3104,5.3141,5.3177,5.3067,5.2491,5.1756,5.0875,5.0115,4.9344,4.8636,4.8443,4.8296,4.8296,4.8296,4.8296,4.8296,4.8296,4.8296,4.8296,4.8296,4.8296,4.8296,4.8296,4.8296,4.8296,4.8296,4.8296,4.8296,4.8296,4.8296,4.8296,4.8296,4.8296,4.8296,4.8296,4.8296,4.8296,4.8296,4.8296,4.8296,4.8296,4.8296,5.4492,5.3997,5.4013,5.386,5.3657,5.3495,5.2986,5.2307,5.2077,5.1251,5.0353,5.0117,4.971,4.9052,4.9018,4.9018,4.9018,4.9018,4.9018,4.8951,4.868,4.8443,4.8409,4.8409,4.8376,4.8308,4.7834,4.7616,4.7549,4.7158,4.699,4.7014,4.7693,4.8257,4.8931,4.9891,5.0617,5.1299,5.228,5.2649,5.2602,5.2625,5.277,5.2697,5.2154,5.1912,5.1876,5.1876,5.126,5.0173,4.9919,4.9775,4.984,4.9766,4.9956,5.0477,5.0659,5.1202,5.1883,5.27,5.3214,5.3482,5.3739,5.4069,5.4069,5.3544,5.3287,5.3214,5.3214,5.3251,5.3251,5.3251,5.2994,5.2491,5.2847,5.2894,5.2491,5.2637,5.237,5.1086,5.0582,4.9958,4.926,4.8673,4.8333,4.8296,4.8296,4.8296,4.8296,4.8296,4.8296,4.8296,4.8296,4.8296,4.8296,4.8296,4.8296,4.8296,4.8296,4.8296,4.8296,4.8296,4.8296,4.8296,4.8296,4.8296,4.8296,4.8296,4.8296,4.8296,4.8296,4.8296,4.8296,4.8296,4.8296,5.4803,5.438,5.4093,5.3957,5.3923,5.3653,5.3247,5.2807,5.2401,5.1641,5.0676,5.0218,4.9695,4.9052,4.9018,4.9018,4.9018,4.9018,4.9187,4.9458,4.9458,4.9255,4.9052,4.9018,4.9018,4.8984,4.8563,4.8394,4.8293,4.7902,4.7733,4.7916,4.8283,4.8789,4.9345,5.0425,5.1019,5.1418,5.2563,5.3302,5.3314,5.3568,5.3929,5.4037,5.3711,5.3494,5.3494,5.353,5.277,5.1502,5.1115,5.097,5.0691,5.1045,5.1384,5.1664,5.1877,5.2558,5.313,5.3765,5.4252,5.4436,5.462,5.4876,5.484,5.4436,5.4216,5.4252,5.4216,5.4216,5.4142,5.3922,5.3518,5.3188,5.2821,5.238,5.1573,5.1867,5.1563,5.0729,5.0261,4.9994,4.9197,4.86,4.8379,4.8296,4.8296,4.8296,4.8296,4.8333,4.837,4.8406,4.8443,4.8443,4.8406,4.8379,4.8333,4.8333,4.8296,4.8296,4.8296,4.8296,4.8296,4.8296,4.8296,4.8296,4.8296,4.8296,4.8296,4.8296,4.8296,4.8296,4.8296,4.8296,4.8296,5.5767,5.5631,5.4905,5.4617,5.4448,5.3822,5.3382,5.3179,5.257,5.1792,5.1014,5.0439,4.9898,4.9104,4.9424,4.9323,4.9323,4.9458,4.9729,4.9999,5.0033,4.9744,4.9255,4.9052,4.9018,4.8984,4.9018,4.8951,4.8849,4.8883,4.8951,4.8889,4.9355,4.9693,4.9766,5.0843,5.1157,5.0957,5.194,5.2717,5.2942,5.3325,5.3797,5.4363,5.4436,5.4617,5.4762,5.4798,5.411,5.2806,5.2733,5.2444,5.1912,5.2455,5.2643,5.2568,5.3422,5.3935,5.3993,5.5111,5.55,5.5244,5.5548,5.5695,5.5658,5.5511,5.5328,5.5291,5.5585,5.5401,5.5328,5.4876,5.4326,5.3849,5.2858,5.1867,5.0949,5.0729,5.0472,4.9757,4.961,4.9197,4.8719,4.8379,4.8343,4.8783,4.8783,4.893,4.903,4.9214,4.9003,4.8673,4.8673,4.8627,4.8526,4.8453,4.8416,4.837,4.8333,4.8296,4.8296,4.8296,4.8296,4.8296,4.8296,4.8296,4.8296,4.8296,4.8296,4.8296,4.8296,4.8296,4.8296,4.8296,4.8296,5.6258,5.5631,5.4905,5.4617,5.4482,5.3822,5.3179,5.2672,5.2435,5.1691,5.0676,5.0777,5.0541,4.9898,5.0389,5.0728,5.0626,5.0626,5.0829,5.0829,5.0304,5.0083,4.9729,4.939,4.9052,4.9052,4.9018,4.9018,4.9052,4.9086,4.9018,4.9098,4.924,4.9233,4.9472,5.0115,5.0281,5.0326,5.1423,5.225,5.265,5.2916,5.3409,5.4086,5.4146,5.4689,5.5414,5.5196,5.4713,5.446,5.4363,5.4218,5.4013,5.4217,5.4529,5.4841,5.4967,5.5555,5.6454,5.6545,5.6748,5.6969,5.6638,5.6565,5.6492,5.6014,5.5695,5.5622,5.5622,5.5768,5.5768,5.5511,5.4913,5.4021,5.3251,5.2123,5.0555,5.0398,5.0335,4.9784,4.9527,4.949,4.9233,4.8563,4.8636,4.9123,4.9417,4.9627,4.9811,4.9994,4.9738,4.9334,4.9481,4.9471,4.9077,4.893,4.8783,4.86,4.8443,4.8296,4.8296,4.8296,4.8296,4.8296,4.8296,4.8296,4.8296,4.8296,4.8296,4.8296,4.8296,4.8296,4.8296,4.8296,4.8296,5.707,5.6664,5.5919,5.5615,5.5513,5.4853,5.4279,5.3788,5.3095,5.2435,5.1792,5.1776,5.1319,5.0694,5.1336,5.1539,5.1336,5.1573,5.1505,5.1302,5.1082,5.115,5.0845,5.0101,4.9526,4.956,4.9526,4.9526,4.9526,4.956,4.9575,4.9526,4.9526,4.9843,4.9898,5.0066,5.0032,5.0183,5.0959,5.1654,5.1981,5.2558,5.3582,5.4508,5.4798,5.539,5.6404,5.621,5.6029,5.5957,5.5957,5.5595,5.5233,5.5619,5.6091,5.6115,5.6406,5.6681,5.7421,5.7539,5.7462,5.7948,5.7581,5.7446,5.7299,5.6932,5.6528,5.6345,5.6492,5.6748,5.6686,5.6271,5.5611,5.4976,5.3838,5.2527,5.1132,5.0482,4.9921,4.927,4.894,4.894,4.8746,4.8553,4.8893,4.9344,4.9527,4.9747,5.0288,5.0472,5.0435,5.0288,5.0508,5.0398,4.9848,4.9527,4.9307,4.8976,4.86,4.8443,4.8296,4.8296,4.8296,4.8296,4.8296,4.8296,4.8296,4.8296,4.837,4.8333,4.8333,4.8333,4.8296,4.8296,4.8296,5.79,5.7866,5.7103,5.6799,5.6697,5.5969,5.5496,5.5225,5.4228,5.3484,5.3416,5.2841,5.2435,5.2013,5.2401,5.2266,5.2131,5.2334,5.2536,5.2182,5.2503,5.2503,5.2198,5.1555,5.1132,5.0793,5.0405,5.0371,5.0642,5.0507,5.059,5.0473,5.0455,5.0777,5.1082,5.098,5.0771,5.0814,5.1377,5.1582,5.172,5.2555,5.4047,5.5388,5.5776,5.6187,5.6875,5.7007,5.708,5.7188,5.7188,5.65,5.5993,5.6283,5.6972,5.6418,5.6927,5.7328,5.757,5.769,5.776,5.7939,5.7902,5.7914,5.784,5.7778,5.746,5.7361,5.7409,5.7776,5.7923,5.7373,5.6932,5.6407,5.4829,5.3445,5.2197,5.0886,5.0151,4.8893,4.894,4.905,4.8783,4.859,4.9077,4.949,4.9674,5.0078,5.0692,5.1096,5.1206,5.1279,5.1499,5.1389,5.0839,5.0141,4.9894,4.949,4.9003,4.882,4.8636,4.871,4.8746,4.837,4.8296,4.8406,4.86,4.8746,4.871,4.8526,4.8526,4.8673,4.8563,4.8333,4.8333,5.79,5.7832,5.7103,5.6799,5.668,5.6037,5.548,5.482,5.4634,5.4059,5.3687,5.4008,5.4126,5.4025,5.4093,5.4093,5.3923,5.3991,5.4025,5.3856,5.4059,5.3923,5.3551,5.3382,5.3568,5.3281,5.2334,5.1844,5.2401,5.2334,5.1995,5.1928,5.1928,5.2097,5.2401,5.2503,5.2334,5.2063,5.2496,5.2498,5.2375,5.327,5.4657,5.6037,5.621,5.6511,5.7006,5.7212,5.7188,5.7188,5.7188,5.7031,5.679,5.7007,5.7069,5.707,5.7181,5.7412,5.7498,5.7571,5.7619,5.7679,5.7715,5.7763,5.7822,5.7821,5.7769,5.7827,5.7776,5.796,5.796,5.7776,5.7446,5.6895,5.6297,5.5159,5.3544,5.2637,5.173,5.0261,4.9784,4.927,4.905,4.8967,4.9334,4.9958,5.0435,5.1169,5.205,5.227,5.2344,5.2417,5.2491,5.2234,5.1877,5.1106,5.0518,5.0051,4.9674,4.9564,4.9417,4.938,4.927,4.904,4.8847,4.8893,4.904,4.927,4.938,4.937,4.926,4.9114,4.8967,4.8783,4.8443,5.79,5.7866,5.7509,5.7374,5.7306,5.7002,5.663,5.6275,5.5886,5.5547,5.5412,5.5581,5.5513,5.5378,5.5615,5.5547,5.5209,5.5175,5.5175,5.5175,5.5141,5.5259,5.4938,5.4905,5.5429,5.548,5.4515,5.3568,5.3991,5.3687,5.3484,5.3484,5.3484,5.3653,5.3822,5.3585,5.3619,5.3484,5.3534,5.3363,5.3035,5.415,5.551,5.6737,5.6837,5.6904,5.7126,5.6871,5.6714,5.6714,5.6714,5.6884,5.7087,5.7188,5.7188,5.7213,5.7264,5.7326,5.7375,5.7461,5.751,5.7583,5.7583,5.7643,5.7775,5.7822,5.7869,5.7889,5.7519,5.7556,5.7923,5.796,5.7776,5.7483,5.7068,5.6077,5.495,5.4546,5.3382,5.1877,5.0665,4.9978,4.95,4.9527,4.9747,5.0325,5.1096,5.1977,5.2994,5.3004,5.2784,5.2858,5.2784,5.2774,5.2491,5.1903,5.1206,5.0739,5.0381,5.0261,5.0225,5.0225,5.0115,4.9958,4.9774,4.9811,4.9884,5.0215,5.0215,5.0151,4.9858,4.9601,4.9444,4.9224,4.893,5.79,5.79,5.79,5.79,5.79,5.79,5.7866,5.7764,5.7239,5.6968,5.7002,5.6968,5.6664,5.6393,5.6427,5.6359,5.5767,5.5767,5.5834,5.5733,5.6089,5.6443,5.6292,5.6156,5.6174,5.7121,5.663,5.5852,5.548,5.5141,5.5057,5.504,5.504,5.5277,5.5496,5.5141,5.4837,5.4702,5.4719,5.4415,5.4795,5.5382,5.6667,5.8326,5.7876,5.7487,5.7405,5.675,5.6292,5.6229,5.6284,5.6528,5.6946,5.7125,5.7188,5.7152,5.7043,5.7106,5.7277,5.7096,5.7133,5.7425,5.7498,5.7571,5.7679,5.7726,5.7832,5.7827,5.7556,5.7373,5.7923,5.7997,5.796,5.785,5.7373,5.6737,5.6124,5.5622,5.5254,5.3676,5.1803,5.1179,5.1253,5.0151,5.0398,5.0912,5.1683,5.1573,5.2454,5.2664,5.2674,5.2821,5.2931,5.3067,5.292,5.2627,5.2013,5.1546,5.1253,5.1069,5.1069,5.1059,5.0986,5.1022,5.1279,5.1342,5.1279,5.1022,5.1022,5.0849,5.0408,5.0151,5.0068,4.9884,4.9627,5.79,5.79,5.79,5.79,5.79,5.79,5.79,5.7866,5.7764,5.778,5.7663,5.7712,5.7663,5.7442,5.6968,5.6427,5.6156,5.6341,5.6409,5.6172,5.6934,5.7171,5.7002,5.7408,5.7257,5.7866,5.7645,5.7645,5.7103,5.663,5.6494,5.6461,5.6427,5.6596,5.663,5.6697,5.7088,5.6731,5.6968,5.7448,5.773,5.7499,5.8172,5.8839,5.8589,5.798,5.7511,5.6793,5.6112,5.5822,5.6112,5.6298,5.6474,5.6946,5.7138,5.6971,5.6694,5.644,5.696,5.6695,5.6659,5.7143,5.7276,5.7313,5.7474,5.7594,5.7699,5.7948,5.7776,5.7776,5.7923,5.796,5.7997,5.796,5.7813,5.7336,5.6859,5.6638,5.6308,5.5879,5.4116,5.3885,5.3885,5.2307,5.1122,5.1673,5.2113,5.2123,5.2123,5.2527,5.2627,5.281,5.2994,5.3141,5.3177,5.292,5.2664,5.2197,5.205,5.183,5.1867,5.1903,5.2123,5.2223,5.2443,5.227,5.1793,5.1646,5.1767,5.1583,5.1179,5.0959,5.0765,5.0545,5.0288,5.79,5.79,5.79,5.79,5.79,5.79,5.79,5.79,5.79,5.79,5.79,5.79,5.79,5.7798,5.7509,5.7273,5.707,5.7239,5.7273,5.6934,5.7509,5.773,5.7577,5.7712,5.79,5.79,5.79,5.7798,5.7764,5.7629,5.7426,5.7374,5.7408,5.7374,5.734,5.7712,5.7663,5.7561,5.7735,5.8217,5.8611,5.8646,5.8854,5.9719,5.8652,5.8188,5.7915,5.6551,5.6241,5.6183,5.6312,5.5978,5.6146,5.6257,5.6152,5.6108,5.5763,5.6086,5.6908,5.6379,5.6585,5.6971,5.7201,5.7264,5.7315,5.7231,5.7361,5.7844,5.7427,5.7462,5.7838,5.796,5.7997,5.7997,5.7997,5.785,5.7556,5.7556,5.7299,5.6932,5.6613,5.6198,5.5684,5.4363,5.3151,5.3261,5.3555,5.3555,5.3298,5.3104,5.3067,5.2884,5.3031,5.3177,5.3214,5.3104,5.3031,5.2737,5.2774,5.2627,5.2664,5.2774,5.292,5.2637,5.2307,5.216,5.2097,5.2197,5.2307,5.216,5.1987,5.183,5.1646,5.0986,5.0865,5.79,5.79,5.79,5.79,5.79,5.79,5.79,5.79,5.79,5.79,5.79,5.79,5.79,5.79,5.7832,5.7663,5.7543,5.778,5.7746,5.773,5.7798,5.7866,5.7832,5.79,5.79,5.79,5.79,5.79,5.79,5.7866,5.7832,5.79,5.7798,5.7832,5.7866,5.79,5.7832,5.7832,5.7866,5.8264,5.8755,5.8891,5.9425,5.9526,5.8983,5.8288,5.8582,5.6674,5.6149,5.6353,5.5753,5.5337,5.5572,5.5601,5.5557,5.5474,5.5178,5.5504,5.6299,5.6434,5.6548,5.6899,5.7201,5.7251,5.7339,5.6915,5.6658,5.7361,5.697,5.7077,5.7414,5.7584,5.7753,5.7838,5.7997,5.7997,5.796,5.785,5.7776,5.7556,5.7384,5.7604,5.6969,5.6088,5.5427,5.5097,5.5023,5.4961,5.4436,5.3812,5.3335,5.3078,5.3471,5.3398,5.292,5.2957,5.2994,5.3251,5.3287,5.3398,5.3434,5.3434,5.3471,5.3004,5.2538,5.2611,5.2894,5.2858,5.281,5.2674,5.2601,5.2711,5.2443,5.1783,5.1526,5.79,5.79,5.7881,5.7881,5.7881,5.79,5.79,5.7845,5.7863,5.7863,5.7863,5.79,5.79,5.79,5.7832,5.7595,5.7002,5.7629,5.7509,5.7408,5.7509,5.7832,5.79,5.79,5.79,5.79,5.79,5.79,5.79,5.79,5.79,5.79,5.79,5.79,5.79,5.79,5.79,5.79,5.79,5.8191,5.865,5.8926,5.9395,6.0074,5.951,5.9005,5.9577,5.7083,5.5917,5.6276,5.5463,5.4972,5.529,5.5257,5.5268,5.5314,5.4788,5.5178,5.5883,5.6152,5.6438,5.6886,5.715,5.7112,5.7152,5.729,5.7085,5.672,5.6622,5.6631,5.6786,5.6795,5.7439,5.7753,5.7997,5.7997,5.7997,5.796,5.7923,5.796,5.7997,5.7997,5.796,5.7042,5.6675,5.6345,5.55,5.5354,5.484,5.4216,5.3555,5.3371,5.3959,5.3702,5.2648,5.2784,5.3628,5.3775,5.3739,5.4032,5.4252,5.4216,5.4216,5.3995,5.3712,5.3702,5.3555,5.3371,5.3225,5.3188,5.3177,5.3251,5.3251,5.281,5.2664,5.7827,5.7717,5.7717,5.7717,5.7717,5.7717,5.7643,5.7551,5.7532,5.7606,5.7717,5.7827,5.79,5.79,5.79,5.7764,5.7509,5.773,5.7645,5.7663,5.7798,5.79,5.79,5.79,5.79,5.79,5.79,5.79,5.79,5.79,5.79,5.79,5.79,5.79,5.79,5.79,5.79,5.79,5.79,5.8083,5.8155,5.8315,5.8546,5.8875,5.8236,5.825,5.873,5.7256,5.7011,5.6937,5.6243,5.5754,5.5402,5.5258,5.5228,5.543,5.4755,5.4953,5.5518,5.5672,5.5819,5.6419,5.6635,5.6661,5.6691,5.6345,5.6592,5.6538,5.6527,5.6465,5.7238,5.7358,5.7612,5.7889,5.7997,5.7997,5.7886,5.7813,5.7666,5.7519,5.7776,5.7997,5.7997,5.7886,5.7703,5.7483,5.6565,5.571,5.5317,5.5023,5.4509,5.419,5.4693,5.473,5.3786,5.4032,5.4473,5.4326,5.4226,5.4656,5.5023,5.5108,5.5071,5.4924,5.4766,5.4546,5.4252,5.3775,5.3702,5.3922,5.3849,5.3739,5.3691,5.3691,5.3691,5.7717,5.7588,5.7532,5.7514,5.7495,5.7218,5.7181,5.7252,5.6992,5.72,5.7606,5.779,5.79,5.79,5.79,5.79,5.7832,5.79,5.79,5.7866,5.7866,5.79,5.79,5.79,5.79,5.79,5.79,5.79,5.79,5.79,5.79,5.79,5.79,5.79,5.79,5.79,5.79,5.79,5.79,5.79,5.7918,5.7936,5.8155,5.8228,5.7714,5.8118,5.8528,5.7752,5.7289,5.7369,5.7096,5.6352,5.5962,5.5656,5.5329,5.5246,5.5093,5.4874,5.5233,5.5404,5.5439,5.5928,5.6049,5.6049,5.5885,5.564,5.6168,5.6309,5.6247,5.6491,5.7375,5.7179,5.7432,5.7661,5.7948,5.796,5.7593,5.7409,5.7189,5.7042,5.72,5.7127,5.709,5.7017,5.7446,5.7483,5.7446,5.6712,5.6308,5.6088,5.5941,5.5658,5.5658,5.5511,5.5207,5.517,5.5034,5.4583,5.4693,5.539,5.5757,5.5879,5.5915,5.5831,5.5647,5.5354,5.5354,5.539,5.5097,5.4803,5.473,5.4656,5.4546,5.4583,5.4509,5.7588,5.7569,5.7364,5.7271,5.7086,5.6295,5.6426,5.6973,5.6503,5.6696,5.7588,5.7808,5.79,5.79,5.79,5.79,5.79,5.79,5.79,5.79,5.79,5.79,5.79,5.79,5.79,5.79,5.79,5.79,5.79,5.79,5.79,5.79,5.79,5.79,5.79,5.79,5.79,5.79,5.79,5.79,5.79,5.79,5.8173,5.8265,5.8017,5.8355,5.8599,5.7878,5.7449,5.7638,5.6953,5.6334,5.6128,5.6028,5.5889,5.5853,5.5212,5.5075,5.5414,5.5412,5.5529,5.5633,5.5823,5.5663,5.5689,5.583,5.6106,5.6304,5.608,5.6187,5.6358,5.6551,5.718,5.753,5.7819,5.784,5.7499,5.7327,5.7217,5.6921,5.6209,5.5732,5.5732,5.5915,5.6686,5.72,5.7776,5.7629,5.7042,5.7005,5.6895,5.6796,5.6576,5.6381,5.6124,5.5842,5.5585,5.5108,5.528,5.6161,5.6602,5.6712,5.6748,5.6712,5.6712,5.6602,5.6932,5.7262,5.6675,5.6088,5.5842,5.5721,5.5585,5.5427,5.5317,5.7327,5.7158,5.6478,5.6093,5.5955,5.5803,5.5823,5.6054,5.6556,5.7124,5.7569,5.7808,5.79,5.79,5.79,5.79,5.79,5.79,5.79,5.79,5.79,5.79,5.79,5.79,5.79,5.79,5.79,5.79,5.79,5.79,5.79,5.79,5.79,5.79,5.79,5.79,5.79,5.79,5.79,5.79,5.79,5.7934,5.8027,5.828,5.8027,5.8209,5.8702,5.7674,5.7659,5.782,5.7056,5.702,5.7008,5.6997,5.7019,5.6913,5.6404,5.5825,5.5757,5.5618,5.5831,5.5883,5.5728,5.5709,5.6119,5.629,5.6416,5.6619,5.6734,5.6922,5.7024,5.7097,5.7449,5.7546,5.7739,5.7762,5.7602,5.7589,5.7466,5.6997,5.6418,5.5978,5.5805,5.5658,5.6172,5.6565,5.7079,5.7299,5.6895,5.7409,5.7593,5.7604,5.7494,5.7299,5.7079,5.676,5.6723,5.6576,5.6712,5.7299,5.7556,5.7446,5.7483,5.7373,5.7666,5.7923,5.7813,5.7703,5.7666,5.7373,5.6932,5.6429,5.6025,5.5989,5.6088,5.6992,5.6439,5.5796,5.5035,5.4453,5.4516,5.4662,5.5198,5.6633,5.7476,5.7625,5.7808,5.79,5.79,5.79,5.79,5.79,5.79,5.79,5.79,5.79,5.79,5.79,5.79,5.79,5.79,5.79,5.79,5.79,5.79,5.79,5.79,5.79,5.79,5.79,5.79,5.8069,5.8118,5.8186,5.8069,5.8137,5.8137,5.79,5.7954,5.79,5.7972,5.7918,5.79,5.79,5.79,5.79,5.79,5.7877,5.7884,5.7839,5.768,5.7186,5.6525,5.6213,5.5735,5.6116,5.6936,5.6114,5.5857,5.6348,5.6678,5.7058,5.7348,5.772,5.7751,5.77,5.7725,5.7702,5.7801,5.7644,5.7667,5.7375,5.7337,5.6909,5.655,5.6325,5.6018,5.5978,5.5732,5.5768,5.6062,5.6345,5.6565,5.6859,5.7373,5.7886,5.7923,5.7935,5.7666,5.7629,5.7666,5.7714,5.7923,5.7997,5.7997,5.796,5.774,5.7886,5.7997,5.796,5.796,5.796,5.7923,5.774,5.7776,5.774,5.72,5.6539,5.6576,5.6785,5.6594,5.5583,5.53,5.4179,5.2798,5.2865,5.3437,5.4516,5.6581,5.7532,5.7625,5.7827,5.79,5.79,5.79,5.79,5.79,5.79,5.79,5.79,5.79,5.79,5.79,5.79,5.79,5.79,5.79,5.79,5.79,5.79,5.79,5.79,5.79,5.79,5.79,5.8103,5.8355,5.8558,5.822,5.8287,5.8524,5.822,5.7967,5.79,5.79,5.79,5.79,5.79,5.79,5.79,5.79,5.79,5.7918,5.7918,5.7936,5.7769,5.7265,5.6988,5.6783,5.6308,5.6596,5.7334,5.6619,5.6056,5.6355,5.7249,5.7664,5.8034,5.8349,5.8335,5.8347,5.8228,5.8121,5.7944,5.7692,5.7413,5.7,5.6598,5.6061,5.5766,5.5626,5.5598,5.6032,5.5955,5.5915,5.5768,5.6136,5.6712,5.6969,5.7152,5.7629,5.7923,5.7923,5.7886,5.7923,5.7886,5.7923,5.7886,5.796,5.7997,5.7997,5.7997,5.7997,5.7997,5.7997,5.7923,5.7666,5.7629,5.7703,5.7703,5.7421,5.7409,5.6638,5.7274,5.7593,5.5442,5.4422,5.3697,5.3064,5.2695,5.2931,5.3644,5.4672,5.6093,5.7049,5.7827,5.7863,5.79,5.79,5.79,5.79,5.79,5.79,5.79,5.79,5.79,5.79,5.79,5.79,5.79,5.79,5.79,5.79,5.79,5.79,5.79,5.79,5.79,5.79,5.8069,5.8423,5.8761,5.8829,5.8355,5.8558,5.866,5.8321,5.8035,5.79,5.79,5.79,5.79,5.79,5.79,5.79,5.79,5.79,5.79,5.8299,5.8599,5.8529,5.8041,5.7595,5.7543,5.7374,5.7442,5.773,5.7376,5.7733,5.7912,5.8182,5.8405,5.8686,5.8995,5.9083,5.865,5.8375,5.8093,5.7727,5.7612,5.7492,5.718,5.7121,5.6588,5.6537,5.6352,5.6102,5.6463,5.6542,5.6466,5.5989,5.6025,5.676,5.7042,5.7226,5.7886,5.8253,5.785,5.7813,5.774,5.7666,5.774,5.7813,5.7886,5.7997,5.7997,5.7997,5.7997,5.7997,5.7997,5.7629,5.7152,5.7262,5.7593,5.6686,5.6319,5.6638,5.7005,5.7409,5.774,5.4143,5.302,5.2153,5.1826,5.1923,5.2594,5.3384,5.4337,5.5776,5.6992,5.7845,5.79,5.79,5.79,5.79,5.79,5.79,5.79,5.79,5.79,5.79,5.79,5.79,5.79,5.79,5.79,5.79,5.79,5.79,5.79,5.79,5.79,5.79,5.79,5.8084,5.8558,5.9133,5.9099,5.893,5.8896,5.8761,5.849,5.8035,5.79,5.79,5.79,5.79,5.79,5.79,5.79,5.79,5.79,5.7918,5.8264,5.8476,5.8335,5.8121,5.785,5.7798,5.7832,5.7866,5.7939,5.8101,5.8425,5.8754,5.899,5.912,5.9325,5.963,5.9741,5.9026,5.8374,5.7909,5.7441,5.7588,5.7687,5.7758,5.7876,5.7847,5.7813,5.757,5.7178,5.7125,5.7205,5.7226,5.7079,5.7152,5.7556,5.7556,5.7262,5.8242,5.9134,5.8352,5.774,5.7728,5.7875,5.7886,5.796,5.7923,5.7997,5.7997,5.7997,5.7997,5.7997,5.7997,5.774,5.7581,5.7446,5.7446,5.6675,5.6466,5.7005,5.7152,5.6748,5.7079,5.2786,5.1493,5.0808,5.0681,5.0797,5.1804,5.279,5.3773,5.5482,5.6882,5.7591,5.7863,5.79,5.79,5.79,5.79,5.79,5.79,5.7863,5.7881,5.7881,5.7881,5.7845,5.7881,5.79,5.79,5.79,5.79,5.79,5.79,5.79,5.79,5.79,5.7967,5.8254,5.8878,5.9573,6.0047,5.9776,5.9573,5.9471,5.8863,5.7967,5.79,5.79,5.79,5.79,5.79,5.79,5.79,5.7798,5.7764,5.7715,5.792,5.7957,5.7991,5.7936,5.7918,5.79,5.79,5.79,5.8083,5.8406,5.8582,5.8804,5.9404,5.9624,5.9421,5.9602,5.9601,5.9009,5.8719,5.832,5.8144,5.8232,5.8507,5.8798,5.8849,5.8883,5.8842,5.8627,5.8337,5.8422,5.8531,5.8529,5.838,5.8439,5.8684,5.8597,5.8072,5.8646,5.9893,5.9013,5.8352,5.8719,5.8719,5.829,5.8217,5.8217,5.7997,5.7997,5.7997,5.7997,5.807,5.818,5.8437,5.8389,5.8168,5.807,5.796,5.7813,5.7923,5.7593,5.7042,5.7226,5.1909,5.0789,5.0122,5.0221,5.0894,5.1347,5.2485,5.3881,5.4359,5.5555,5.6825,5.7536,5.7863,5.779,5.7863,5.7881,5.79,5.7827,5.779,5.7772,5.7808,5.779,5.7753,5.7827,5.7881,5.79,5.79,5.79,5.79,5.79,5.7881,5.7881,5.7915,5.8014,5.8521,5.9231,6.0047,6.0622,6.0689,6.0216,5.9877,5.9302,5.8558,5.8118,5.79,5.7934,5.7934,5.7934,5.79,5.7866,5.7306,5.7103,5.7054,5.7629,5.7866,5.79,5.7934,5.79,5.79,5.79,5.79,5.7715,5.7867,5.8168,5.8685,5.9541,5.9829,5.9501,5.9362,5.933,5.9143,5.8967,5.8796,5.8751,5.8785,5.9224,5.9691,5.9844,5.9868,5.9719,5.9618,5.9681,5.9768,5.9795,5.9772,5.9786,5.9761,5.9908,6.0164,5.9932,5.9673,6.037,5.96,5.9196,5.96,5.9563,5.9086,5.8902,5.8976,5.8621,5.818,5.8364,5.8547,5.84,5.8437,5.8866,5.9123,5.8829,5.8756,5.8939,5.8474,5.8253,5.8474,5.8107,5.8327,5.0918,5.011,4.9565,4.9615,5.0216,5.1075,5.2096,5.2996,5.37,5.4778,5.6034,5.6882,5.7331,5.7443,5.7591,5.7845,5.7827,5.768,5.7643,5.7643,5.7698,5.768,5.7717,5.779,5.7863,5.79,5.79,5.79,5.7863,5.779,5.7753,5.7772,5.7787,5.8008,5.8616,5.9449,6.0317,6.0723,6.1095,6.0825,6.0114,5.9351,5.8626,5.8137,5.79,5.8035,5.8186,5.8152,5.79,5.7866,5.7561,5.7408,5.7577,5.8084,5.8355,5.8321,5.8152,5.79,5.7934,5.79,5.79,5.7681,5.7955,5.8531,5.8233,5.896,5.9329,5.9154,5.9628,5.9624,5.8969,5.865,5.8372,5.8265,5.8455,5.8751,5.9857,6.0779,6.0629,6.033,6.0412,6.0757,6.0895,6.1069,6.0987,6.0587,6.0663,6.0712,6.1042,6.1336,6.1227,6.0994,6.0334,6.0224,6.0639,6.0382,5.982,5.9747,5.9747,5.9526,5.9281,5.9208,5.9171,5.9061,5.9208,5.9758,5.9832,5.9453,5.9832,6.0199,5.9318,5.8364,5.8694,5.9134,5.9233,4.9799,4.9304,4.8957,4.8905,4.9235,5.0787,5.1599,5.196,5.3208,5.419,5.5005,5.5975,5.6439,5.6973,5.7312,5.7643,5.779,5.768,5.7606,5.7588,5.7662,5.7643,5.7698,5.779,5.7863,5.79,5.79,5.7863,5.7808,5.7717,5.7625,5.7588,5.7621,5.7673,5.8201,5.9122,6.025,6.0655,6.0892,6.0791,6.0148,5.9351,5.8626,5.8152,5.7967,5.8287,5.8524,5.849,5.8103,5.8272,5.8306,5.8051,5.8152,5.8592,5.8998,5.9032,5.8524,5.8287,5.8137,5.8001,5.7866,5.7841,5.8426,5.8444,5.8072,5.8163,5.8531,5.8994,5.9463,5.9541,5.8868,5.8341,5.8082,5.8321,5.8542,5.8872,6.0303,6.1516,6.1204,6.0878,6.1176,6.1587,6.1776,6.1987,6.1844,6.1459,6.139,6.149,6.1603,6.1849,6.1936,6.1802,6.1471,6.152,6.1704,6.1374,6.0774,6.0566,6.0566,6.0493,6.0346,5.9979,5.9758,5.982,6.0077,6.0236,6.0199,5.9857,6.0456,6.0982,6.0199,5.9208,5.9465,5.982,5.9967,4.865,4.7755,4.7822,4.8278,4.9092,5.0123,5.0984,5.1775,5.2537,5.3069,5.3803,5.5026,5.6192,5.7609,5.7735,5.7863,5.7845,5.7717,5.7643,5.7625,5.7698,5.768,5.768,5.7753,5.7863,5.7881,5.7845,5.779,5.7698,5.7625,5.7514,5.7402,5.7569,5.7909,5.8601,5.9509,6.0216,6.0554,6.0791,6.0791,6.0114,5.937,5.866,5.8186,5.79,5.8355,5.8709,5.8844,5.9167,5.9505,5.9539,5.893,5.8896,5.9201,5.9742,5.9674,5.9167,5.8626,5.8423,5.8084,5.7848,5.7223,5.7529,5.751,5.7279,5.7279,5.7717,5.8265,5.8737,5.9147,5.8703,5.8216,5.8027,5.9181,5.9794,6.0365,6.1348,6.1659,6.1592,6.1484,6.157,6.1774,6.1892,6.2005,6.2019,6.1808,6.193,6.2008,6.2049,6.2299,6.2536,6.2426,6.2316,6.2499,6.2548,6.2401,6.1949,6.163,6.1337,6.1227,6.097,6.0444,6.0297,6.0334,6.0187,6.015,6.0077,6.0114,6.0419,6.0786,6.0566,6.0187,6.037,6.0334,6.0334]}]]